<?xml version="1.0" encoding="UTF-8" standalone="no" ?>
<gpx xmlns="http://www.topografix.com/GPX/1/1" xmlns:xsi="http://www.w3.org/2001/XMLSchema-instance" xsi:schemaLocation="http://www.topografix.com/GPX/1/1 http://www.topografix.com/GPX/1/1/gpx.xsd" version="1.1" creator="VisuGPX - https://www.visugpx.com">
  <metadata>
    <name>Déconfinement-jour#2</name>
    <desc><![CDATA[
]]></desc>
  </metadata>
  <trk>
    <name><![CDATA[Déconfinement-jour#2]]></name>
    <trkseg>
      <trkpt lat="42.62198" lon="2.01134">
        <ele>2257</ele>
        <time>2019-10-05T08:31:26.000Z</time>
      </trkpt>
      <trkpt lat="42.62304" lon="2.01089">
        <ele>2262.8</ele>
        <time>2019-10-05T08:31:26.568Z</time>
      </trkpt>
      <trkpt lat="42.62397" lon="2.01045">
        <ele>2264.1</ele>
        <time>2019-10-05T08:31:27.072Z</time>
      </trkpt>
      <trkpt lat="42.62532" lon="2.01047">
        <ele>2273.8</ele>
        <time>2019-10-05T08:31:27.761Z</time>
      </trkpt>
      <trkpt lat="42.62668" lon="2.01022">
        <ele>2297.8</ele>
        <time>2019-10-05T08:31:28.471Z</time>
      </trkpt>
      <trkpt lat="42.62766" lon="2.00975">
        <ele>2305.5</ele>
        <time>2019-10-05T08:31:29.000Z</time>
      </trkpt>
      <trkpt lat="42.62767" lon="2.00972">
        <ele>2305.6</ele>
        <time>2019-10-05T08:31:31.000Z</time>
      </trkpt>
      <trkpt lat="42.62768" lon="2.00967">
        <ele>2305.7</ele>
        <time>2019-10-05T08:31:33.000Z</time>
      </trkpt>
      <trkpt lat="42.62769" lon="2.00964">
        <ele>2305.7</ele>
        <time>2019-10-05T08:31:35.000Z</time>
      </trkpt>
      <trkpt lat="42.62771" lon="2.00961">
        <ele>2305.8</ele>
        <time>2019-10-05T08:31:37.000Z</time>
      </trkpt>
      <trkpt lat="42.62773" lon="2.00958">
        <ele>2305.8</ele>
        <time>2019-10-05T08:31:39.000Z</time>
      </trkpt>
      <trkpt lat="42.62775" lon="2.00955">
        <ele>2305.9</ele>
        <time>2019-10-05T08:31:41.000Z</time>
      </trkpt>
      <trkpt lat="42.62777" lon="2.00951">
        <ele>2305.9</ele>
        <time>2019-10-05T08:31:43.000Z</time>
      </trkpt>
      <trkpt lat="42.62779" lon="2.00947">
        <ele>2305.9</ele>
        <time>2019-10-05T08:31:45.000Z</time>
      </trkpt>
      <trkpt lat="42.62781" lon="2.00943">
        <ele>2305.9</ele>
        <time>2019-10-05T08:31:47.000Z</time>
      </trkpt>
      <trkpt lat="42.62783" lon="2.0094">
        <ele>2305.9</ele>
        <time>2019-10-05T08:31:49.000Z</time>
      </trkpt>
      <trkpt lat="42.62787" lon="2.00938">
        <ele>2305.9</ele>
        <time>2019-10-05T08:31:52.000Z</time>
      </trkpt>
      <trkpt lat="42.62789" lon="2.00936">
        <ele>2305.9</ele>
        <time>2019-10-05T08:31:54.000Z</time>
      </trkpt>
      <trkpt lat="42.62792" lon="2.00933">
        <ele>2305.9</ele>
        <time>2019-10-05T08:31:56.000Z</time>
      </trkpt>
      <trkpt lat="42.62795" lon="2.00931">
        <ele>2305.9</ele>
        <time>2019-10-05T08:31:58.000Z</time>
      </trkpt>
      <trkpt lat="42.62797" lon="2.00929">
        <ele>2305.9</ele>
        <time>2019-10-05T08:32:01.000Z</time>
      </trkpt>
      <trkpt lat="42.628" lon="2.00926">
        <ele>2305.9</ele>
        <time>2019-10-05T08:32:03.000Z</time>
      </trkpt>
      <trkpt lat="42.62802" lon="2.00923">
        <ele>2305.9</ele>
        <time>2019-10-05T08:32:06.000Z</time>
      </trkpt>
      <trkpt lat="42.62806" lon="2.00922">
        <ele>2305.9</ele>
        <time>2019-10-05T08:32:09.000Z</time>
      </trkpt>
      <trkpt lat="42.62809" lon="2.00922">
        <ele>2306</ele>
        <time>2019-10-05T08:32:12.000Z</time>
      </trkpt>
      <trkpt lat="42.62813" lon="2.00923">
        <ele>2306.1</ele>
        <time>2019-10-05T08:32:15.000Z</time>
      </trkpt>
      <trkpt lat="42.62816" lon="2.00919">
        <ele>2306.3</ele>
        <time>2019-10-05T08:32:35.000Z</time>
      </trkpt>
      <trkpt lat="42.62819" lon="2.00916">
        <ele>2306.5</ele>
        <time>2019-10-05T08:32:38.000Z</time>
      </trkpt>
      <trkpt lat="42.62821" lon="2.00913">
        <ele>2306.7</ele>
        <time>2019-10-05T08:32:41.000Z</time>
      </trkpt>
      <trkpt lat="42.62823" lon="2.0091">
        <ele>2306.8</ele>
        <time>2019-10-05T08:32:43.000Z</time>
      </trkpt>
      <trkpt lat="42.62824" lon="2.00906">
        <ele>2307.1</ele>
        <time>2019-10-05T08:32:45.000Z</time>
      </trkpt>
      <trkpt lat="42.62824" lon="2.00901">
        <ele>2307.4</ele>
        <time>2019-10-05T08:32:47.000Z</time>
      </trkpt>
      <trkpt lat="42.62824" lon="2.00897">
        <ele>2307.6</ele>
        <time>2019-10-05T08:32:49.000Z</time>
      </trkpt>
      <trkpt lat="42.62825" lon="2.00893">
        <ele>2307.8</ele>
        <time>2019-10-05T08:32:52.000Z</time>
      </trkpt>
      <trkpt lat="42.62826" lon="2.00889">
        <ele>2308.1</ele>
        <time>2019-10-05T08:32:56.000Z</time>
      </trkpt>
      <trkpt lat="42.62829" lon="2.00885">
        <ele>2308.4</ele>
        <time>2019-10-05T08:32:59.000Z</time>
      </trkpt>
      <trkpt lat="42.6283" lon="2.00882">
        <ele>2308.6</ele>
        <time>2019-10-05T08:33:01.000Z</time>
      </trkpt>
      <trkpt lat="42.62832" lon="2.00878">
        <ele>2308.7</ele>
        <time>2019-10-05T08:33:03.000Z</time>
      </trkpt>
      <trkpt lat="42.62834" lon="2.00875">
        <ele>2308.9</ele>
        <time>2019-10-05T08:33:05.000Z</time>
      </trkpt>
      <trkpt lat="42.62836" lon="2.00872">
        <ele>2309</ele>
        <time>2019-10-05T08:33:07.000Z</time>
      </trkpt>
      <trkpt lat="42.62838" lon="2.0087">
        <ele>2309.1</ele>
        <time>2019-10-05T08:33:09.000Z</time>
      </trkpt>
      <trkpt lat="42.6284" lon="2.00867">
        <ele>2309.1</ele>
        <time>2019-10-05T08:33:11.000Z</time>
      </trkpt>
      <trkpt lat="42.62842" lon="2.00864">
        <ele>2309.2</ele>
        <time>2019-10-05T08:33:13.000Z</time>
      </trkpt>
      <trkpt lat="42.62843" lon="2.0086">
        <ele>2309.2</ele>
        <time>2019-10-05T08:33:15.000Z</time>
      </trkpt>
      <trkpt lat="42.62844" lon="2.00857">
        <ele>2309.2</ele>
        <time>2019-10-05T08:33:17.000Z</time>
      </trkpt>
      <trkpt lat="42.62846" lon="2.00853">
        <ele>2309.3</ele>
        <time>2019-10-05T08:33:19.000Z</time>
      </trkpt>
      <trkpt lat="42.62847" lon="2.00849">
        <ele>2309.3</ele>
        <time>2019-10-05T08:33:21.000Z</time>
      </trkpt>
      <trkpt lat="42.62849" lon="2.00846">
        <ele>2309.4</ele>
        <time>2019-10-05T08:33:23.000Z</time>
      </trkpt>
      <trkpt lat="42.62851" lon="2.00841">
        <ele>2309.5</ele>
        <time>2019-10-05T08:33:26.000Z</time>
      </trkpt>
      <trkpt lat="42.62854" lon="2.00839">
        <ele>2309.6</ele>
        <time>2019-10-05T08:33:28.000Z</time>
      </trkpt>
      <trkpt lat="42.62857" lon="2.00838">
        <ele>2309.7</ele>
        <time>2019-10-05T08:33:31.000Z</time>
      </trkpt>
      <trkpt lat="42.6286" lon="2.00835">
        <ele>2309.9</ele>
        <time>2019-10-05T08:33:34.000Z</time>
      </trkpt>
      <trkpt lat="42.62863" lon="2.00831">
        <ele>2310.1</ele>
        <time>2019-10-05T08:33:37.000Z</time>
      </trkpt>
      <trkpt lat="42.62865" lon="2.00827">
        <ele>2310.2</ele>
        <time>2019-10-05T08:33:40.000Z</time>
      </trkpt>
      <trkpt lat="42.62867" lon="2.00823">
        <ele>2310.4</ele>
        <time>2019-10-05T08:33:43.000Z</time>
      </trkpt>
      <trkpt lat="42.62869" lon="2.0082">
        <ele>2310.5</ele>
        <time>2019-10-05T08:33:53.000Z</time>
      </trkpt>
      <trkpt lat="42.6287" lon="2.00817">
        <ele>2310.5</ele>
        <time>2019-10-05T08:33:56.000Z</time>
      </trkpt>
      <trkpt lat="42.62872" lon="2.00813">
        <ele>2310.5</ele>
        <time>2019-10-05T08:33:58.000Z</time>
      </trkpt>
      <trkpt lat="42.62874" lon="2.00809">
        <ele>2310.5</ele>
        <time>2019-10-05T08:34:00.000Z</time>
      </trkpt>
      <trkpt lat="42.62875" lon="2.00805">
        <ele>2310.4</ele>
        <time>2019-10-05T08:34:03.000Z</time>
      </trkpt>
      <trkpt lat="42.62877" lon="2.00801">
        <ele>2310.3</ele>
        <time>2019-10-05T08:34:05.000Z</time>
      </trkpt>
      <trkpt lat="42.62879" lon="2.00798">
        <ele>2310.1</ele>
        <time>2019-10-05T08:34:07.000Z</time>
      </trkpt>
      <trkpt lat="42.62881" lon="2.00794">
        <ele>2309.9</ele>
        <time>2019-10-05T08:34:09.000Z</time>
      </trkpt>
      <trkpt lat="42.62884" lon="2.00789">
        <ele>2309.7</ele>
        <time>2019-10-05T08:34:12.000Z</time>
      </trkpt>
      <trkpt lat="42.62885" lon="2.00786">
        <ele>2309.5</ele>
        <time>2019-10-05T08:34:13.000Z</time>
      </trkpt>
      <trkpt lat="42.62888" lon="2.00783">
        <ele>2309.3</ele>
        <time>2019-10-05T08:34:15.000Z</time>
      </trkpt>
      <trkpt lat="42.62891" lon="2.00782">
        <ele>2309.2</ele>
        <time>2019-10-05T08:34:19.000Z</time>
      </trkpt>
      <trkpt lat="42.62894" lon="2.0078">
        <ele>2309.1</ele>
        <time>2019-10-05T08:34:22.000Z</time>
      </trkpt>
      <trkpt lat="42.62896" lon="2.00777">
        <ele>2309.1</ele>
        <time>2019-10-05T08:34:25.000Z</time>
      </trkpt>
      <trkpt lat="42.62898" lon="2.00774">
        <ele>2309.2</ele>
        <time>2019-10-05T08:34:27.000Z</time>
      </trkpt>
      <trkpt lat="42.629" lon="2.00771">
        <ele>2309.3</ele>
        <time>2019-10-05T08:34:29.000Z</time>
      </trkpt>
      <trkpt lat="42.62901" lon="2.00767">
        <ele>2309.4</ele>
        <time>2019-10-05T08:34:31.000Z</time>
      </trkpt>
      <trkpt lat="42.62903" lon="2.00763">
        <ele>2309.6</ele>
        <time>2019-10-05T08:34:33.000Z</time>
      </trkpt>
      <trkpt lat="42.62905" lon="2.0076">
        <ele>2309.8</ele>
        <time>2019-10-05T08:34:35.000Z</time>
      </trkpt>
      <trkpt lat="42.62907" lon="2.00757">
        <ele>2310</ele>
        <time>2019-10-05T08:34:37.000Z</time>
      </trkpt>
      <trkpt lat="42.62909" lon="2.00753">
        <ele>2310.3</ele>
        <time>2019-10-05T08:34:40.000Z</time>
      </trkpt>
      <trkpt lat="42.6291" lon="2.0075">
        <ele>2310.5</ele>
        <time>2019-10-05T08:34:43.000Z</time>
      </trkpt>
      <trkpt lat="42.62911" lon="2.00745">
        <ele>2310.8</ele>
        <time>2019-10-05T08:34:47.000Z</time>
      </trkpt>
      <trkpt lat="42.62914" lon="2.00743">
        <ele>2311.1</ele>
        <time>2019-10-05T08:34:50.000Z</time>
      </trkpt>
      <trkpt lat="42.62917" lon="2.00742">
        <ele>2311.2</ele>
        <time>2019-10-05T08:34:52.000Z</time>
      </trkpt>
      <trkpt lat="42.6292" lon="2.0074">
        <ele>2311.4</ele>
        <time>2019-10-05T08:34:54.000Z</time>
      </trkpt>
      <trkpt lat="42.62922" lon="2.00736">
        <ele>2311.6</ele>
        <time>2019-10-05T08:34:56.000Z</time>
      </trkpt>
      <trkpt lat="42.62923" lon="2.00732">
        <ele>2311.7</ele>
        <time>2019-10-05T08:34:59.000Z</time>
      </trkpt>
      <trkpt lat="42.62925" lon="2.00727">
        <ele>2311.9</ele>
        <time>2019-10-05T08:35:01.000Z</time>
      </trkpt>
      <trkpt lat="42.62928" lon="2.00723">
        <ele>2312</ele>
        <time>2019-10-05T08:35:04.000Z</time>
      </trkpt>
      <trkpt lat="42.62931" lon="2.0072">
        <ele>2312.1</ele>
        <time>2019-10-05T08:35:07.000Z</time>
      </trkpt>
      <trkpt lat="42.62933" lon="2.00717">
        <ele>2312.1</ele>
        <time>2019-10-05T08:35:09.000Z</time>
      </trkpt>
      <trkpt lat="42.62935" lon="2.00713">
        <ele>2312.2</ele>
        <time>2019-10-05T08:35:11.000Z</time>
      </trkpt>
      <trkpt lat="42.62936" lon="2.0071">
        <ele>2312.2</ele>
        <time>2019-10-05T08:35:15.000Z</time>
      </trkpt>
      <trkpt lat="42.62935" lon="2.00706">
        <ele>2312.3</ele>
        <time>2019-10-05T08:35:18.000Z</time>
      </trkpt>
      <trkpt lat="42.62936" lon="2.00701">
        <ele>2312.4</ele>
        <time>2019-10-05T08:36:00.000Z</time>
      </trkpt>
      <trkpt lat="42.62938" lon="2.00696">
        <ele>2312.4</ele>
        <time>2019-10-05T08:36:02.000Z</time>
      </trkpt>
      <trkpt lat="42.6294" lon="2.00692">
        <ele>2312.5</ele>
        <time>2019-10-05T08:36:04.000Z</time>
      </trkpt>
      <trkpt lat="42.62942" lon="2.00687">
        <ele>2312.6</ele>
        <time>2019-10-05T08:36:06.000Z</time>
      </trkpt>
      <trkpt lat="42.62944" lon="2.00683">
        <ele>2312.7</ele>
        <time>2019-10-05T08:36:08.000Z</time>
      </trkpt>
      <trkpt lat="42.62946" lon="2.00679">
        <ele>2312.7</ele>
        <time>2019-10-05T08:36:10.000Z</time>
      </trkpt>
      <trkpt lat="42.62949" lon="2.00675">
        <ele>2312.8</ele>
        <time>2019-10-05T08:36:12.000Z</time>
      </trkpt>
      <trkpt lat="42.62952" lon="2.0067">
        <ele>2312.8</ele>
        <time>2019-10-05T08:36:14.000Z</time>
      </trkpt>
      <trkpt lat="42.62954" lon="2.00666">
        <ele>2312.8</ele>
        <time>2019-10-05T08:36:16.000Z</time>
      </trkpt>
      <trkpt lat="42.62956" lon="2.00662">
        <ele>2312.8</ele>
        <time>2019-10-05T08:36:18.000Z</time>
      </trkpt>
      <trkpt lat="42.62958" lon="2.00658">
        <ele>2312.8</ele>
        <time>2019-10-05T08:36:20.000Z</time>
      </trkpt>
      <trkpt lat="42.62959" lon="2.00654">
        <ele>2312.8</ele>
        <time>2019-10-05T08:36:22.000Z</time>
      </trkpt>
      <trkpt lat="42.62961" lon="2.0065">
        <ele>2312.8</ele>
        <time>2019-10-05T08:36:25.000Z</time>
      </trkpt>
      <trkpt lat="42.62963" lon="2.00647">
        <ele>2312.8</ele>
        <time>2019-10-05T08:36:27.000Z</time>
      </trkpt>
      <trkpt lat="42.62964" lon="2.00642">
        <ele>2312.8</ele>
        <time>2019-10-05T08:36:29.000Z</time>
      </trkpt>
      <trkpt lat="42.62966" lon="2.00638">
        <ele>2312.8</ele>
        <time>2019-10-05T08:36:31.000Z</time>
      </trkpt>
      <trkpt lat="42.62968" lon="2.00634">
        <ele>2312.9</ele>
        <time>2019-10-05T08:36:33.000Z</time>
      </trkpt>
      <trkpt lat="42.62969" lon="2.0063">
        <ele>2312.9</ele>
        <time>2019-10-05T08:36:35.000Z</time>
      </trkpt>
      <trkpt lat="42.62971" lon="2.00626">
        <ele>2312.9</ele>
        <time>2019-10-05T08:36:37.000Z</time>
      </trkpt>
      <trkpt lat="42.62972" lon="2.00623">
        <ele>2313</ele>
        <time>2019-10-05T08:36:39.000Z</time>
      </trkpt>
      <trkpt lat="42.62974" lon="2.00619">
        <ele>2313.1</ele>
        <time>2019-10-05T08:36:41.000Z</time>
      </trkpt>
      <trkpt lat="42.62976" lon="2.00615">
        <ele>2313.2</ele>
        <time>2019-10-05T08:36:43.000Z</time>
      </trkpt>
      <trkpt lat="42.62979" lon="2.00611">
        <ele>2313.3</ele>
        <time>2019-10-05T08:36:45.000Z</time>
      </trkpt>
      <trkpt lat="42.62981" lon="2.00606">
        <ele>2313.5</ele>
        <time>2019-10-05T08:36:47.000Z</time>
      </trkpt>
      <trkpt lat="42.62983" lon="2.00602">
        <ele>2313.7</ele>
        <time>2019-10-05T08:36:49.000Z</time>
      </trkpt>
      <trkpt lat="42.62986" lon="2.00599">
        <ele>2314</ele>
        <time>2019-10-05T08:36:51.000Z</time>
      </trkpt>
      <trkpt lat="42.62989" lon="2.00596">
        <ele>2314.2</ele>
        <time>2019-10-05T08:36:53.000Z</time>
      </trkpt>
      <trkpt lat="42.62993" lon="2.00595">
        <ele>2314.4</ele>
        <time>2019-10-05T08:36:56.000Z</time>
      </trkpt>
      <trkpt lat="42.62996" lon="2.00592">
        <ele>2314.7</ele>
        <time>2019-10-05T08:36:59.000Z</time>
      </trkpt>
      <trkpt lat="42.63" lon="2.0059">
        <ele>2315</ele>
        <time>2019-10-05T08:37:02.000Z</time>
      </trkpt>
      <trkpt lat="42.63004" lon="2.0059">
        <ele>2315.2</ele>
        <time>2019-10-05T08:37:04.000Z</time>
      </trkpt>
      <trkpt lat="42.63007" lon="2.0059">
        <ele>2315.5</ele>
        <time>2019-10-05T08:37:06.000Z</time>
      </trkpt>
      <trkpt lat="42.6301" lon="2.0059">
        <ele>2315.7</ele>
        <time>2019-10-05T08:37:08.000Z</time>
      </trkpt>
      <trkpt lat="42.63012" lon="2.00588">
        <ele>2315.9</ele>
        <time>2019-10-05T08:37:10.000Z</time>
      </trkpt>
      <trkpt lat="42.63016" lon="2.00587">
        <ele>2316.1</ele>
        <time>2019-10-05T08:37:13.000Z</time>
      </trkpt>
      <trkpt lat="42.63019" lon="2.00586">
        <ele>2316.4</ele>
        <time>2019-10-05T08:37:16.000Z</time>
      </trkpt>
      <trkpt lat="42.63022" lon="2.00584">
        <ele>2316.6</ele>
        <time>2019-10-05T08:37:18.000Z</time>
      </trkpt>
      <trkpt lat="42.63025" lon="2.00581">
        <ele>2316.9</ele>
        <time>2019-10-05T08:37:21.000Z</time>
      </trkpt>
      <trkpt lat="42.63028" lon="2.00579">
        <ele>2317.1</ele>
        <time>2019-10-05T08:37:24.000Z</time>
      </trkpt>
      <trkpt lat="42.63031" lon="2.00575">
        <ele>2317.4</ele>
        <time>2019-10-05T08:37:27.000Z</time>
      </trkpt>
      <trkpt lat="42.63033" lon="2.00573">
        <ele>2317.6</ele>
        <time>2019-10-05T08:37:29.000Z</time>
      </trkpt>
      <trkpt lat="42.63036" lon="2.00572">
        <ele>2317.8</ele>
        <time>2019-10-05T08:37:31.000Z</time>
      </trkpt>
      <trkpt lat="42.63039" lon="2.00571">
        <ele>2318.1</ele>
        <time>2019-10-05T08:37:33.000Z</time>
      </trkpt>
      <trkpt lat="42.63043" lon="2.0057">
        <ele>2318.4</ele>
        <time>2019-10-05T08:37:35.000Z</time>
      </trkpt>
      <trkpt lat="42.63045" lon="2.00568">
        <ele>2318.7</ele>
        <time>2019-10-05T08:37:37.000Z</time>
      </trkpt>
      <trkpt lat="42.63048" lon="2.00566">
        <ele>2318.9</ele>
        <time>2019-10-05T08:37:39.000Z</time>
      </trkpt>
      <trkpt lat="42.63052" lon="2.00564">
        <ele>2319.3</ele>
        <time>2019-10-05T08:37:42.000Z</time>
      </trkpt>
      <trkpt lat="42.63055" lon="2.00562">
        <ele>2319.5</ele>
        <time>2019-10-05T08:37:44.000Z</time>
      </trkpt>
      <trkpt lat="42.63058" lon="2.00561">
        <ele>2319.8</ele>
        <time>2019-10-05T08:37:46.000Z</time>
      </trkpt>
      <trkpt lat="42.6306" lon="2.00559">
        <ele>2319.9</ele>
        <time>2019-10-05T08:37:48.000Z</time>
      </trkpt>
      <trkpt lat="42.63063" lon="2.00556">
        <ele>2320.2</ele>
        <time>2019-10-05T08:37:51.000Z</time>
      </trkpt>
      <trkpt lat="42.63067" lon="2.00555">
        <ele>2320.4</ele>
        <time>2019-10-05T08:37:54.000Z</time>
      </trkpt>
      <trkpt lat="42.6307" lon="2.00553">
        <ele>2320.6</ele>
        <time>2019-10-05T08:37:57.000Z</time>
      </trkpt>
      <trkpt lat="42.63073" lon="2.00552">
        <ele>2320.7</ele>
        <time>2019-10-05T08:38:00.000Z</time>
      </trkpt>
      <trkpt lat="42.63076" lon="2.0055">
        <ele>2320.9</ele>
        <time>2019-10-05T08:38:03.000Z</time>
      </trkpt>
      <trkpt lat="42.6308" lon="2.00549">
        <ele>2321.2</ele>
        <time>2019-10-05T08:38:06.000Z</time>
      </trkpt>
      <trkpt lat="42.63083" lon="2.00547">
        <ele>2321.5</ele>
        <time>2019-10-05T08:38:09.000Z</time>
      </trkpt>
      <trkpt lat="42.63086" lon="2.00544">
        <ele>2321.7</ele>
        <time>2019-10-05T08:38:12.000Z</time>
      </trkpt>
      <trkpt lat="42.63088" lon="2.00542">
        <ele>2321.9</ele>
        <time>2019-10-05T08:38:14.000Z</time>
      </trkpt>
      <trkpt lat="42.6309" lon="2.00539">
        <ele>2322.1</ele>
        <time>2019-10-05T08:38:17.000Z</time>
      </trkpt>
      <trkpt lat="42.63093" lon="2.00537">
        <ele>2322.4</ele>
        <time>2019-10-05T08:38:19.000Z</time>
      </trkpt>
      <trkpt lat="42.63097" lon="2.00534">
        <ele>2322.8</ele>
        <time>2019-10-05T08:38:22.000Z</time>
      </trkpt>
      <trkpt lat="42.63099" lon="2.00531">
        <ele>2323.1</ele>
        <time>2019-10-05T08:38:24.000Z</time>
      </trkpt>
      <trkpt lat="42.63101" lon="2.00528">
        <ele>2323.3</ele>
        <time>2019-10-05T08:38:26.000Z</time>
      </trkpt>
      <trkpt lat="42.63104" lon="2.00526">
        <ele>2323.5</ele>
        <time>2019-10-05T08:38:28.000Z</time>
      </trkpt>
      <trkpt lat="42.63106" lon="2.00524">
        <ele>2323.7</ele>
        <time>2019-10-05T08:38:31.000Z</time>
      </trkpt>
      <trkpt lat="42.63108" lon="2.0052">
        <ele>2324</ele>
        <time>2019-10-05T08:38:34.000Z</time>
      </trkpt>
      <trkpt lat="42.6311" lon="2.00516">
        <ele>2324.4</ele>
        <time>2019-10-05T08:38:36.000Z</time>
      </trkpt>
      <trkpt lat="42.63111" lon="2.00512">
        <ele>2324.7</ele>
        <time>2019-10-05T08:38:51.000Z</time>
      </trkpt>
      <trkpt lat="42.63113" lon="2.00508">
        <ele>2324.9</ele>
        <time>2019-10-05T08:38:54.000Z</time>
      </trkpt>
      <trkpt lat="42.63113" lon="2.00505">
        <ele>2325.1</ele>
        <time>2019-10-05T08:38:58.000Z</time>
      </trkpt>
      <trkpt lat="42.63114" lon="2.00501">
        <ele>2325.4</ele>
        <time>2019-10-05T08:39:02.000Z</time>
      </trkpt>
      <trkpt lat="42.63115" lon="2.00497">
        <ele>2325.6</ele>
        <time>2019-10-05T08:39:09.000Z</time>
      </trkpt>
      <trkpt lat="42.63117" lon="2.00492">
        <ele>2325.8</ele>
        <time>2019-10-05T08:39:12.000Z</time>
      </trkpt>
      <trkpt lat="42.63119" lon="2.00489">
        <ele>2325.9</ele>
        <time>2019-10-05T08:39:14.000Z</time>
      </trkpt>
      <trkpt lat="42.63121" lon="2.00485">
        <ele>2326.1</ele>
        <time>2019-10-05T08:39:17.000Z</time>
      </trkpt>
      <trkpt lat="42.63123" lon="2.00482">
        <ele>2326.3</ele>
        <time>2019-10-05T08:39:20.000Z</time>
      </trkpt>
      <trkpt lat="42.63127" lon="2.00479">
        <ele>2326.5</ele>
        <time>2019-10-05T08:39:23.000Z</time>
      </trkpt>
      <trkpt lat="42.6313" lon="2.00476">
        <ele>2326.7</ele>
        <time>2019-10-05T08:39:26.000Z</time>
      </trkpt>
      <trkpt lat="42.63132" lon="2.00472">
        <ele>2326.9</ele>
        <time>2019-10-05T08:39:29.000Z</time>
      </trkpt>
      <trkpt lat="42.63134" lon="2.00468">
        <ele>2327</ele>
        <time>2019-10-05T08:39:32.000Z</time>
      </trkpt>
      <trkpt lat="42.63135" lon="2.00465">
        <ele>2327.2</ele>
        <time>2019-10-05T08:39:34.000Z</time>
      </trkpt>
      <trkpt lat="42.63137" lon="2.00461">
        <ele>2327.3</ele>
        <time>2019-10-05T08:39:36.000Z</time>
      </trkpt>
      <trkpt lat="42.63139" lon="2.00459">
        <ele>2327.4</ele>
        <time>2019-10-05T08:39:38.000Z</time>
      </trkpt>
      <trkpt lat="42.63141" lon="2.00456">
        <ele>2327.5</ele>
        <time>2019-10-05T08:39:40.000Z</time>
      </trkpt>
      <trkpt lat="42.63143" lon="2.00453">
        <ele>2327.6</ele>
        <time>2019-10-05T08:39:42.000Z</time>
      </trkpt>
      <trkpt lat="42.63146" lon="2.00451">
        <ele>2327.7</ele>
        <time>2019-10-05T08:39:44.000Z</time>
      </trkpt>
      <trkpt lat="42.63148" lon="2.00449">
        <ele>2327.8</ele>
        <time>2019-10-05T08:39:47.000Z</time>
      </trkpt>
      <trkpt lat="42.6315" lon="2.00445">
        <ele>2328</ele>
        <time>2019-10-05T08:39:50.000Z</time>
      </trkpt>
      <trkpt lat="42.63151" lon="2.00441">
        <ele>2328.2</ele>
        <time>2019-10-05T08:39:53.000Z</time>
      </trkpt>
      <trkpt lat="42.63151" lon="2.00437">
        <ele>2328.3</ele>
        <time>2019-10-05T08:39:56.000Z</time>
      </trkpt>
      <trkpt lat="42.63152" lon="2.00433">
        <ele>2328.5</ele>
        <time>2019-10-05T08:39:59.000Z</time>
      </trkpt>
      <trkpt lat="42.63153" lon="2.00429">
        <ele>2328.7</ele>
        <time>2019-10-05T08:40:01.000Z</time>
      </trkpt>
      <trkpt lat="42.63155" lon="2.00425">
        <ele>2328.9</ele>
        <time>2019-10-05T08:40:08.000Z</time>
      </trkpt>
      <trkpt lat="42.63158" lon="2.00422">
        <ele>2329.2</ele>
        <time>2019-10-05T08:40:12.000Z</time>
      </trkpt>
      <trkpt lat="42.6316" lon="2.00419">
        <ele>2329.4</ele>
        <time>2019-10-05T08:40:21.000Z</time>
      </trkpt>
      <trkpt lat="42.63162" lon="2.00416">
        <ele>2329.6</ele>
        <time>2019-10-05T08:40:25.000Z</time>
      </trkpt>
      <trkpt lat="42.63162" lon="2.00412">
        <ele>2329.8</ele>
        <time>2019-10-05T08:40:35.000Z</time>
      </trkpt>
      <trkpt lat="42.63164" lon="2.00408">
        <ele>2330</ele>
        <time>2019-10-05T08:40:43.000Z</time>
      </trkpt>
      <trkpt lat="42.63166" lon="2.00405">
        <ele>2330.1</ele>
        <time>2019-10-05T08:40:48.000Z</time>
      </trkpt>
      <trkpt lat="42.63167" lon="2.00401">
        <ele>2330.3</ele>
        <time>2019-10-05T08:41:13.000Z</time>
      </trkpt>
      <trkpt lat="42.63169" lon="2.00397">
        <ele>2330.4</ele>
        <time>2019-10-05T08:41:16.000Z</time>
      </trkpt>
      <trkpt lat="42.6317" lon="2.00394">
        <ele>2330.5</ele>
        <time>2019-10-05T08:41:19.000Z</time>
      </trkpt>
      <trkpt lat="42.63172" lon="2.00391">
        <ele>2330.7</ele>
        <time>2019-10-05T08:41:23.000Z</time>
      </trkpt>
      <trkpt lat="42.63173" lon="2.00386">
        <ele>2331</ele>
        <time>2019-10-05T08:41:52.000Z</time>
      </trkpt>
      <trkpt lat="42.63174" lon="2.00383">
        <ele>2331.2</ele>
        <time>2019-10-05T08:41:54.000Z</time>
      </trkpt>
      <trkpt lat="42.63176" lon="2.00378">
        <ele>2331.5</ele>
        <time>2019-10-05T08:41:56.000Z</time>
      </trkpt>
      <trkpt lat="42.63177" lon="2.00375">
        <ele>2331.7</ele>
        <time>2019-10-05T08:41:58.000Z</time>
      </trkpt>
      <trkpt lat="42.63178" lon="2.0037">
        <ele>2332.3</ele>
        <time>2019-10-05T08:42:01.000Z</time>
      </trkpt>
      <trkpt lat="42.63178" lon="2.00366">
        <ele>2332.7</ele>
        <time>2019-10-05T08:42:04.000Z</time>
      </trkpt>
      <trkpt lat="42.6318" lon="2.00362">
        <ele>2333.2</ele>
        <time>2019-10-05T08:42:07.000Z</time>
      </trkpt>
      <trkpt lat="42.63181" lon="2.00358">
        <ele>2333.6</ele>
        <time>2019-10-05T08:42:11.000Z</time>
      </trkpt>
      <trkpt lat="42.63182" lon="2.00353">
        <ele>2334</ele>
        <time>2019-10-05T08:42:14.000Z</time>
      </trkpt>
      <trkpt lat="42.63185" lon="2.0035">
        <ele>2334.3</ele>
        <time>2019-10-05T08:42:17.000Z</time>
      </trkpt>
      <trkpt lat="42.63186" lon="2.00346">
        <ele>2334.6</ele>
        <time>2019-10-05T08:42:20.000Z</time>
      </trkpt>
      <trkpt lat="42.63188" lon="2.00341">
        <ele>2334.9</ele>
        <time>2019-10-05T08:42:23.000Z</time>
      </trkpt>
      <trkpt lat="42.63191" lon="2.00336">
        <ele>2335.2</ele>
        <time>2019-10-05T08:42:26.000Z</time>
      </trkpt>
      <trkpt lat="42.63193" lon="2.00333">
        <ele>2335.5</ele>
        <time>2019-10-05T08:42:28.000Z</time>
      </trkpt>
      <trkpt lat="42.63195" lon="2.00329">
        <ele>2335.8</ele>
        <time>2019-10-05T08:42:30.000Z</time>
      </trkpt>
      <trkpt lat="42.63197" lon="2.00326">
        <ele>2336.1</ele>
        <time>2019-10-05T08:42:32.000Z</time>
      </trkpt>
      <trkpt lat="42.63199" lon="2.00324">
        <ele>2336.4</ele>
        <time>2019-10-05T08:42:34.000Z</time>
      </trkpt>
      <trkpt lat="42.63202" lon="2.00319">
        <ele>2336.7</ele>
        <time>2019-10-05T08:42:37.000Z</time>
      </trkpt>
      <trkpt lat="42.63204" lon="2.00316">
        <ele>2337</ele>
        <time>2019-10-05T08:42:39.000Z</time>
      </trkpt>
      <trkpt lat="42.63206" lon="2.00312">
        <ele>2337.5</ele>
        <time>2019-10-05T08:42:42.000Z</time>
      </trkpt>
      <trkpt lat="42.63207" lon="2.00308">
        <ele>2337.9</ele>
        <time>2019-10-05T08:42:45.000Z</time>
      </trkpt>
      <trkpt lat="42.63209" lon="2.00305">
        <ele>2338.1</ele>
        <time>2019-10-05T08:42:47.000Z</time>
      </trkpt>
      <trkpt lat="42.63211" lon="2.00303">
        <ele>2338.3</ele>
        <time>2019-10-05T08:42:49.000Z</time>
      </trkpt>
      <trkpt lat="42.63214" lon="2.003">
        <ele>2338.5</ele>
        <time>2019-10-05T08:42:51.000Z</time>
      </trkpt>
      <trkpt lat="42.63215" lon="2.00296">
        <ele>2338.7</ele>
        <time>2019-10-05T08:42:53.000Z</time>
      </trkpt>
      <trkpt lat="42.63216" lon="2.00292">
        <ele>2338.9</ele>
        <time>2019-10-05T08:42:56.000Z</time>
      </trkpt>
      <trkpt lat="42.63219" lon="2.00289">
        <ele>2339.1</ele>
        <time>2019-10-05T08:42:59.000Z</time>
      </trkpt>
      <trkpt lat="42.63221" lon="2.00285">
        <ele>2339.4</ele>
        <time>2019-10-05T08:43:02.000Z</time>
      </trkpt>
      <trkpt lat="42.63223" lon="2.00281">
        <ele>2339.7</ele>
        <time>2019-10-05T08:43:05.000Z</time>
      </trkpt>
      <trkpt lat="42.63225" lon="2.00277">
        <ele>2340</ele>
        <time>2019-10-05T08:43:07.000Z</time>
      </trkpt>
      <trkpt lat="42.63227" lon="2.00273">
        <ele>2340.4</ele>
        <time>2019-10-05T08:43:09.000Z</time>
      </trkpt>
      <trkpt lat="42.63228" lon="2.0027">
        <ele>2340.7</ele>
        <time>2019-10-05T08:43:11.000Z</time>
      </trkpt>
      <trkpt lat="42.6323" lon="2.00267">
        <ele>2341</ele>
        <time>2019-10-05T08:43:13.000Z</time>
      </trkpt>
      <trkpt lat="42.63232" lon="2.00263">
        <ele>2341.3</ele>
        <time>2019-10-05T08:43:15.000Z</time>
      </trkpt>
      <trkpt lat="42.63234" lon="2.0026">
        <ele>2341.7</ele>
        <time>2019-10-05T08:43:17.000Z</time>
      </trkpt>
      <trkpt lat="42.63235" lon="2.00256">
        <ele>2342.2</ele>
        <time>2019-10-05T08:43:19.000Z</time>
      </trkpt>
      <trkpt lat="42.63236" lon="2.00252">
        <ele>2342.7</ele>
        <time>2019-10-05T08:43:22.000Z</time>
      </trkpt>
      <trkpt lat="42.63237" lon="2.00247">
        <ele>2343.2</ele>
        <time>2019-10-05T08:43:25.000Z</time>
      </trkpt>
      <trkpt lat="42.63238" lon="2.00243">
        <ele>2343.6</ele>
        <time>2019-10-05T08:43:28.000Z</time>
      </trkpt>
      <trkpt lat="42.6324" lon="2.00238">
        <ele>2344.2</ele>
        <time>2019-10-05T08:43:31.000Z</time>
      </trkpt>
      <trkpt lat="42.63241" lon="2.00234">
        <ele>2344.8</ele>
        <time>2019-10-05T08:43:34.000Z</time>
      </trkpt>
      <trkpt lat="42.63242" lon="2.00231">
        <ele>2345.4</ele>
        <time>2019-10-05T08:43:37.000Z</time>
      </trkpt>
      <trkpt lat="42.63244" lon="2.00227">
        <ele>2346</ele>
        <time>2019-10-05T08:43:40.000Z</time>
      </trkpt>
      <trkpt lat="42.63246" lon="2.00223">
        <ele>2346.5</ele>
        <time>2019-10-05T08:43:42.000Z</time>
      </trkpt>
      <trkpt lat="42.63248" lon="2.0022">
        <ele>2346.9</ele>
        <time>2019-10-05T08:43:54.000Z</time>
      </trkpt>
      <trkpt lat="42.6325" lon="2.00217">
        <ele>2347.4</ele>
        <time>2019-10-05T08:43:59.000Z</time>
      </trkpt>
      <trkpt lat="42.63252" lon="2.00214">
        <ele>2347.8</ele>
        <time>2019-10-05T08:44:04.000Z</time>
      </trkpt>
      <trkpt lat="42.63254" lon="2.00211">
        <ele>2348.3</ele>
        <time>2019-10-05T08:44:09.000Z</time>
      </trkpt>
      <trkpt lat="42.63256" lon="2.00209">
        <ele>2348.7</ele>
        <time>2019-10-05T08:44:13.000Z</time>
      </trkpt>
      <trkpt lat="42.63256" lon="2.00205">
        <ele>2349.1</ele>
        <time>2019-10-05T08:45:21.000Z</time>
      </trkpt>
      <trkpt lat="42.63257" lon="2.00201">
        <ele>2349.6</ele>
        <time>2019-10-05T08:45:34.000Z</time>
      </trkpt>
      <trkpt lat="42.63258" lon="2.00197">
        <ele>2350</ele>
        <time>2019-10-05T08:45:36.000Z</time>
      </trkpt>
      <trkpt lat="42.6326" lon="2.00192">
        <ele>2350.6</ele>
        <time>2019-10-05T08:45:39.000Z</time>
      </trkpt>
      <trkpt lat="42.63261" lon="2.00189">
        <ele>2351.1</ele>
        <time>2019-10-05T08:45:41.000Z</time>
      </trkpt>
      <trkpt lat="42.63262" lon="2.00184">
        <ele>2351.9</ele>
        <time>2019-10-05T08:45:44.000Z</time>
      </trkpt>
      <trkpt lat="42.63263" lon="2.0018">
        <ele>2352.5</ele>
        <time>2019-10-05T08:45:46.000Z</time>
      </trkpt>
      <trkpt lat="42.63264" lon="2.00176">
        <ele>2352.8</ele>
        <time>2019-10-05T08:45:48.000Z</time>
      </trkpt>
      <trkpt lat="42.63265" lon="2.00172">
        <ele>2353.1</ele>
        <time>2019-10-05T08:45:50.000Z</time>
      </trkpt>
      <trkpt lat="42.63267" lon="2.00169">
        <ele>2353.4</ele>
        <time>2019-10-05T08:45:52.000Z</time>
      </trkpt>
      <trkpt lat="42.63268" lon="2.00165">
        <ele>2353.6</ele>
        <time>2019-10-05T08:45:54.000Z</time>
      </trkpt>
      <trkpt lat="42.63269" lon="2.00161">
        <ele>2353.9</ele>
        <time>2019-10-05T08:45:56.000Z</time>
      </trkpt>
      <trkpt lat="42.6327" lon="2.00157">
        <ele>2354.2</ele>
        <time>2019-10-05T08:45:58.000Z</time>
      </trkpt>
      <trkpt lat="42.63273" lon="2.00154">
        <ele>2354.6</ele>
        <time>2019-10-05T08:46:00.000Z</time>
      </trkpt>
      <trkpt lat="42.63276" lon="2.00153">
        <ele>2354.9</ele>
        <time>2019-10-05T08:46:02.000Z</time>
      </trkpt>
      <trkpt lat="42.6328" lon="2.00152">
        <ele>2355.3</ele>
        <time>2019-10-05T08:46:04.000Z</time>
      </trkpt>
      <trkpt lat="42.63282" lon="2.00152">
        <ele>2355.5</ele>
        <time>2019-10-05T08:46:06.000Z</time>
      </trkpt>
      <trkpt lat="42.63285" lon="2.00151">
        <ele>2355.7</ele>
        <time>2019-10-05T08:46:08.000Z</time>
      </trkpt>
      <trkpt lat="42.63288" lon="2.0015">
        <ele>2355.9</ele>
        <time>2019-10-05T08:46:10.000Z</time>
      </trkpt>
      <trkpt lat="42.63291" lon="2.00149">
        <ele>2356.1</ele>
        <time>2019-10-05T08:46:12.000Z</time>
      </trkpt>
      <trkpt lat="42.63295" lon="2.00147">
        <ele>2356.4</ele>
        <time>2019-10-05T08:46:15.000Z</time>
      </trkpt>
      <trkpt lat="42.63298" lon="2.00145">
        <ele>2356.6</ele>
        <time>2019-10-05T08:46:17.000Z</time>
      </trkpt>
      <trkpt lat="42.633" lon="2.00142">
        <ele>2356.8</ele>
        <time>2019-10-05T08:46:19.000Z</time>
      </trkpt>
      <trkpt lat="42.63301" lon="2.00139">
        <ele>2357.1</ele>
        <time>2019-10-05T08:46:21.000Z</time>
      </trkpt>
      <trkpt lat="42.63303" lon="2.00134">
        <ele>2357.4</ele>
        <time>2019-10-05T08:46:24.000Z</time>
      </trkpt>
      <trkpt lat="42.63306" lon="2.0013">
        <ele>2357.5</ele>
        <time>2019-10-05T08:46:26.000Z</time>
      </trkpt>
      <trkpt lat="42.63309" lon="2.00127">
        <ele>2357.6</ele>
        <time>2019-10-05T08:46:28.000Z</time>
      </trkpt>
      <trkpt lat="42.63311" lon="2.00123">
        <ele>2357.9</ele>
        <time>2019-10-05T08:46:30.000Z</time>
      </trkpt>
      <trkpt lat="42.63313" lon="2.00119">
        <ele>2358.1</ele>
        <time>2019-10-05T08:46:32.000Z</time>
      </trkpt>
      <trkpt lat="42.63315" lon="2.00117">
        <ele>2358.2</ele>
        <time>2019-10-05T08:46:34.000Z</time>
      </trkpt>
      <trkpt lat="42.63318" lon="2.00114">
        <ele>2358.4</ele>
        <time>2019-10-05T08:46:36.000Z</time>
      </trkpt>
      <trkpt lat="42.63321" lon="2.00111">
        <ele>2358.6</ele>
        <time>2019-10-05T08:46:39.000Z</time>
      </trkpt>
      <trkpt lat="42.63324" lon="2.00107">
        <ele>2358.6</ele>
        <time>2019-10-05T08:46:42.000Z</time>
      </trkpt>
      <trkpt lat="42.63326" lon="2.00105">
        <ele>2358.7</ele>
        <time>2019-10-05T08:46:44.000Z</time>
      </trkpt>
      <trkpt lat="42.63329" lon="2.00103">
        <ele>2358.8</ele>
        <time>2019-10-05T08:46:46.000Z</time>
      </trkpt>
      <trkpt lat="42.63332" lon="2.00101">
        <ele>2358.8</ele>
        <time>2019-10-05T08:46:48.000Z</time>
      </trkpt>
      <trkpt lat="42.63335" lon="2.00099">
        <ele>2358.9</ele>
        <time>2019-10-05T08:46:50.000Z</time>
      </trkpt>
      <trkpt lat="42.63338" lon="2.00096">
        <ele>2359</ele>
        <time>2019-10-05T08:46:52.000Z</time>
      </trkpt>
      <trkpt lat="42.63341" lon="2.00094">
        <ele>2359</ele>
        <time>2019-10-05T08:46:54.000Z</time>
      </trkpt>
      <trkpt lat="42.63344" lon="2.0009">
        <ele>2359.1</ele>
        <time>2019-10-05T08:46:56.000Z</time>
      </trkpt>
      <trkpt lat="42.63346" lon="2.00086">
        <ele>2359</ele>
        <time>2019-10-05T08:46:58.000Z</time>
      </trkpt>
      <trkpt lat="42.63348" lon="2.00082">
        <ele>2359</ele>
        <time>2019-10-05T08:47:00.000Z</time>
      </trkpt>
      <trkpt lat="42.6335" lon="2.00079">
        <ele>2358.9</ele>
        <time>2019-10-05T08:47:02.000Z</time>
      </trkpt>
      <trkpt lat="42.63352" lon="2.00075">
        <ele>2358.8</ele>
        <time>2019-10-05T08:47:04.000Z</time>
      </trkpt>
      <trkpt lat="42.63354" lon="2.00071">
        <ele>2358.8</ele>
        <time>2019-10-05T08:47:06.000Z</time>
      </trkpt>
      <trkpt lat="42.63355" lon="2.00067">
        <ele>2358.8</ele>
        <time>2019-10-05T08:47:08.000Z</time>
      </trkpt>
      <trkpt lat="42.63357" lon="2.00063">
        <ele>2358.8</ele>
        <time>2019-10-05T08:47:10.000Z</time>
      </trkpt>
      <trkpt lat="42.63359" lon="2.00059">
        <ele>2358.9</ele>
        <time>2019-10-05T08:47:12.000Z</time>
      </trkpt>
      <trkpt lat="42.63361" lon="2.00055">
        <ele>2359.1</ele>
        <time>2019-10-05T08:47:14.000Z</time>
      </trkpt>
      <trkpt lat="42.63363" lon="2.00052">
        <ele>2359.2</ele>
        <time>2019-10-05T08:47:17.000Z</time>
      </trkpt>
      <trkpt lat="42.63366" lon="2.00049">
        <ele>2359.4</ele>
        <time>2019-10-05T08:47:20.000Z</time>
      </trkpt>
      <trkpt lat="42.63368" lon="2.00045">
        <ele>2359.5</ele>
        <time>2019-10-05T08:47:23.000Z</time>
      </trkpt>
      <trkpt lat="42.63371" lon="2.00044">
        <ele>2359.8</ele>
        <time>2019-10-05T08:48:27.000Z</time>
      </trkpt>
      <trkpt lat="42.63373" lon="2.00039">
        <ele>2360.2</ele>
        <time>2019-10-05T08:48:30.000Z</time>
      </trkpt>
      <trkpt lat="42.63374" lon="2.00035">
        <ele>2360.5</ele>
        <time>2019-10-05T08:48:33.000Z</time>
      </trkpt>
      <trkpt lat="42.63375" lon="2.00031">
        <ele>2360.9</ele>
        <time>2019-10-05T08:48:35.000Z</time>
      </trkpt>
      <trkpt lat="42.63376" lon="2.00027">
        <ele>2361.2</ele>
        <time>2019-10-05T08:48:37.000Z</time>
      </trkpt>
      <trkpt lat="42.63377" lon="2.00023">
        <ele>2361.6</ele>
        <time>2019-10-05T08:48:39.000Z</time>
      </trkpt>
      <trkpt lat="42.6338" lon="2.00019">
        <ele>2362.1</ele>
        <time>2019-10-05T08:48:42.000Z</time>
      </trkpt>
      <trkpt lat="42.63382" lon="2.00016">
        <ele>2362.4</ele>
        <time>2019-10-05T08:48:44.000Z</time>
      </trkpt>
      <trkpt lat="42.63384" lon="2.00012">
        <ele>2363.2</ele>
        <time>2019-10-05T08:48:46.000Z</time>
      </trkpt>
      <trkpt lat="42.63386" lon="2.00009">
        <ele>2364</ele>
        <time>2019-10-05T08:48:48.000Z</time>
      </trkpt>
      <trkpt lat="42.63388" lon="2.00005">
        <ele>2365</ele>
        <time>2019-10-05T08:48:51.000Z</time>
      </trkpt>
      <trkpt lat="42.6339" lon="2.00001">
        <ele>2365.7</ele>
        <time>2019-10-05T08:48:54.000Z</time>
      </trkpt>
      <trkpt lat="42.63392" lon="1.99998">
        <ele>2366.2</ele>
        <time>2019-10-05T08:48:56.000Z</time>
      </trkpt>
      <trkpt lat="42.63392" lon="1.99993">
        <ele>2367.2</ele>
        <time>2019-10-05T08:48:59.000Z</time>
      </trkpt>
      <trkpt lat="42.63393" lon="1.99988">
        <ele>2368.3</ele>
        <time>2019-10-05T08:49:01.000Z</time>
      </trkpt>
      <trkpt lat="42.63394" lon="1.99983">
        <ele>2369.4</ele>
        <time>2019-10-05T08:49:04.000Z</time>
      </trkpt>
      <trkpt lat="42.63396" lon="1.9998">
        <ele>2369.8</ele>
        <time>2019-10-05T08:49:12.000Z</time>
      </trkpt>
      <trkpt lat="42.63397" lon="1.99975">
        <ele>2370.1</ele>
        <time>2019-10-05T08:49:15.000Z</time>
      </trkpt>
      <trkpt lat="42.63397" lon="1.99971">
        <ele>2370.3</ele>
        <time>2019-10-05T08:49:18.000Z</time>
      </trkpt>
      <trkpt lat="42.63397" lon="1.99967">
        <ele>2370.9</ele>
        <time>2019-10-05T08:49:20.000Z</time>
      </trkpt>
      <trkpt lat="42.63397" lon="1.99962">
        <ele>2371.7</ele>
        <time>2019-10-05T08:49:23.000Z</time>
      </trkpt>
      <trkpt lat="42.63396" lon="1.99958">
        <ele>2372.5</ele>
        <time>2019-10-05T08:49:26.000Z</time>
      </trkpt>
      <trkpt lat="42.63395" lon="1.99954">
        <ele>2373.2</ele>
        <time>2019-10-05T08:49:28.000Z</time>
      </trkpt>
      <trkpt lat="42.63396" lon="1.99949">
        <ele>2374.1</ele>
        <time>2019-10-05T08:49:31.000Z</time>
      </trkpt>
      <trkpt lat="42.63399" lon="1.99947">
        <ele>2374.8</ele>
        <time>2019-10-05T08:49:47.000Z</time>
      </trkpt>
      <trkpt lat="42.63398" lon="1.99942">
        <ele>2375.8</ele>
        <time>2019-10-05T08:49:50.000Z</time>
      </trkpt>
      <trkpt lat="42.634" lon="1.99938">
        <ele>2376.5</ele>
        <time>2019-10-05T08:49:54.000Z</time>
      </trkpt>
      <trkpt lat="42.63402" lon="1.99936">
        <ele>2377.1</ele>
        <time>2019-10-05T08:49:58.000Z</time>
      </trkpt>
      <trkpt lat="42.63403" lon="1.99931">
        <ele>2378</ele>
        <time>2019-10-05T08:50:02.000Z</time>
      </trkpt>
      <trkpt lat="42.63401" lon="1.99927">
        <ele>2378.9</ele>
        <time>2019-10-05T08:50:08.000Z</time>
      </trkpt>
      <trkpt lat="42.63401" lon="1.99922">
        <ele>2379.8</ele>
        <time>2019-10-05T08:50:12.000Z</time>
      </trkpt>
      <trkpt lat="42.63401" lon="1.99919">
        <ele>2380.6</ele>
        <time>2019-10-05T08:50:18.000Z</time>
      </trkpt>
      <trkpt lat="42.63401" lon="1.99914">
        <ele>2381.6</ele>
        <time>2019-10-05T08:50:22.000Z</time>
      </trkpt>
      <trkpt lat="42.63401" lon="1.99909">
        <ele>2382.5</ele>
        <time>2019-10-05T08:50:25.000Z</time>
      </trkpt>
      <trkpt lat="42.63402" lon="1.99906">
        <ele>2383.1</ele>
        <time>2019-10-05T08:50:28.000Z</time>
      </trkpt>
      <trkpt lat="42.63404" lon="1.99903">
        <ele>2383.8</ele>
        <time>2019-10-05T08:50:35.000Z</time>
      </trkpt>
      <trkpt lat="42.63405" lon="1.999">
        <ele>2384.4</ele>
        <time>2019-10-05T08:50:42.000Z</time>
      </trkpt>
      <trkpt lat="42.63407" lon="1.99897">
        <ele>2385.1</ele>
        <time>2019-10-05T08:50:46.000Z</time>
      </trkpt>
      <trkpt lat="42.63408" lon="1.99892">
        <ele>2385.9</ele>
        <time>2019-10-05T08:50:50.000Z</time>
      </trkpt>
      <trkpt lat="42.6341" lon="1.9989">
        <ele>2386.6</ele>
        <time>2019-10-05T08:50:54.000Z</time>
      </trkpt>
      <trkpt lat="42.63413" lon="1.99887">
        <ele>2387.2</ele>
        <time>2019-10-05T08:50:59.000Z</time>
      </trkpt>
      <trkpt lat="42.63414" lon="1.99883">
        <ele>2388</ele>
        <time>2019-10-05T08:51:04.000Z</time>
      </trkpt>
      <trkpt lat="42.63414" lon="1.99878">
        <ele>2389</ele>
        <time>2019-10-05T08:51:08.000Z</time>
      </trkpt>
      <trkpt lat="42.63413" lon="1.99875">
        <ele>2389.9</ele>
        <time>2019-10-05T08:51:11.000Z</time>
      </trkpt>
      <trkpt lat="42.63412" lon="1.99871">
        <ele>2390.9</ele>
        <time>2019-10-05T08:51:20.000Z</time>
      </trkpt>
      <trkpt lat="42.63411" lon="1.99867">
        <ele>2391.5</ele>
        <time>2019-10-05T08:51:35.000Z</time>
      </trkpt>
      <trkpt lat="42.63411" lon="1.99863">
        <ele>2391.9</ele>
        <time>2019-10-05T08:51:40.000Z</time>
      </trkpt>
      <trkpt lat="42.6341" lon="1.99859">
        <ele>2392.3</ele>
        <time>2019-10-05T08:51:44.000Z</time>
      </trkpt>
      <trkpt lat="42.63409" lon="1.99855">
        <ele>2392.8</ele>
        <time>2019-10-05T08:51:50.000Z</time>
      </trkpt>
      <trkpt lat="42.63409" lon="1.99851">
        <ele>2393.4</ele>
        <time>2019-10-05T08:51:53.000Z</time>
      </trkpt>
      <trkpt lat="42.63411" lon="1.99848">
        <ele>2394.1</ele>
        <time>2019-10-05T08:52:00.000Z</time>
      </trkpt>
      <trkpt lat="42.63412" lon="1.99844">
        <ele>2394.7</ele>
        <time>2019-10-05T08:52:04.000Z</time>
      </trkpt>
      <trkpt lat="42.63411" lon="1.99841">
        <ele>2395.2</ele>
        <time>2019-10-05T08:52:10.000Z</time>
      </trkpt>
      <trkpt lat="42.63409" lon="1.99837">
        <ele>2395.8</ele>
        <time>2019-10-05T08:52:19.000Z</time>
      </trkpt>
      <trkpt lat="42.63409" lon="1.99834">
        <ele>2396.4</ele>
        <time>2019-10-05T08:52:22.000Z</time>
      </trkpt>
      <trkpt lat="42.63408" lon="1.9983">
        <ele>2397</ele>
        <time>2019-10-05T08:53:02.000Z</time>
      </trkpt>
      <trkpt lat="42.63406" lon="1.99827">
        <ele>2397.7</ele>
        <time>2019-10-05T08:53:05.000Z</time>
      </trkpt>
      <trkpt lat="42.63405" lon="1.99822">
        <ele>2398.4</ele>
        <time>2019-10-05T08:53:09.000Z</time>
      </trkpt>
      <trkpt lat="42.63404" lon="1.99817">
        <ele>2399.1</ele>
        <time>2019-10-05T08:53:13.000Z</time>
      </trkpt>
      <trkpt lat="42.63403" lon="1.99813">
        <ele>2399.8</ele>
        <time>2019-10-05T08:53:17.000Z</time>
      </trkpt>
      <trkpt lat="42.63403" lon="1.99809">
        <ele>2400.1</ele>
        <time>2019-10-05T08:53:20.000Z</time>
      </trkpt>
      <trkpt lat="42.63403" lon="1.99805">
        <ele>2400.4</ele>
        <time>2019-10-05T08:53:25.000Z</time>
      </trkpt>
      <trkpt lat="42.63403" lon="1.99801">
        <ele>2400.7</ele>
        <time>2019-10-05T08:53:35.000Z</time>
      </trkpt>
      <trkpt lat="42.63402" lon="1.99797">
        <ele>2401.1</ele>
        <time>2019-10-05T08:53:41.000Z</time>
      </trkpt>
      <trkpt lat="42.63401" lon="1.99793">
        <ele>2401.7</ele>
        <time>2019-10-05T08:53:51.000Z</time>
      </trkpt>
      <trkpt lat="42.63401" lon="1.9979">
        <ele>2402.2</ele>
        <time>2019-10-05T08:54:01.000Z</time>
      </trkpt>
      <trkpt lat="42.63401" lon="1.99786">
        <ele>2402.7</ele>
        <time>2019-10-05T08:54:04.000Z</time>
      </trkpt>
      <trkpt lat="42.63402" lon="1.99782">
        <ele>2403.2</ele>
        <time>2019-10-05T08:54:08.000Z</time>
      </trkpt>
      <trkpt lat="42.63401" lon="1.99778">
        <ele>2403.6</ele>
        <time>2019-10-05T08:54:10.000Z</time>
      </trkpt>
      <trkpt lat="42.634" lon="1.99774">
        <ele>2404</ele>
        <time>2019-10-05T08:54:18.000Z</time>
      </trkpt>
      <trkpt lat="42.63397" lon="1.99771">
        <ele>2404.1</ele>
        <time>2019-10-05T08:54:22.000Z</time>
      </trkpt>
      <trkpt lat="42.63396" lon="1.99767">
        <ele>2404.2</ele>
        <time>2019-10-05T08:54:26.000Z</time>
      </trkpt>
      <trkpt lat="42.63397" lon="1.99762">
        <ele>2404.7</ele>
        <time>2019-10-05T08:54:30.000Z</time>
      </trkpt>
      <trkpt lat="42.63396" lon="1.99758">
        <ele>2405.2</ele>
        <time>2019-10-05T08:54:33.000Z</time>
      </trkpt>
      <trkpt lat="42.63396" lon="1.99754">
        <ele>2405.8</ele>
        <time>2019-10-05T08:54:37.000Z</time>
      </trkpt>
      <trkpt lat="42.63395" lon="1.9975">
        <ele>2406.3</ele>
        <time>2019-10-05T08:54:41.000Z</time>
      </trkpt>
      <trkpt lat="42.63393" lon="1.99747">
        <ele>2406.9</ele>
        <time>2019-10-05T08:54:56.000Z</time>
      </trkpt>
      <trkpt lat="42.63392" lon="1.99742">
        <ele>2407.4</ele>
        <time>2019-10-05T08:55:09.000Z</time>
      </trkpt>
      <trkpt lat="42.63392" lon="1.99739">
        <ele>2407.9</ele>
        <time>2019-10-05T08:55:14.000Z</time>
      </trkpt>
      <trkpt lat="42.63391" lon="1.99735">
        <ele>2408.3</ele>
        <time>2019-10-05T08:55:20.000Z</time>
      </trkpt>
      <trkpt lat="42.63393" lon="1.99731">
        <ele>2408.9</ele>
        <time>2019-10-05T08:55:28.000Z</time>
      </trkpt>
      <trkpt lat="42.63392" lon="1.99727">
        <ele>2409.4</ele>
        <time>2019-10-05T08:55:32.000Z</time>
      </trkpt>
      <trkpt lat="42.63392" lon="1.99723">
        <ele>2410</ele>
        <time>2019-10-05T08:55:37.000Z</time>
      </trkpt>
      <trkpt lat="42.63393" lon="1.99719">
        <ele>2410.6</ele>
        <time>2019-10-05T08:55:44.000Z</time>
      </trkpt>
      <trkpt lat="42.63393" lon="1.99715">
        <ele>2411</ele>
        <time>2019-10-05T08:55:55.000Z</time>
      </trkpt>
      <trkpt lat="42.63392" lon="1.99711">
        <ele>2411.6</ele>
        <time>2019-10-05T08:55:59.000Z</time>
      </trkpt>
      <trkpt lat="42.63391" lon="1.99707">
        <ele>2412.3</ele>
        <time>2019-10-05T08:56:08.000Z</time>
      </trkpt>
      <trkpt lat="42.6339" lon="1.99703">
        <ele>2413</ele>
        <time>2019-10-05T08:56:39.000Z</time>
      </trkpt>
      <trkpt lat="42.6339" lon="1.99699">
        <ele>2413.5</ele>
        <time>2019-10-05T08:56:45.000Z</time>
      </trkpt>
      <trkpt lat="42.63389" lon="1.99695">
        <ele>2414.1</ele>
        <time>2019-10-05T08:56:48.000Z</time>
      </trkpt>
      <trkpt lat="42.63387" lon="1.99691">
        <ele>2414.8</ele>
        <time>2019-10-05T08:56:52.000Z</time>
      </trkpt>
      <trkpt lat="42.63387" lon="1.99687">
        <ele>2415.4</ele>
        <time>2019-10-05T08:56:58.000Z</time>
      </trkpt>
      <trkpt lat="42.63387" lon="1.99683">
        <ele>2416.4</ele>
        <time>2019-10-05T08:57:09.000Z</time>
      </trkpt>
      <trkpt lat="42.63386" lon="1.99678">
        <ele>2417.2</ele>
        <time>2019-10-05T08:57:13.000Z</time>
      </trkpt>
      <trkpt lat="42.63384" lon="1.99675">
        <ele>2417.5</ele>
        <time>2019-10-05T08:57:19.000Z</time>
      </trkpt>
      <trkpt lat="42.63385" lon="1.99671">
        <ele>2417.8</ele>
        <time>2019-10-05T08:57:24.000Z</time>
      </trkpt>
      <trkpt lat="42.63385" lon="1.99668">
        <ele>2418.3</ele>
        <time>2019-10-05T08:57:28.000Z</time>
      </trkpt>
      <trkpt lat="42.63385" lon="1.99664">
        <ele>2419.1</ele>
        <time>2019-10-05T08:57:32.000Z</time>
      </trkpt>
      <trkpt lat="42.63385" lon="1.9966">
        <ele>2419.9</ele>
        <time>2019-10-05T08:57:37.000Z</time>
      </trkpt>
      <trkpt lat="42.63385" lon="1.99656">
        <ele>2420.6</ele>
        <time>2019-10-05T08:57:42.000Z</time>
      </trkpt>
      <trkpt lat="42.63384" lon="1.99652">
        <ele>2421.1</ele>
        <time>2019-10-05T08:57:49.000Z</time>
      </trkpt>
      <trkpt lat="42.63384" lon="1.99648">
        <ele>2421.7</ele>
        <time>2019-10-05T08:57:58.000Z</time>
      </trkpt>
      <trkpt lat="42.63383" lon="1.99644">
        <ele>2422.5</ele>
        <time>2019-10-05T08:58:05.000Z</time>
      </trkpt>
      <trkpt lat="42.63384" lon="1.99639">
        <ele>2423.6</ele>
        <time>2019-10-05T08:58:09.000Z</time>
      </trkpt>
      <trkpt lat="42.63384" lon="1.99635">
        <ele>2424.3</ele>
        <time>2019-10-05T08:58:18.000Z</time>
      </trkpt>
      <trkpt lat="42.63383" lon="1.99631">
        <ele>2424.8</ele>
        <time>2019-10-05T08:58:22.000Z</time>
      </trkpt>
      <trkpt lat="42.63384" lon="1.99627">
        <ele>2425.3</ele>
        <time>2019-10-05T08:58:29.000Z</time>
      </trkpt>
      <trkpt lat="42.63384" lon="1.99623">
        <ele>2425.9</ele>
        <time>2019-10-05T08:58:33.000Z</time>
      </trkpt>
      <trkpt lat="42.63382" lon="1.9962">
        <ele>2426.4</ele>
        <time>2019-10-05T08:58:40.000Z</time>
      </trkpt>
      <trkpt lat="42.63382" lon="1.99616">
        <ele>2427.1</ele>
        <time>2019-10-05T08:58:46.000Z</time>
      </trkpt>
      <trkpt lat="42.63382" lon="1.99612">
        <ele>2428.1</ele>
        <time>2019-10-05T08:58:52.000Z</time>
      </trkpt>
      <trkpt lat="42.6338" lon="1.9961">
        <ele>2429</ele>
        <time>2019-10-05T08:58:57.000Z</time>
      </trkpt>
      <trkpt lat="42.6338" lon="1.99606">
        <ele>2429.8</ele>
        <time>2019-10-05T08:59:00.000Z</time>
      </trkpt>
      <trkpt lat="42.63379" lon="1.99602">
        <ele>2430.3</ele>
        <time>2019-10-05T08:59:12.000Z</time>
      </trkpt>
      <trkpt lat="42.6338" lon="1.99598">
        <ele>2430.8</ele>
        <time>2019-10-05T08:59:18.000Z</time>
      </trkpt>
      <trkpt lat="42.63382" lon="1.99595">
        <ele>2431.4</ele>
        <time>2019-10-05T08:59:29.000Z</time>
      </trkpt>
      <trkpt lat="42.63383" lon="1.99592">
        <ele>2432.3</ele>
        <time>2019-10-05T08:59:36.000Z</time>
      </trkpt>
      <trkpt lat="42.63386" lon="1.99589">
        <ele>2433.3</ele>
        <time>2019-10-05T08:59:39.000Z</time>
      </trkpt>
      <trkpt lat="42.63387" lon="1.99587">
        <ele>2434.1</ele>
        <time>2019-10-05T08:59:43.000Z</time>
      </trkpt>
      <trkpt lat="42.63389" lon="1.99583">
        <ele>2434.6</ele>
        <time>2019-10-05T08:59:58.000Z</time>
      </trkpt>
      <trkpt lat="42.63392" lon="1.99581">
        <ele>2435.1</ele>
        <time>2019-10-05T09:00:02.000Z</time>
      </trkpt>
      <trkpt lat="42.63395" lon="1.9958">
        <ele>2435.7</ele>
        <time>2019-10-05T09:00:05.000Z</time>
      </trkpt>
      <trkpt lat="42.63397" lon="1.99577">
        <ele>2436.3</ele>
        <time>2019-10-05T09:00:12.000Z</time>
      </trkpt>
      <trkpt lat="42.63399" lon="1.99574">
        <ele>2436.9</ele>
        <time>2019-10-05T09:00:17.000Z</time>
      </trkpt>
      <trkpt lat="42.634" lon="1.99571">
        <ele>2437.6</ele>
        <time>2019-10-05T09:00:21.000Z</time>
      </trkpt>
      <trkpt lat="42.634" lon="1.99566">
        <ele>2438.1</ele>
        <time>2019-10-05T09:00:25.000Z</time>
      </trkpt>
      <trkpt lat="42.63402" lon="1.99562">
        <ele>2438.7</ele>
        <time>2019-10-05T09:02:04.000Z</time>
      </trkpt>
      <trkpt lat="42.63404" lon="1.99558">
        <ele>2439.2</ele>
        <time>2019-10-05T09:05:31.000Z</time>
      </trkpt>
      <trkpt lat="42.63406" lon="1.99554">
        <ele>2439.6</ele>
        <time>2019-10-05T09:05:35.000Z</time>
      </trkpt>
      <trkpt lat="42.63407" lon="1.9955">
        <ele>2440</ele>
        <time>2019-10-05T09:05:38.000Z</time>
      </trkpt>
      <trkpt lat="42.63408" lon="1.99547">
        <ele>2440.4</ele>
        <time>2019-10-05T09:05:43.000Z</time>
      </trkpt>
      <trkpt lat="42.63408" lon="1.99543">
        <ele>2440.8</ele>
        <time>2019-10-05T09:05:57.000Z</time>
      </trkpt>
      <trkpt lat="42.63408" lon="1.99538">
        <ele>2441.2</ele>
        <time>2019-10-05T09:06:02.000Z</time>
      </trkpt>
      <trkpt lat="42.63408" lon="1.99534">
        <ele>2441.5</ele>
        <time>2019-10-05T09:06:10.000Z</time>
      </trkpt>
      <trkpt lat="42.63408" lon="1.99531">
        <ele>2441.8</ele>
        <time>2019-10-05T09:06:13.000Z</time>
      </trkpt>
      <trkpt lat="42.63411" lon="1.99529">
        <ele>2442.2</ele>
        <time>2019-10-05T09:06:16.000Z</time>
      </trkpt>
      <trkpt lat="42.63413" lon="1.99525">
        <ele>2442.5</ele>
        <time>2019-10-05T09:06:23.000Z</time>
      </trkpt>
      <trkpt lat="42.63414" lon="1.99522">
        <ele>2443</ele>
        <time>2019-10-05T09:06:26.000Z</time>
      </trkpt>
      <trkpt lat="42.63416" lon="1.99519">
        <ele>2443.6</ele>
        <time>2019-10-05T09:06:30.000Z</time>
      </trkpt>
      <trkpt lat="42.63417" lon="1.99515">
        <ele>2444.1</ele>
        <time>2019-10-05T09:06:34.000Z</time>
      </trkpt>
      <trkpt lat="42.63418" lon="1.99512">
        <ele>2444.6</ele>
        <time>2019-10-05T09:06:37.000Z</time>
      </trkpt>
      <trkpt lat="42.63417" lon="1.99508">
        <ele>2445.2</ele>
        <time>2019-10-05T09:06:42.000Z</time>
      </trkpt>
      <trkpt lat="42.63418" lon="1.99503">
        <ele>2445.8</ele>
        <time>2019-10-05T09:06:45.000Z</time>
      </trkpt>
      <trkpt lat="42.63417" lon="1.99499">
        <ele>2446.5</ele>
        <time>2019-10-05T09:06:52.000Z</time>
      </trkpt>
      <trkpt lat="42.63416" lon="1.99494">
        <ele>2447.1</ele>
        <time>2019-10-05T09:06:56.000Z</time>
      </trkpt>
      <trkpt lat="42.63416" lon="1.99491">
        <ele>2447.7</ele>
        <time>2019-10-05T09:06:59.000Z</time>
      </trkpt>
      <trkpt lat="42.63417" lon="1.99486">
        <ele>2448.5</ele>
        <time>2019-10-05T09:07:04.000Z</time>
      </trkpt>
      <trkpt lat="42.63415" lon="1.99482">
        <ele>2449.2</ele>
        <time>2019-10-05T09:07:11.000Z</time>
      </trkpt>
      <trkpt lat="42.63414" lon="1.99478">
        <ele>2449.8</ele>
        <time>2019-10-05T09:07:14.000Z</time>
      </trkpt>
      <trkpt lat="42.63413" lon="1.99474">
        <ele>2450.2</ele>
        <time>2019-10-05T09:07:18.000Z</time>
      </trkpt>
      <trkpt lat="42.63412" lon="1.99469">
        <ele>2450.8</ele>
        <time>2019-10-05T09:07:28.000Z</time>
      </trkpt>
      <trkpt lat="42.63412" lon="1.99465">
        <ele>2451.5</ele>
        <time>2019-10-05T09:07:35.000Z</time>
      </trkpt>
      <trkpt lat="42.63411" lon="1.99461">
        <ele>2452.2</ele>
        <time>2019-10-05T09:07:38.000Z</time>
      </trkpt>
      <trkpt lat="42.63409" lon="1.99457">
        <ele>2452.8</ele>
        <time>2019-10-05T09:07:40.000Z</time>
      </trkpt>
      <trkpt lat="42.63408" lon="1.99453">
        <ele>2453.3</ele>
        <time>2019-10-05T09:07:44.000Z</time>
      </trkpt>
      <trkpt lat="42.63408" lon="1.99449">
        <ele>2453.7</ele>
        <time>2019-10-05T09:07:47.000Z</time>
      </trkpt>
      <trkpt lat="42.63407" lon="1.99445">
        <ele>2454.4</ele>
        <time>2019-10-05T09:07:50.000Z</time>
      </trkpt>
      <trkpt lat="42.63405" lon="1.99442">
        <ele>2455.1</ele>
        <time>2019-10-05T09:07:54.000Z</time>
      </trkpt>
      <trkpt lat="42.63405" lon="1.99437">
        <ele>2455.9</ele>
        <time>2019-10-05T09:07:58.000Z</time>
      </trkpt>
      <trkpt lat="42.63404" lon="1.99433">
        <ele>2456.3</ele>
        <time>2019-10-05T09:08:02.000Z</time>
      </trkpt>
      <trkpt lat="42.63402" lon="1.99429">
        <ele>2456.9</ele>
        <time>2019-10-05T09:08:06.000Z</time>
      </trkpt>
      <trkpt lat="42.63402" lon="1.99425">
        <ele>2457.4</ele>
        <time>2019-10-05T09:08:11.000Z</time>
      </trkpt>
      <trkpt lat="42.63401" lon="1.99421">
        <ele>2458.1</ele>
        <time>2019-10-05T09:08:19.000Z</time>
      </trkpt>
      <trkpt lat="42.63402" lon="1.99416">
        <ele>2458.9</ele>
        <time>2019-10-05T09:08:23.000Z</time>
      </trkpt>
      <trkpt lat="42.63403" lon="1.99412">
        <ele>2459.4</ele>
        <time>2019-10-05T09:08:28.000Z</time>
      </trkpt>
      <trkpt lat="42.63405" lon="1.99408">
        <ele>2459.8</ele>
        <time>2019-10-05T09:08:32.000Z</time>
      </trkpt>
      <trkpt lat="42.63405" lon="1.99404">
        <ele>2460.2</ele>
        <time>2019-10-05T09:08:36.000Z</time>
      </trkpt>
      <trkpt lat="42.63405" lon="1.994">
        <ele>2460.8</ele>
        <time>2019-10-05T09:08:41.000Z</time>
      </trkpt>
      <trkpt lat="42.63405" lon="1.99396">
        <ele>2461.5</ele>
        <time>2019-10-05T09:08:44.000Z</time>
      </trkpt>
      <trkpt lat="42.63404" lon="1.99392">
        <ele>2462.2</ele>
        <time>2019-10-05T09:08:47.000Z</time>
      </trkpt>
      <trkpt lat="42.63404" lon="1.99387">
        <ele>2463</ele>
        <time>2019-10-05T09:08:52.000Z</time>
      </trkpt>
      <trkpt lat="42.63405" lon="1.99383">
        <ele>2463.8</ele>
        <time>2019-10-05T09:11:55.000Z</time>
      </trkpt>
      <trkpt lat="42.63406" lon="1.99378">
        <ele>2464.6</ele>
        <time>2019-10-05T09:11:58.000Z</time>
      </trkpt>
      <trkpt lat="42.63409" lon="1.99373">
        <ele>2465.2</ele>
        <time>2019-10-05T09:12:01.000Z</time>
      </trkpt>
      <trkpt lat="42.6341" lon="1.99369">
        <ele>2465.8</ele>
        <time>2019-10-05T09:12:04.000Z</time>
      </trkpt>
      <trkpt lat="42.63411" lon="1.99365">
        <ele>2466.4</ele>
        <time>2019-10-05T09:12:06.000Z</time>
      </trkpt>
      <trkpt lat="42.63413" lon="1.99362">
        <ele>2467.1</ele>
        <time>2019-10-05T09:12:08.000Z</time>
      </trkpt>
      <trkpt lat="42.63415" lon="1.99358">
        <ele>2467.7</ele>
        <time>2019-10-05T09:12:11.000Z</time>
      </trkpt>
      <trkpt lat="42.63415" lon="1.99353">
        <ele>2468.2</ele>
        <time>2019-10-05T09:12:14.000Z</time>
      </trkpt>
      <trkpt lat="42.63416" lon="1.99349">
        <ele>2468.7</ele>
        <time>2019-10-05T09:12:17.000Z</time>
      </trkpt>
      <trkpt lat="42.63417" lon="1.99345">
        <ele>2469.3</ele>
        <time>2019-10-05T09:12:20.000Z</time>
      </trkpt>
      <trkpt lat="42.63418" lon="1.99341">
        <ele>2469.7</ele>
        <time>2019-10-05T09:12:23.000Z</time>
      </trkpt>
      <trkpt lat="42.63419" lon="1.99336">
        <ele>2470.3</ele>
        <time>2019-10-05T09:12:26.000Z</time>
      </trkpt>
      <trkpt lat="42.6342" lon="1.99332">
        <ele>2470.5</ele>
        <time>2019-10-05T09:12:28.000Z</time>
      </trkpt>
      <trkpt lat="42.63421" lon="1.99328">
        <ele>2470.7</ele>
        <time>2019-10-05T09:12:30.000Z</time>
      </trkpt>
      <trkpt lat="42.63423" lon="1.99323">
        <ele>2471</ele>
        <time>2019-10-05T09:12:33.000Z</time>
      </trkpt>
      <trkpt lat="42.63424" lon="1.99318">
        <ele>2471.4</ele>
        <time>2019-10-05T09:12:36.000Z</time>
      </trkpt>
      <trkpt lat="42.63426" lon="1.99314">
        <ele>2471.7</ele>
        <time>2019-10-05T09:12:39.000Z</time>
      </trkpt>
      <trkpt lat="42.63428" lon="1.99311">
        <ele>2472.1</ele>
        <time>2019-10-05T09:12:42.000Z</time>
      </trkpt>
      <trkpt lat="42.6343" lon="1.99307">
        <ele>2472.5</ele>
        <time>2019-10-05T09:12:45.000Z</time>
      </trkpt>
      <trkpt lat="42.63431" lon="1.99304">
        <ele>2472.8</ele>
        <time>2019-10-05T09:12:48.000Z</time>
      </trkpt>
      <trkpt lat="42.63432" lon="1.993">
        <ele>2473.1</ele>
        <time>2019-10-05T09:12:51.000Z</time>
      </trkpt>
      <trkpt lat="42.63433" lon="1.99296">
        <ele>2473.3</ele>
        <time>2019-10-05T09:12:54.000Z</time>
      </trkpt>
      <trkpt lat="42.63435" lon="1.99293">
        <ele>2473.8</ele>
        <time>2019-10-05T09:12:58.000Z</time>
      </trkpt>
      <trkpt lat="42.63437" lon="1.9929">
        <ele>2474.2</ele>
        <time>2019-10-05T09:13:01.000Z</time>
      </trkpt>
      <trkpt lat="42.63437" lon="1.99285">
        <ele>2474.9</ele>
        <time>2019-10-05T09:13:04.000Z</time>
      </trkpt>
      <trkpt lat="42.63437" lon="1.9928">
        <ele>2475.3</ele>
        <time>2019-10-05T09:13:07.000Z</time>
      </trkpt>
      <trkpt lat="42.63438" lon="1.99275">
        <ele>2475.7</ele>
        <time>2019-10-05T09:13:10.000Z</time>
      </trkpt>
      <trkpt lat="42.63439" lon="1.99272">
        <ele>2476</ele>
        <time>2019-10-05T09:13:15.000Z</time>
      </trkpt>
      <trkpt lat="42.63439" lon="1.99268">
        <ele>2476.7</ele>
        <time>2019-10-05T09:13:18.000Z</time>
      </trkpt>
      <trkpt lat="42.6344" lon="1.99263">
        <ele>2477.5</ele>
        <time>2019-10-05T09:13:22.000Z</time>
      </trkpt>
      <trkpt lat="42.6344" lon="1.9926">
        <ele>2478</ele>
        <time>2019-10-05T09:13:26.000Z</time>
      </trkpt>
      <trkpt lat="42.6344" lon="1.99255">
        <ele>2478.5</ele>
        <time>2019-10-05T09:13:32.000Z</time>
      </trkpt>
      <trkpt lat="42.6344" lon="1.99252">
        <ele>2478.9</ele>
        <time>2019-10-05T09:13:40.000Z</time>
      </trkpt>
      <trkpt lat="42.63441" lon="1.99248">
        <ele>2479.5</ele>
        <time>2019-10-05T09:13:45.000Z</time>
      </trkpt>
      <trkpt lat="42.63441" lon="1.99243">
        <ele>2480.2</ele>
        <time>2019-10-05T09:13:50.000Z</time>
      </trkpt>
      <trkpt lat="42.63441" lon="1.99239">
        <ele>2480.7</ele>
        <time>2019-10-05T09:13:54.000Z</time>
      </trkpt>
      <trkpt lat="42.63442" lon="1.99235">
        <ele>2481</ele>
        <time>2019-10-05T09:13:58.000Z</time>
      </trkpt>
      <trkpt lat="42.63442" lon="1.9923">
        <ele>2481.2</ele>
        <time>2019-10-05T09:14:09.000Z</time>
      </trkpt>
      <trkpt lat="42.63442" lon="1.99226">
        <ele>2481.6</ele>
        <time>2019-10-05T09:14:13.000Z</time>
      </trkpt>
      <trkpt lat="42.63443" lon="1.99221">
        <ele>2481.9</ele>
        <time>2019-10-05T09:14:16.000Z</time>
      </trkpt>
      <trkpt lat="42.63443" lon="1.99218">
        <ele>2482.2</ele>
        <time>2019-10-05T09:14:19.000Z</time>
      </trkpt>
      <trkpt lat="42.63444" lon="1.99214">
        <ele>2482.4</ele>
        <time>2019-10-05T09:14:24.000Z</time>
      </trkpt>
      <trkpt lat="42.63445" lon="1.9921">
        <ele>2482.5</ele>
        <time>2019-10-05T09:14:33.000Z</time>
      </trkpt>
      <trkpt lat="42.63445" lon="1.99207">
        <ele>2482.6</ele>
        <time>2019-10-05T09:14:41.000Z</time>
      </trkpt>
      <trkpt lat="42.63444" lon="1.99203">
        <ele>2482.8</ele>
        <time>2019-10-05T09:14:59.000Z</time>
      </trkpt>
      <trkpt lat="42.63444" lon="1.99199">
        <ele>2482.9</ele>
        <time>2019-10-05T09:15:06.000Z</time>
      </trkpt>
      <trkpt lat="42.63445" lon="1.99194">
        <ele>2483.1</ele>
        <time>2019-10-05T09:15:09.000Z</time>
      </trkpt>
      <trkpt lat="42.63446" lon="1.99191">
        <ele>2483.3</ele>
        <time>2019-10-05T09:15:13.000Z</time>
      </trkpt>
      <trkpt lat="42.63447" lon="1.99186">
        <ele>2483.5</ele>
        <time>2019-10-05T09:15:17.000Z</time>
      </trkpt>
      <trkpt lat="42.63447" lon="1.99182">
        <ele>2483.7</ele>
        <time>2019-10-05T09:15:21.000Z</time>
      </trkpt>
      <trkpt lat="42.63446" lon="1.99178">
        <ele>2483.9</ele>
        <time>2019-10-05T09:15:25.000Z</time>
      </trkpt>
      <trkpt lat="42.63445" lon="1.99174">
        <ele>2484.1</ele>
        <time>2019-10-05T09:15:30.000Z</time>
      </trkpt>
      <trkpt lat="42.63444" lon="1.9917">
        <ele>2484.4</ele>
        <time>2019-10-05T09:15:33.000Z</time>
      </trkpt>
      <trkpt lat="42.63443" lon="1.99167">
        <ele>2484.7</ele>
        <time>2019-10-05T09:15:36.000Z</time>
      </trkpt>
      <trkpt lat="42.63442" lon="1.99163">
        <ele>2484.9</ele>
        <time>2019-10-05T09:15:39.000Z</time>
      </trkpt>
      <trkpt lat="42.63441" lon="1.99159">
        <ele>2485.1</ele>
        <time>2019-10-05T09:15:43.000Z</time>
      </trkpt>
      <trkpt lat="42.63441" lon="1.99155">
        <ele>2485.3</ele>
        <time>2019-10-05T09:15:47.000Z</time>
      </trkpt>
      <trkpt lat="42.6344" lon="1.9915">
        <ele>2485.7</ele>
        <time>2019-10-05T09:15:51.000Z</time>
      </trkpt>
      <trkpt lat="42.63439" lon="1.99147">
        <ele>2486</ele>
        <time>2019-10-05T09:15:54.000Z</time>
      </trkpt>
      <trkpt lat="42.63438" lon="1.99143">
        <ele>2486.3</ele>
        <time>2019-10-05T09:15:57.000Z</time>
      </trkpt>
      <trkpt lat="42.63436" lon="1.99139">
        <ele>2486.7</ele>
        <time>2019-10-05T09:16:01.000Z</time>
      </trkpt>
      <trkpt lat="42.63436" lon="1.99134">
        <ele>2487</ele>
        <time>2019-10-05T09:16:04.000Z</time>
      </trkpt>
      <trkpt lat="42.63434" lon="1.9913">
        <ele>2487.5</ele>
        <time>2019-10-05T09:16:07.000Z</time>
      </trkpt>
      <trkpt lat="42.63434" lon="1.99127">
        <ele>2487.9</ele>
        <time>2019-10-05T09:16:10.000Z</time>
      </trkpt>
      <trkpt lat="42.63433" lon="1.99123">
        <ele>2488.2</ele>
        <time>2019-10-05T09:16:12.000Z</time>
      </trkpt>
      <trkpt lat="42.63431" lon="1.99121">
        <ele>2488.4</ele>
        <time>2019-10-05T09:16:18.000Z</time>
      </trkpt>
      <trkpt lat="42.6343" lon="1.99116">
        <ele>2488.6</ele>
        <time>2019-10-05T09:16:24.000Z</time>
      </trkpt>
      <trkpt lat="42.63428" lon="1.99112">
        <ele>2489</ele>
        <time>2019-10-05T09:16:28.000Z</time>
      </trkpt>
      <trkpt lat="42.63428" lon="1.99108">
        <ele>2489.3</ele>
        <time>2019-10-05T09:16:32.000Z</time>
      </trkpt>
      <trkpt lat="42.63427" lon="1.99104">
        <ele>2489.7</ele>
        <time>2019-10-05T09:16:36.000Z</time>
      </trkpt>
      <trkpt lat="42.63426" lon="1.991">
        <ele>2490.2</ele>
        <time>2019-10-05T09:16:40.000Z</time>
      </trkpt>
      <trkpt lat="42.63428" lon="1.99095">
        <ele>2490.6</ele>
        <time>2019-10-05T09:16:43.000Z</time>
      </trkpt>
      <trkpt lat="42.63427" lon="1.99091">
        <ele>2491</ele>
        <time>2019-10-05T09:16:46.000Z</time>
      </trkpt>
      <trkpt lat="42.63426" lon="1.99087">
        <ele>2491.2</ele>
        <time>2019-10-05T09:16:49.000Z</time>
      </trkpt>
      <trkpt lat="42.63423" lon="1.99084">
        <ele>2491.5</ele>
        <time>2019-10-05T09:16:53.000Z</time>
      </trkpt>
      <trkpt lat="42.63422" lon="1.99079">
        <ele>2491.9</ele>
        <time>2019-10-05T09:16:57.000Z</time>
      </trkpt>
      <trkpt lat="42.6342" lon="1.99075">
        <ele>2492.4</ele>
        <time>2019-10-05T09:17:09.000Z</time>
      </trkpt>
      <trkpt lat="42.63418" lon="1.9907">
        <ele>2492.8</ele>
        <time>2019-10-05T09:17:12.000Z</time>
      </trkpt>
      <trkpt lat="42.63417" lon="1.99065">
        <ele>2493.1</ele>
        <time>2019-10-05T09:17:15.000Z</time>
      </trkpt>
      <trkpt lat="42.63417" lon="1.99061">
        <ele>2493.4</ele>
        <time>2019-10-05T09:17:19.000Z</time>
      </trkpt>
      <trkpt lat="42.63415" lon="1.99056">
        <ele>2493.9</ele>
        <time>2019-10-05T09:17:22.000Z</time>
      </trkpt>
      <trkpt lat="42.63414" lon="1.99052">
        <ele>2494.3</ele>
        <time>2019-10-05T09:17:24.000Z</time>
      </trkpt>
      <trkpt lat="42.63414" lon="1.99049">
        <ele>2494.8</ele>
        <time>2019-10-05T09:17:26.000Z</time>
      </trkpt>
      <trkpt lat="42.63413" lon="1.99044">
        <ele>2495.4</ele>
        <time>2019-10-05T09:17:29.000Z</time>
      </trkpt>
      <trkpt lat="42.63412" lon="1.9904">
        <ele>2495.9</ele>
        <time>2019-10-05T09:17:31.000Z</time>
      </trkpt>
      <trkpt lat="42.6341" lon="1.99037">
        <ele>2496.1</ele>
        <time>2019-10-05T09:17:33.000Z</time>
      </trkpt>
      <trkpt lat="42.63409" lon="1.99033">
        <ele>2496.3</ele>
        <time>2019-10-05T09:17:35.000Z</time>
      </trkpt>
      <trkpt lat="42.63408" lon="1.9903">
        <ele>2496.5</ele>
        <time>2019-10-05T09:17:37.000Z</time>
      </trkpt>
      <trkpt lat="42.63407" lon="1.99026">
        <ele>2497.1</ele>
        <time>2019-10-05T09:17:39.000Z</time>
      </trkpt>
      <trkpt lat="42.63406" lon="1.99021">
        <ele>2497.7</ele>
        <time>2019-10-05T09:17:42.000Z</time>
      </trkpt>
      <trkpt lat="42.63407" lon="1.99016">
        <ele>2498.3</ele>
        <time>2019-10-05T09:17:46.000Z</time>
      </trkpt>
      <trkpt lat="42.63407" lon="1.99012">
        <ele>2498.8</ele>
        <time>2019-10-05T09:17:48.000Z</time>
      </trkpt>
      <trkpt lat="42.63407" lon="1.99008">
        <ele>2499.3</ele>
        <time>2019-10-05T09:17:51.000Z</time>
      </trkpt>
      <trkpt lat="42.63408" lon="1.99003">
        <ele>2499.6</ele>
        <time>2019-10-05T09:17:54.000Z</time>
      </trkpt>
      <trkpt lat="42.63408" lon="1.98999">
        <ele>2499.8</ele>
        <time>2019-10-05T09:17:58.000Z</time>
      </trkpt>
      <trkpt lat="42.63408" lon="1.98994">
        <ele>2500</ele>
        <time>2019-10-05T09:18:01.000Z</time>
      </trkpt>
      <trkpt lat="42.63407" lon="1.98991">
        <ele>2500.5</ele>
        <time>2019-10-05T09:18:04.000Z</time>
      </trkpt>
      <trkpt lat="42.63406" lon="1.98986">
        <ele>2501.2</ele>
        <time>2019-10-05T09:18:07.000Z</time>
      </trkpt>
      <trkpt lat="42.63407" lon="1.98982">
        <ele>2501.5</ele>
        <time>2019-10-05T09:18:09.000Z</time>
      </trkpt>
      <trkpt lat="42.63406" lon="1.98978">
        <ele>2501.7</ele>
        <time>2019-10-05T09:18:11.000Z</time>
      </trkpt>
      <trkpt lat="42.63406" lon="1.98974">
        <ele>2501.9</ele>
        <time>2019-10-05T09:18:13.000Z</time>
      </trkpt>
      <trkpt lat="42.63406" lon="1.98969">
        <ele>2502</ele>
        <time>2019-10-05T09:18:16.000Z</time>
      </trkpt>
      <trkpt lat="42.63406" lon="1.98965">
        <ele>2502</ele>
        <time>2019-10-05T09:18:19.000Z</time>
      </trkpt>
      <trkpt lat="42.63406" lon="1.98961">
        <ele>2502</ele>
        <time>2019-10-05T09:18:22.000Z</time>
      </trkpt>
      <trkpt lat="42.63406" lon="1.98957">
        <ele>2502.3</ele>
        <time>2019-10-05T09:18:25.000Z</time>
      </trkpt>
      <trkpt lat="42.63406" lon="1.98953">
        <ele>2502.6</ele>
        <time>2019-10-05T09:18:28.000Z</time>
      </trkpt>
      <trkpt lat="42.63406" lon="1.98948">
        <ele>2502.8</ele>
        <time>2019-10-05T09:18:31.000Z</time>
      </trkpt>
      <trkpt lat="42.63406" lon="1.98943">
        <ele>2502.8</ele>
        <time>2019-10-05T09:18:34.000Z</time>
      </trkpt>
      <trkpt lat="42.63408" lon="1.98938">
        <ele>2502.8</ele>
        <time>2019-10-05T09:18:37.000Z</time>
      </trkpt>
      <trkpt lat="42.63409" lon="1.98934">
        <ele>2503.3</ele>
        <time>2019-10-05T09:18:40.000Z</time>
      </trkpt>
      <trkpt lat="42.6341" lon="1.9893">
        <ele>2503.6</ele>
        <time>2019-10-05T09:18:43.000Z</time>
      </trkpt>
      <trkpt lat="42.6341" lon="1.98925">
        <ele>2503.9</ele>
        <time>2019-10-05T09:18:46.000Z</time>
      </trkpt>
      <trkpt lat="42.6341" lon="1.98922">
        <ele>2504</ele>
        <time>2019-10-05T09:18:49.000Z</time>
      </trkpt>
      <trkpt lat="42.6341" lon="1.98917">
        <ele>2504</ele>
        <time>2019-10-05T09:18:52.000Z</time>
      </trkpt>
      <trkpt lat="42.63411" lon="1.98914">
        <ele>2504.5</ele>
        <time>2019-10-05T09:18:55.000Z</time>
      </trkpt>
      <trkpt lat="42.63412" lon="1.98909">
        <ele>2505.2</ele>
        <time>2019-10-05T09:18:59.000Z</time>
      </trkpt>
      <trkpt lat="42.63414" lon="1.98906">
        <ele>2505.6</ele>
        <time>2019-10-05T09:19:02.000Z</time>
      </trkpt>
      <trkpt lat="42.63416" lon="1.98903">
        <ele>2505.8</ele>
        <time>2019-10-05T09:19:05.000Z</time>
      </trkpt>
      <trkpt lat="42.63415" lon="1.98899">
        <ele>2505.9</ele>
        <time>2019-10-05T09:19:12.000Z</time>
      </trkpt>
      <trkpt lat="42.63416" lon="1.98895">
        <ele>2506.2</ele>
        <time>2019-10-05T09:19:27.000Z</time>
      </trkpt>
      <trkpt lat="42.63417" lon="1.98891">
        <ele>2506.6</ele>
        <time>2019-10-05T09:19:31.000Z</time>
      </trkpt>
      <trkpt lat="42.63417" lon="1.98887">
        <ele>2507</ele>
        <time>2019-10-05T09:19:36.000Z</time>
      </trkpt>
      <trkpt lat="42.63418" lon="1.98883">
        <ele>2507.3</ele>
        <time>2019-10-05T09:19:40.000Z</time>
      </trkpt>
      <trkpt lat="42.63418" lon="1.98879">
        <ele>2507.5</ele>
        <time>2019-10-05T09:19:44.000Z</time>
      </trkpt>
      <trkpt lat="42.63419" lon="1.98874">
        <ele>2507.8</ele>
        <time>2019-10-05T09:19:48.000Z</time>
      </trkpt>
      <trkpt lat="42.6342" lon="1.98871">
        <ele>2507.9</ele>
        <time>2019-10-05T09:19:51.000Z</time>
      </trkpt>
      <trkpt lat="42.63421" lon="1.98866">
        <ele>2508</ele>
        <time>2019-10-05T09:19:55.000Z</time>
      </trkpt>
      <trkpt lat="42.63421" lon="1.98862">
        <ele>2508.5</ele>
        <time>2019-10-05T09:19:58.000Z</time>
      </trkpt>
      <trkpt lat="42.63421" lon="1.98858">
        <ele>2509</ele>
        <time>2019-10-05T09:20:01.000Z</time>
      </trkpt>
      <trkpt lat="42.63421" lon="1.98855">
        <ele>2509.6</ele>
        <time>2019-10-05T09:20:05.000Z</time>
      </trkpt>
      <trkpt lat="42.63421" lon="1.9885">
        <ele>2510.2</ele>
        <time>2019-10-05T09:20:13.000Z</time>
      </trkpt>
      <trkpt lat="42.6342" lon="1.98846">
        <ele>2510.6</ele>
        <time>2019-10-05T09:20:25.000Z</time>
      </trkpt>
      <trkpt lat="42.63419" lon="1.98842">
        <ele>2511.1</ele>
        <time>2019-10-05T09:20:29.000Z</time>
      </trkpt>
      <trkpt lat="42.63417" lon="1.98839">
        <ele>2511.5</ele>
        <time>2019-10-05T09:20:32.000Z</time>
      </trkpt>
      <trkpt lat="42.63416" lon="1.98836">
        <ele>2512</ele>
        <time>2019-10-05T09:20:35.000Z</time>
      </trkpt>
      <trkpt lat="42.63416" lon="1.98832">
        <ele>2512.4</ele>
        <time>2019-10-05T09:20:38.000Z</time>
      </trkpt>
      <trkpt lat="42.63415" lon="1.98828">
        <ele>2512.8</ele>
        <time>2019-10-05T09:20:43.000Z</time>
      </trkpt>
      <trkpt lat="42.63414" lon="1.98824">
        <ele>2513.2</ele>
        <time>2019-10-05T09:21:21.000Z</time>
      </trkpt>
      <trkpt lat="42.63412" lon="1.9882">
        <ele>2513.6</ele>
        <time>2019-10-05T09:21:24.000Z</time>
      </trkpt>
      <trkpt lat="42.63412" lon="1.98816">
        <ele>2514.1</ele>
        <time>2019-10-05T09:21:27.000Z</time>
      </trkpt>
      <trkpt lat="42.63411" lon="1.98812">
        <ele>2514.5</ele>
        <time>2019-10-05T09:21:29.000Z</time>
      </trkpt>
      <trkpt lat="42.6341" lon="1.98808">
        <ele>2515</ele>
        <time>2019-10-05T09:21:31.000Z</time>
      </trkpt>
      <trkpt lat="42.63408" lon="1.98804">
        <ele>2515.7</ele>
        <time>2019-10-05T09:21:33.000Z</time>
      </trkpt>
      <trkpt lat="42.63407" lon="1.98799">
        <ele>2516.4</ele>
        <time>2019-10-05T09:21:35.000Z</time>
      </trkpt>
      <trkpt lat="42.63406" lon="1.98793">
        <ele>2517.1</ele>
        <time>2019-10-05T09:21:37.000Z</time>
      </trkpt>
      <trkpt lat="42.63405" lon="1.98787">
        <ele>2517.5</ele>
        <time>2019-10-05T09:21:39.000Z</time>
      </trkpt>
      <trkpt lat="42.63405" lon="1.9878">
        <ele>2517.8</ele>
        <time>2019-10-05T09:21:41.000Z</time>
      </trkpt>
      <trkpt lat="42.63405" lon="1.98775">
        <ele>2518.2</ele>
        <time>2019-10-05T09:21:43.000Z</time>
      </trkpt>
      <trkpt lat="42.63405" lon="1.98771">
        <ele>2518.5</ele>
        <time>2019-10-05T09:21:45.000Z</time>
      </trkpt>
      <trkpt lat="42.63405" lon="1.98767">
        <ele>2518.8</ele>
        <time>2019-10-05T09:21:47.000Z</time>
      </trkpt>
      <trkpt lat="42.63406" lon="1.98763">
        <ele>2519.1</ele>
        <time>2019-10-05T09:21:49.000Z</time>
      </trkpt>
      <trkpt lat="42.63406" lon="1.98759">
        <ele>2519.4</ele>
        <time>2019-10-05T09:21:51.000Z</time>
      </trkpt>
      <trkpt lat="42.63406" lon="1.98755">
        <ele>2519.8</ele>
        <time>2019-10-05T09:21:53.000Z</time>
      </trkpt>
      <trkpt lat="42.63407" lon="1.98751">
        <ele>2520.3</ele>
        <time>2019-10-05T09:21:55.000Z</time>
      </trkpt>
      <trkpt lat="42.63407" lon="1.98747">
        <ele>2520.7</ele>
        <time>2019-10-05T09:21:57.000Z</time>
      </trkpt>
      <trkpt lat="42.63408" lon="1.98743">
        <ele>2521.2</ele>
        <time>2019-10-05T09:21:59.000Z</time>
      </trkpt>
      <trkpt lat="42.63408" lon="1.9874">
        <ele>2521.3</ele>
        <time>2019-10-05T09:22:01.000Z</time>
      </trkpt>
      <trkpt lat="42.63408" lon="1.98736">
        <ele>2521.5</ele>
        <time>2019-10-05T09:22:03.000Z</time>
      </trkpt>
      <trkpt lat="42.63409" lon="1.98732">
        <ele>2521.7</ele>
        <time>2019-10-05T09:22:05.000Z</time>
      </trkpt>
      <trkpt lat="42.63409" lon="1.98728">
        <ele>2522.1</ele>
        <time>2019-10-05T09:22:07.000Z</time>
      </trkpt>
      <trkpt lat="42.6341" lon="1.98723">
        <ele>2522.5</ele>
        <time>2019-10-05T09:22:09.000Z</time>
      </trkpt>
      <trkpt lat="42.6341" lon="1.98719">
        <ele>2522.8</ele>
        <time>2019-10-05T09:22:11.000Z</time>
      </trkpt>
      <trkpt lat="42.63412" lon="1.98716">
        <ele>2523.1</ele>
        <time>2019-10-05T09:22:13.000Z</time>
      </trkpt>
      <trkpt lat="42.63413" lon="1.98712">
        <ele>2523.5</ele>
        <time>2019-10-05T09:22:15.000Z</time>
      </trkpt>
      <trkpt lat="42.63413" lon="1.98707">
        <ele>2523.9</ele>
        <time>2019-10-05T09:22:18.000Z</time>
      </trkpt>
      <trkpt lat="42.63415" lon="1.98702">
        <ele>2524.4</ele>
        <time>2019-10-05T09:22:21.000Z</time>
      </trkpt>
      <trkpt lat="42.63416" lon="1.98699">
        <ele>2524.7</ele>
        <time>2019-10-05T09:22:23.000Z</time>
      </trkpt>
      <trkpt lat="42.63417" lon="1.98694">
        <ele>2525</ele>
        <time>2019-10-05T09:22:26.000Z</time>
      </trkpt>
      <trkpt lat="42.63418" lon="1.9869">
        <ele>2525.2</ele>
        <time>2019-10-05T09:22:29.000Z</time>
      </trkpt>
      <trkpt lat="42.63418" lon="1.98686">
        <ele>2525.6</ele>
        <time>2019-10-05T09:22:33.000Z</time>
      </trkpt>
      <trkpt lat="42.63419" lon="1.9868">
        <ele>2526.1</ele>
        <time>2019-10-05T09:22:36.000Z</time>
      </trkpt>
      <trkpt lat="42.6342" lon="1.98676">
        <ele>2526.7</ele>
        <time>2019-10-05T09:22:38.000Z</time>
      </trkpt>
      <trkpt lat="42.63421" lon="1.98672">
        <ele>2527</ele>
        <time>2019-10-05T09:22:40.000Z</time>
      </trkpt>
      <trkpt lat="42.63421" lon="1.98669">
        <ele>2527.4</ele>
        <time>2019-10-05T09:22:43.000Z</time>
      </trkpt>
      <trkpt lat="42.63423" lon="1.98665">
        <ele>2527.7</ele>
        <time>2019-10-05T09:22:46.000Z</time>
      </trkpt>
      <trkpt lat="42.63424" lon="1.98661">
        <ele>2528.1</ele>
        <time>2019-10-05T09:22:50.000Z</time>
      </trkpt>
      <trkpt lat="42.63424" lon="1.98657">
        <ele>2528.4</ele>
        <time>2019-10-05T09:22:53.000Z</time>
      </trkpt>
      <trkpt lat="42.63426" lon="1.98654">
        <ele>2528.9</ele>
        <time>2019-10-05T09:22:56.000Z</time>
      </trkpt>
      <trkpt lat="42.63427" lon="1.9865">
        <ele>2529.4</ele>
        <time>2019-10-05T09:23:01.000Z</time>
      </trkpt>
      <trkpt lat="42.63429" lon="1.98647">
        <ele>2529.9</ele>
        <time>2019-10-05T09:23:04.000Z</time>
      </trkpt>
      <trkpt lat="42.63431" lon="1.98643">
        <ele>2530.3</ele>
        <time>2019-10-05T09:23:07.000Z</time>
      </trkpt>
      <trkpt lat="42.63432" lon="1.98639">
        <ele>2530.7</ele>
        <time>2019-10-05T09:23:09.000Z</time>
      </trkpt>
      <trkpt lat="42.63433" lon="1.98634">
        <ele>2531</ele>
        <time>2019-10-05T09:23:12.000Z</time>
      </trkpt>
      <trkpt lat="42.63435" lon="1.98631">
        <ele>2531.4</ele>
        <time>2019-10-05T09:23:17.000Z</time>
      </trkpt>
      <trkpt lat="42.63436" lon="1.98627">
        <ele>2531.7</ele>
        <time>2019-10-05T09:23:20.000Z</time>
      </trkpt>
      <trkpt lat="42.63437" lon="1.98623">
        <ele>2532.2</ele>
        <time>2019-10-05T09:23:23.000Z</time>
      </trkpt>
      <trkpt lat="42.63438" lon="1.98619">
        <ele>2532.6</ele>
        <time>2019-10-05T09:23:26.000Z</time>
      </trkpt>
      <trkpt lat="42.6344" lon="1.98616">
        <ele>2533</ele>
        <time>2019-10-05T09:23:29.000Z</time>
      </trkpt>
      <trkpt lat="42.63441" lon="1.98612">
        <ele>2533.3</ele>
        <time>2019-10-05T09:23:32.000Z</time>
      </trkpt>
      <trkpt lat="42.63443" lon="1.98608">
        <ele>2533.5</ele>
        <time>2019-10-05T09:23:35.000Z</time>
      </trkpt>
      <trkpt lat="42.63445" lon="1.98603">
        <ele>2533.6</ele>
        <time>2019-10-05T09:23:38.000Z</time>
      </trkpt>
      <trkpt lat="42.63445" lon="1.986">
        <ele>2533.7</ele>
        <time>2019-10-05T09:23:42.000Z</time>
      </trkpt>
      <trkpt lat="42.63447" lon="1.98596">
        <ele>2533.8</ele>
        <time>2019-10-05T09:23:45.000Z</time>
      </trkpt>
      <trkpt lat="42.63448" lon="1.98593">
        <ele>2533.9</ele>
        <time>2019-10-05T09:23:49.000Z</time>
      </trkpt>
      <trkpt lat="42.6345" lon="1.98589">
        <ele>2534.1</ele>
        <time>2019-10-05T09:23:51.000Z</time>
      </trkpt>
      <trkpt lat="42.63451" lon="1.98586">
        <ele>2534.2</ele>
        <time>2019-10-05T09:23:53.000Z</time>
      </trkpt>
      <trkpt lat="42.63453" lon="1.98583">
        <ele>2534.4</ele>
        <time>2019-10-05T09:23:55.000Z</time>
      </trkpt>
      <trkpt lat="42.63454" lon="1.98579">
        <ele>2534.7</ele>
        <time>2019-10-05T09:23:59.000Z</time>
      </trkpt>
      <trkpt lat="42.63456" lon="1.98575">
        <ele>2535</ele>
        <time>2019-10-05T09:24:02.000Z</time>
      </trkpt>
      <trkpt lat="42.63459" lon="1.98573">
        <ele>2535.2</ele>
        <time>2019-10-05T09:24:05.000Z</time>
      </trkpt>
      <trkpt lat="42.63461" lon="1.9857">
        <ele>2535.4</ele>
        <time>2019-10-05T09:24:08.000Z</time>
      </trkpt>
      <trkpt lat="42.63463" lon="1.98566">
        <ele>2535.6</ele>
        <time>2019-10-05T09:24:11.000Z</time>
      </trkpt>
      <trkpt lat="42.63464" lon="1.98563">
        <ele>2535.7</ele>
        <time>2019-10-05T09:24:14.000Z</time>
      </trkpt>
      <trkpt lat="42.63465" lon="1.98559">
        <ele>2535.8</ele>
        <time>2019-10-05T09:24:17.000Z</time>
      </trkpt>
      <trkpt lat="42.63467" lon="1.98555">
        <ele>2536</ele>
        <time>2019-10-05T09:24:22.000Z</time>
      </trkpt>
      <trkpt lat="42.63469" lon="1.98551">
        <ele>2536.3</ele>
        <time>2019-10-05T09:24:24.000Z</time>
      </trkpt>
      <trkpt lat="42.6347" lon="1.98547">
        <ele>2536.6</ele>
        <time>2019-10-05T09:24:27.000Z</time>
      </trkpt>
      <trkpt lat="42.63471" lon="1.98543">
        <ele>2536.6</ele>
        <time>2019-10-05T09:24:30.000Z</time>
      </trkpt>
      <trkpt lat="42.63473" lon="1.98539">
        <ele>2536.7</ele>
        <time>2019-10-05T09:24:33.000Z</time>
      </trkpt>
      <trkpt lat="42.63475" lon="1.98534">
        <ele>2536.9</ele>
        <time>2019-10-05T09:24:36.000Z</time>
      </trkpt>
      <trkpt lat="42.63476" lon="1.9853">
        <ele>2537.2</ele>
        <time>2019-10-05T09:24:39.000Z</time>
      </trkpt>
      <trkpt lat="42.63478" lon="1.98526">
        <ele>2537.4</ele>
        <time>2019-10-05T09:24:43.000Z</time>
      </trkpt>
      <trkpt lat="42.6348" lon="1.98523">
        <ele>2537.7</ele>
        <time>2019-10-05T09:24:46.000Z</time>
      </trkpt>
      <trkpt lat="42.63482" lon="1.9852">
        <ele>2538</ele>
        <time>2019-10-05T09:24:49.000Z</time>
      </trkpt>
      <trkpt lat="42.63484" lon="1.98517">
        <ele>2538.2</ele>
        <time>2019-10-05T09:24:51.000Z</time>
      </trkpt>
      <trkpt lat="42.63486" lon="1.98514">
        <ele>2538.4</ele>
        <time>2019-10-05T09:24:54.000Z</time>
      </trkpt>
      <trkpt lat="42.63488" lon="1.98511">
        <ele>2538.7</ele>
        <time>2019-10-05T09:24:57.000Z</time>
      </trkpt>
      <trkpt lat="42.63491" lon="1.98508">
        <ele>2539.2</ele>
        <time>2019-10-05T09:25:00.000Z</time>
      </trkpt>
      <trkpt lat="42.63493" lon="1.98506">
        <ele>2539.8</ele>
        <time>2019-10-05T09:25:03.000Z</time>
      </trkpt>
      <trkpt lat="42.63495" lon="1.98503">
        <ele>2540.3</ele>
        <time>2019-10-05T09:25:06.000Z</time>
      </trkpt>
      <trkpt lat="42.63497" lon="1.985">
        <ele>2540.7</ele>
        <time>2019-10-05T09:25:09.000Z</time>
      </trkpt>
      <trkpt lat="42.635" lon="1.98497">
        <ele>2541.2</ele>
        <time>2019-10-05T09:25:12.000Z</time>
      </trkpt>
      <trkpt lat="42.63502" lon="1.98494">
        <ele>2541.9</ele>
        <time>2019-10-05T09:25:15.000Z</time>
      </trkpt>
      <trkpt lat="42.63504" lon="1.98489">
        <ele>2543</ele>
        <time>2019-10-05T09:25:18.000Z</time>
      </trkpt>
      <trkpt lat="42.63507" lon="1.98486">
        <ele>2543.8</ele>
        <time>2019-10-05T09:25:21.000Z</time>
      </trkpt>
      <trkpt lat="42.63509" lon="1.98483">
        <ele>2544.3</ele>
        <time>2019-10-05T09:25:24.000Z</time>
      </trkpt>
      <trkpt lat="42.63511" lon="1.9848">
        <ele>2544.8</ele>
        <time>2019-10-05T09:25:27.000Z</time>
      </trkpt>
      <trkpt lat="42.63513" lon="1.98478">
        <ele>2545.4</ele>
        <time>2019-10-05T09:25:30.000Z</time>
      </trkpt>
      <trkpt lat="42.63517" lon="1.98478">
        <ele>2546.1</ele>
        <time>2019-10-05T09:25:33.000Z</time>
      </trkpt>
      <trkpt lat="42.6352" lon="1.98478">
        <ele>2546.6</ele>
        <time>2019-10-05T09:25:36.000Z</time>
      </trkpt>
      <trkpt lat="42.63523" lon="1.98476">
        <ele>2547</ele>
        <time>2019-10-05T09:25:39.000Z</time>
      </trkpt>
      <trkpt lat="42.63527" lon="1.98476">
        <ele>2547.7</ele>
        <time>2019-10-05T09:25:43.000Z</time>
      </trkpt>
      <trkpt lat="42.6353" lon="1.98474">
        <ele>2548.5</ele>
        <time>2019-10-05T09:25:46.000Z</time>
      </trkpt>
      <trkpt lat="42.63532" lon="1.98473">
        <ele>2549.3</ele>
        <time>2019-10-05T09:25:49.000Z</time>
      </trkpt>
      <trkpt lat="42.63536" lon="1.98472">
        <ele>2549.9</ele>
        <time>2019-10-05T09:25:53.000Z</time>
      </trkpt>
      <trkpt lat="42.63538" lon="1.98471">
        <ele>2550.5</ele>
        <time>2019-10-05T09:25:56.000Z</time>
      </trkpt>
      <trkpt lat="42.63541" lon="1.98468">
        <ele>2551</ele>
        <time>2019-10-05T09:26:03.000Z</time>
      </trkpt>
      <trkpt lat="42.63543" lon="1.98468">
        <ele>2551.3</ele>
        <time>2019-10-05T09:26:41.000Z</time>
      </trkpt>
      <trkpt lat="42.63546" lon="1.98469">
        <ele>2551.7</ele>
        <time>2019-10-05T09:26:47.000Z</time>
      </trkpt>
      <trkpt lat="42.63549" lon="1.9847">
        <ele>2552.2</ele>
        <time>2019-10-05T09:26:50.000Z</time>
      </trkpt>
      <trkpt lat="42.63552" lon="1.98471">
        <ele>2552.8</ele>
        <time>2019-10-05T09:26:53.000Z</time>
      </trkpt>
      <trkpt lat="42.63556" lon="1.98471">
        <ele>2553.5</ele>
        <time>2019-10-05T09:26:56.000Z</time>
      </trkpt>
      <trkpt lat="42.63559" lon="1.98471">
        <ele>2553.9</ele>
        <time>2019-10-05T09:26:59.000Z</time>
      </trkpt>
      <trkpt lat="42.63562" lon="1.98471">
        <ele>2554.2</ele>
        <time>2019-10-05T09:27:03.000Z</time>
      </trkpt>
      <trkpt lat="42.63564" lon="1.98471">
        <ele>2554.6</ele>
        <time>2019-10-05T09:27:08.000Z</time>
      </trkpt>
      <trkpt lat="42.63567" lon="1.98474">
        <ele>2555</ele>
        <time>2019-10-05T09:27:12.000Z</time>
      </trkpt>
      <trkpt lat="42.6357" lon="1.98476">
        <ele>2555.5</ele>
        <time>2019-10-05T09:27:17.000Z</time>
      </trkpt>
      <trkpt lat="42.63574" lon="1.98477">
        <ele>2555.9</ele>
        <time>2019-10-05T09:27:21.000Z</time>
      </trkpt>
      <trkpt lat="42.63577" lon="1.98478">
        <ele>2556.2</ele>
        <time>2019-10-05T09:27:24.000Z</time>
      </trkpt>
      <trkpt lat="42.63579" lon="1.98479">
        <ele>2556.5</ele>
        <time>2019-10-05T09:27:27.000Z</time>
      </trkpt>
      <trkpt lat="42.63582" lon="1.98478">
        <ele>2556.8</ele>
        <time>2019-10-05T09:27:32.000Z</time>
      </trkpt>
      <trkpt lat="42.63585" lon="1.98477">
        <ele>2557</ele>
        <time>2019-10-05T09:27:39.000Z</time>
      </trkpt>
      <trkpt lat="42.63589" lon="1.98477">
        <ele>2557.3</ele>
        <time>2019-10-05T09:27:47.000Z</time>
      </trkpt>
      <trkpt lat="42.63592" lon="1.98479">
        <ele>2557.7</ele>
        <time>2019-10-05T09:27:51.000Z</time>
      </trkpt>
      <trkpt lat="42.63595" lon="1.9848">
        <ele>2558.2</ele>
        <time>2019-10-05T09:27:55.000Z</time>
      </trkpt>
      <trkpt lat="42.63599" lon="1.98481">
        <ele>2558.8</ele>
        <time>2019-10-05T09:27:58.000Z</time>
      </trkpt>
      <trkpt lat="42.63601" lon="1.98483">
        <ele>2559.4</ele>
        <time>2019-10-05T09:28:03.000Z</time>
      </trkpt>
      <trkpt lat="42.63604" lon="1.98485">
        <ele>2560</ele>
        <time>2019-10-05T09:28:08.000Z</time>
      </trkpt>
      <trkpt lat="42.63607" lon="1.98486">
        <ele>2560.6</ele>
        <time>2019-10-05T09:28:11.000Z</time>
      </trkpt>
      <trkpt lat="42.6361" lon="1.98486">
        <ele>2561.1</ele>
        <time>2019-10-05T09:28:18.000Z</time>
      </trkpt>
      <trkpt lat="42.63613" lon="1.98487">
        <ele>2561.7</ele>
        <time>2019-10-05T09:31:47.000Z</time>
      </trkpt>
      <trkpt lat="42.63616" lon="1.98487">
        <ele>2562.4</ele>
        <time>2019-10-05T09:31:50.000Z</time>
      </trkpt>
      <trkpt lat="42.63619" lon="1.98489">
        <ele>2563.2</ele>
        <time>2019-10-05T09:31:53.000Z</time>
      </trkpt>
      <trkpt lat="42.63622" lon="1.9849">
        <ele>2564</ele>
        <time>2019-10-05T09:31:57.000Z</time>
      </trkpt>
      <trkpt lat="42.63625" lon="1.98491">
        <ele>2564.7</ele>
        <time>2019-10-05T09:32:04.000Z</time>
      </trkpt>
      <trkpt lat="42.63627" lon="1.98493">
        <ele>2565.5</ele>
        <time>2019-10-05T09:32:21.000Z</time>
      </trkpt>
      <trkpt lat="42.6363" lon="1.98493">
        <ele>2566.2</ele>
        <time>2019-10-05T09:32:26.000Z</time>
      </trkpt>
      <trkpt lat="42.63633" lon="1.98493">
        <ele>2566.8</ele>
        <time>2019-10-05T09:32:34.000Z</time>
      </trkpt>
      <trkpt lat="42.63636" lon="1.98494">
        <ele>2567.4</ele>
        <time>2019-10-05T09:32:39.000Z</time>
      </trkpt>
      <trkpt lat="42.63639" lon="1.98494">
        <ele>2568.1</ele>
        <time>2019-10-05T09:32:43.000Z</time>
      </trkpt>
      <trkpt lat="42.63642" lon="1.98496">
        <ele>2568.9</ele>
        <time>2019-10-05T09:32:47.000Z</time>
      </trkpt>
      <trkpt lat="42.63645" lon="1.98496">
        <ele>2569.9</ele>
        <time>2019-10-05T09:32:52.000Z</time>
      </trkpt>
      <trkpt lat="42.63648" lon="1.98496">
        <ele>2570.8</ele>
        <time>2019-10-05T09:33:00.000Z</time>
      </trkpt>
      <trkpt lat="42.6365" lon="1.98498">
        <ele>2571.6</ele>
        <time>2019-10-05T09:33:04.000Z</time>
      </trkpt>
      <trkpt lat="42.63652" lon="1.98501">
        <ele>2572.5</ele>
        <time>2019-10-05T09:33:08.000Z</time>
      </trkpt>
      <trkpt lat="42.63654" lon="1.98505">
        <ele>2573.4</ele>
        <time>2019-10-05T09:33:14.000Z</time>
      </trkpt>
      <trkpt lat="42.63656" lon="1.98508">
        <ele>2574</ele>
        <time>2019-10-05T09:33:18.000Z</time>
      </trkpt>
      <trkpt lat="42.63659" lon="1.98512">
        <ele>2574.5</ele>
        <time>2019-10-05T09:33:22.000Z</time>
      </trkpt>
      <trkpt lat="42.6366" lon="1.98516">
        <ele>2575.3</ele>
        <time>2019-10-05T09:33:27.000Z</time>
      </trkpt>
      <trkpt lat="42.63663" lon="1.98517">
        <ele>2576.1</ele>
        <time>2019-10-05T09:33:32.000Z</time>
      </trkpt>
      <trkpt lat="42.63666" lon="1.98519">
        <ele>2576.9</ele>
        <time>2019-10-05T09:33:38.000Z</time>
      </trkpt>
      <trkpt lat="42.63668" lon="1.98522">
        <ele>2577.4</ele>
        <time>2019-10-05T09:33:42.000Z</time>
      </trkpt>
      <trkpt lat="42.6367" lon="1.98525">
        <ele>2577.8</ele>
        <time>2019-10-05T09:33:47.000Z</time>
      </trkpt>
      <trkpt lat="42.63672" lon="1.98528">
        <ele>2578.2</ele>
        <time>2019-10-05T09:33:51.000Z</time>
      </trkpt>
      <trkpt lat="42.63673" lon="1.98532">
        <ele>2578.6</ele>
        <time>2019-10-05T09:33:56.000Z</time>
      </trkpt>
      <trkpt lat="42.63675" lon="1.98535">
        <ele>2579</ele>
        <time>2019-10-05T09:34:00.000Z</time>
      </trkpt>
      <trkpt lat="42.63677" lon="1.98537">
        <ele>2579.5</ele>
        <time>2019-10-05T09:34:05.000Z</time>
      </trkpt>
      <trkpt lat="42.63679" lon="1.98539">
        <ele>2579.8</ele>
        <time>2019-10-05T09:34:09.000Z</time>
      </trkpt>
      <trkpt lat="42.63681" lon="1.98543">
        <ele>2580.1</ele>
        <time>2019-10-05T09:34:13.000Z</time>
      </trkpt>
      <trkpt lat="42.63684" lon="1.98546">
        <ele>2580.4</ele>
        <time>2019-10-05T09:34:17.000Z</time>
      </trkpt>
      <trkpt lat="42.63686" lon="1.9855">
        <ele>2580.6</ele>
        <time>2019-10-05T09:34:21.000Z</time>
      </trkpt>
      <trkpt lat="42.63688" lon="1.98553">
        <ele>2580.6</ele>
        <time>2019-10-05T09:34:24.000Z</time>
      </trkpt>
      <trkpt lat="42.63689" lon="1.98557">
        <ele>2580.7</ele>
        <time>2019-10-05T09:34:28.000Z</time>
      </trkpt>
      <trkpt lat="42.6369" lon="1.98561">
        <ele>2580.8</ele>
        <time>2019-10-05T09:34:32.000Z</time>
      </trkpt>
      <trkpt lat="42.63692" lon="1.98565">
        <ele>2580.9</ele>
        <time>2019-10-05T09:34:38.000Z</time>
      </trkpt>
      <trkpt lat="42.63695" lon="1.98568">
        <ele>2580.8</ele>
        <time>2019-10-05T09:34:42.000Z</time>
      </trkpt>
      <trkpt lat="42.63697" lon="1.98571">
        <ele>2580.7</ele>
        <time>2019-10-05T09:34:47.000Z</time>
      </trkpt>
      <trkpt lat="42.637" lon="1.98573">
        <ele>2580.7</ele>
        <time>2019-10-05T09:34:51.000Z</time>
      </trkpt>
      <trkpt lat="42.63703" lon="1.98575">
        <ele>2580.7</ele>
        <time>2019-10-05T09:34:55.000Z</time>
      </trkpt>
      <trkpt lat="42.63705" lon="1.98578">
        <ele>2580.7</ele>
        <time>2019-10-05T09:34:59.000Z</time>
      </trkpt>
      <trkpt lat="42.63707" lon="1.9858">
        <ele>2580.6</ele>
        <time>2019-10-05T09:35:03.000Z</time>
      </trkpt>
      <trkpt lat="42.6371" lon="1.98583">
        <ele>2580.4</ele>
        <time>2019-10-05T09:35:08.000Z</time>
      </trkpt>
      <trkpt lat="42.63711" lon="1.98587">
        <ele>2580.2</ele>
        <time>2019-10-05T09:35:13.000Z</time>
      </trkpt>
      <trkpt lat="42.63714" lon="1.9859">
        <ele>2579.9</ele>
        <time>2019-10-05T09:35:17.000Z</time>
      </trkpt>
      <trkpt lat="42.63716" lon="1.98594">
        <ele>2579.5</ele>
        <time>2019-10-05T09:35:21.000Z</time>
      </trkpt>
      <trkpt lat="42.63718" lon="1.98597">
        <ele>2579.3</ele>
        <time>2019-10-05T09:35:24.000Z</time>
      </trkpt>
      <trkpt lat="42.63721" lon="1.986">
        <ele>2579.1</ele>
        <time>2019-10-05T09:35:27.000Z</time>
      </trkpt>
      <trkpt lat="42.63723" lon="1.98603">
        <ele>2579</ele>
        <time>2019-10-05T09:35:30.000Z</time>
      </trkpt>
      <trkpt lat="42.63725" lon="1.98606">
        <ele>2578.6</ele>
        <time>2019-10-05T09:35:33.000Z</time>
      </trkpt>
      <trkpt lat="42.63727" lon="1.9861">
        <ele>2578.1</ele>
        <time>2019-10-05T09:35:37.000Z</time>
      </trkpt>
      <trkpt lat="42.6373" lon="1.98612">
        <ele>2577.6</ele>
        <time>2019-10-05T09:35:41.000Z</time>
      </trkpt>
      <trkpt lat="42.63732" lon="1.98614">
        <ele>2577.3</ele>
        <time>2019-10-05T09:35:45.000Z</time>
      </trkpt>
      <trkpt lat="42.63735" lon="1.98615">
        <ele>2577</ele>
        <time>2019-10-05T09:35:52.000Z</time>
      </trkpt>
      <trkpt lat="42.63738" lon="1.98613">
        <ele>2576.4</ele>
        <time>2019-10-05T09:37:59.000Z</time>
      </trkpt>
      <trkpt lat="42.63741" lon="1.98612">
        <ele>2577.1</ele>
        <time>2019-10-05T09:38:18.000Z</time>
      </trkpt>
      <trkpt lat="42.63744" lon="1.98611">
        <ele>2576.8</ele>
        <time>2019-10-05T09:38:22.000Z</time>
      </trkpt>
      <trkpt lat="42.63747" lon="1.9861">
        <ele>2576.5</ele>
        <time>2019-10-05T09:38:25.000Z</time>
      </trkpt>
      <trkpt lat="42.6375" lon="1.98609">
        <ele>2576.1</ele>
        <time>2019-10-05T09:38:29.000Z</time>
      </trkpt>
      <trkpt lat="42.63753" lon="1.98609">
        <ele>2575.6</ele>
        <time>2019-10-05T09:38:42.000Z</time>
      </trkpt>
      <trkpt lat="42.63754" lon="1.98605">
        <ele>2576.2</ele>
        <time>2019-10-05T09:40:36.000Z</time>
      </trkpt>
      <trkpt lat="42.63754" lon="1.98601">
        <ele>2576.7</ele>
        <time>2019-10-05T09:40:39.000Z</time>
      </trkpt>
      <trkpt lat="42.63755" lon="1.98597">
        <ele>2577.2</ele>
        <time>2019-10-05T09:40:45.000Z</time>
      </trkpt>
      <trkpt lat="42.63754" lon="1.98593">
        <ele>2577.7</ele>
        <time>2019-10-05T09:40:50.000Z</time>
      </trkpt>
      <trkpt lat="42.63753" lon="1.98589">
        <ele>2578.1</ele>
        <time>2019-10-05T09:40:56.000Z</time>
      </trkpt>
      <trkpt lat="42.63754" lon="1.98585">
        <ele>2578.5</ele>
        <time>2019-10-05T09:41:05.000Z</time>
      </trkpt>
      <trkpt lat="42.63754" lon="1.98581">
        <ele>2579</ele>
        <time>2019-10-05T09:41:10.000Z</time>
      </trkpt>
      <trkpt lat="42.63753" lon="1.98577">
        <ele>2579.4</ele>
        <time>2019-10-05T09:41:15.000Z</time>
      </trkpt>
      <trkpt lat="42.6375" lon="1.98576">
        <ele>2579.8</ele>
        <time>2019-10-05T09:41:18.000Z</time>
      </trkpt>
      <trkpt lat="42.63747" lon="1.98575">
        <ele>2580.2</ele>
        <time>2019-10-05T09:41:25.000Z</time>
      </trkpt>
      <trkpt lat="42.63746" lon="1.9857">
        <ele>2580.9</ele>
        <time>2019-10-05T09:41:35.000Z</time>
      </trkpt>
      <trkpt lat="42.63746" lon="1.98566">
        <ele>2581.3</ele>
        <time>2019-10-05T09:41:39.000Z</time>
      </trkpt>
      <trkpt lat="42.63746" lon="1.98562">
        <ele>2581.6</ele>
        <time>2019-10-05T09:41:48.000Z</time>
      </trkpt>
      <trkpt lat="42.63744" lon="1.98558">
        <ele>2581.9</ele>
        <time>2019-10-05T09:41:58.000Z</time>
      </trkpt>
      <trkpt lat="42.63743" lon="1.98553">
        <ele>2582.1</ele>
        <time>2019-10-05T09:42:01.000Z</time>
      </trkpt>
      <trkpt lat="42.63743" lon="1.98549">
        <ele>2582.7</ele>
        <time>2019-10-05T09:42:04.000Z</time>
      </trkpt>
      <trkpt lat="42.63742" lon="1.98544">
        <ele>2582.9</ele>
        <time>2019-10-05T09:42:07.000Z</time>
      </trkpt>
      <trkpt lat="42.6374" lon="1.9854">
        <ele>2583.1</ele>
        <time>2019-10-05T09:42:10.000Z</time>
      </trkpt>
      <trkpt lat="42.63739" lon="1.98536">
        <ele>2583.5</ele>
        <time>2019-10-05T09:42:13.000Z</time>
      </trkpt>
      <trkpt lat="42.63737" lon="1.98533">
        <ele>2583.6</ele>
        <time>2019-10-05T09:42:22.000Z</time>
      </trkpt>
      <trkpt lat="42.63735" lon="1.98529">
        <ele>2583.9</ele>
        <time>2019-10-05T09:42:25.000Z</time>
      </trkpt>
      <trkpt lat="42.63734" lon="1.98524">
        <ele>2583.9</ele>
        <time>2019-10-05T09:42:30.000Z</time>
      </trkpt>
      <trkpt lat="42.63733" lon="1.98521">
        <ele>2584.1</ele>
        <time>2019-10-05T09:42:33.000Z</time>
      </trkpt>
      <trkpt lat="42.63733" lon="1.98517">
        <ele>2584</ele>
        <time>2019-10-05T09:42:39.000Z</time>
      </trkpt>
      <trkpt lat="42.63732" lon="1.98512">
        <ele>2583.8</ele>
        <time>2019-10-05T09:42:43.000Z</time>
      </trkpt>
      <trkpt lat="42.6373" lon="1.98509">
        <ele>2583.7</ele>
        <time>2019-10-05T09:42:53.000Z</time>
      </trkpt>
      <trkpt lat="42.63729" lon="1.98505">
        <ele>2583.4</ele>
        <time>2019-10-05T09:43:08.000Z</time>
      </trkpt>
      <trkpt lat="42.63728" lon="1.985">
        <ele>2582.9</ele>
        <time>2019-10-05T09:43:11.000Z</time>
      </trkpt>
      <trkpt lat="42.63727" lon="1.98496">
        <ele>2583.1</ele>
        <time>2019-10-05T09:43:14.000Z</time>
      </trkpt>
      <trkpt lat="42.63726" lon="1.98492">
        <ele>2581.8</ele>
        <time>2019-10-05T09:43:18.000Z</time>
      </trkpt>
      <trkpt lat="42.63724" lon="1.98489">
        <ele>2582</ele>
        <time>2019-10-05T09:43:24.000Z</time>
      </trkpt>
      <trkpt lat="42.63724" lon="1.98485">
        <ele>2581.2</ele>
        <time>2019-10-05T09:44:03.000Z</time>
      </trkpt>
      <trkpt lat="42.63727" lon="1.98487">
        <ele>2581</ele>
        <time>2019-10-05T09:45:59.000Z</time>
      </trkpt>
      <trkpt lat="42.63726" lon="1.98484">
        <ele>2581</ele>
        <time>2019-10-05T09:46:07.000Z</time>
      </trkpt>
      <trkpt lat="42.63723" lon="1.98484">
        <ele>2581.2</ele>
        <time>2019-10-05T09:46:14.000Z</time>
      </trkpt>
      <trkpt lat="42.63726" lon="1.98488">
        <ele>2580.9</ele>
        <time>2019-10-05T09:47:22.000Z</time>
      </trkpt>
      <trkpt lat="42.63727" lon="1.98491">
        <ele>2581.7</ele>
        <time>2019-10-05T09:47:25.000Z</time>
      </trkpt>
      <trkpt lat="42.63728" lon="1.98495">
        <ele>2582.1</ele>
        <time>2019-10-05T09:47:29.000Z</time>
      </trkpt>
      <trkpt lat="42.63728" lon="1.98499">
        <ele>2582.7</ele>
        <time>2019-10-05T09:47:32.000Z</time>
      </trkpt>
      <trkpt lat="42.63729" lon="1.98503">
        <ele>2583.1</ele>
        <time>2019-10-05T09:47:36.000Z</time>
      </trkpt>
      <trkpt lat="42.63729" lon="1.98508">
        <ele>2583.5</ele>
        <time>2019-10-05T09:47:41.000Z</time>
      </trkpt>
      <trkpt lat="42.63729" lon="1.98513">
        <ele>2583.7</ele>
        <time>2019-10-05T09:47:45.000Z</time>
      </trkpt>
      <trkpt lat="42.63729" lon="1.98517">
        <ele>2583.9</ele>
        <time>2019-10-05T09:47:49.000Z</time>
      </trkpt>
      <trkpt lat="42.6373" lon="1.98521">
        <ele>2583.9</ele>
        <time>2019-10-05T09:47:53.000Z</time>
      </trkpt>
      <trkpt lat="42.63731" lon="1.98526">
        <ele>2583.7</ele>
        <time>2019-10-05T09:47:57.000Z</time>
      </trkpt>
      <trkpt lat="42.63732" lon="1.9853">
        <ele>2583.6</ele>
        <time>2019-10-05T09:48:01.000Z</time>
      </trkpt>
      <trkpt lat="42.63734" lon="1.98533">
        <ele>2583.3</ele>
        <time>2019-10-05T09:48:05.000Z</time>
      </trkpt>
      <trkpt lat="42.63736" lon="1.98536">
        <ele>2583.2</ele>
        <time>2019-10-05T09:48:09.000Z</time>
      </trkpt>
      <trkpt lat="42.63737" lon="1.9854">
        <ele>2582.8</ele>
        <time>2019-10-05T09:48:15.000Z</time>
      </trkpt>
      <trkpt lat="42.63738" lon="1.98544">
        <ele>2582.6</ele>
        <time>2019-10-05T09:48:20.000Z</time>
      </trkpt>
      <trkpt lat="42.63737" lon="1.98548">
        <ele>2582.3</ele>
        <time>2019-10-05T09:48:23.000Z</time>
      </trkpt>
      <trkpt lat="42.63737" lon="1.98553">
        <ele>2582.2</ele>
        <time>2019-10-05T09:48:27.000Z</time>
      </trkpt>
      <trkpt lat="42.63735" lon="1.98556">
        <ele>2582.1</ele>
        <time>2019-10-05T09:48:30.000Z</time>
      </trkpt>
      <trkpt lat="42.63734" lon="1.9856">
        <ele>2581.8</ele>
        <time>2019-10-05T09:48:35.000Z</time>
      </trkpt>
      <trkpt lat="42.63737" lon="1.98558">
        <ele>2581.6</ele>
        <time>2019-10-05T09:49:49.000Z</time>
      </trkpt>
      <trkpt lat="42.63738" lon="1.98554">
        <ele>2581.9</ele>
        <time>2019-10-05T09:50:13.000Z</time>
      </trkpt>
      <trkpt lat="42.63741" lon="1.98554">
        <ele>2581.7</ele>
        <time>2019-10-05T09:50:17.000Z</time>
      </trkpt>
      <trkpt lat="42.63739" lon="1.98558">
        <ele>2581.6</ele>
        <time>2019-10-05T09:50:38.000Z</time>
      </trkpt>
      <trkpt lat="42.6374" lon="1.98562">
        <ele>2581.3</ele>
        <time>2019-10-05T09:50:44.000Z</time>
      </trkpt>
      <trkpt lat="42.63741" lon="1.98566">
        <ele>2580.7</ele>
        <time>2019-10-05T09:50:48.000Z</time>
      </trkpt>
      <trkpt lat="42.63742" lon="1.9857">
        <ele>2580.3</ele>
        <time>2019-10-05T09:50:57.000Z</time>
      </trkpt>
      <trkpt lat="42.63743" lon="1.98573">
        <ele>2580</ele>
        <time>2019-10-05T09:51:14.000Z</time>
      </trkpt>
      <trkpt lat="42.63744" lon="1.98576">
        <ele>2579.6</ele>
        <time>2019-10-05T09:51:25.000Z</time>
      </trkpt>
      <trkpt lat="42.63742" lon="1.98579">
        <ele>2579.4</ele>
        <time>2019-10-05T09:51:29.000Z</time>
      </trkpt>
      <trkpt lat="42.6374" lon="1.98582">
        <ele>2579</ele>
        <time>2019-10-05T09:51:34.000Z</time>
      </trkpt>
      <trkpt lat="42.63741" lon="1.98586">
        <ele>2579</ele>
        <time>2019-10-05T09:51:41.000Z</time>
      </trkpt>
      <trkpt lat="42.63742" lon="1.98589">
        <ele>2578.5</ele>
        <time>2019-10-05T09:52:08.000Z</time>
      </trkpt>
      <trkpt lat="42.63743" lon="1.98593">
        <ele>2578.1</ele>
        <time>2019-10-05T09:52:12.000Z</time>
      </trkpt>
      <trkpt lat="42.63742" lon="1.98598">
        <ele>2577.6</ele>
        <time>2019-10-05T09:52:16.000Z</time>
      </trkpt>
      <trkpt lat="42.6374" lon="1.98601">
        <ele>2577</ele>
        <time>2019-10-05T09:52:20.000Z</time>
      </trkpt>
      <trkpt lat="42.6374" lon="1.98605">
        <ele>2576.6</ele>
        <time>2019-10-05T09:52:41.000Z</time>
      </trkpt>
      <trkpt lat="42.6374" lon="1.98608">
        <ele>2576</ele>
        <time>2019-10-05T09:53:56.000Z</time>
      </trkpt>
      <trkpt lat="42.6374" lon="1.98612">
        <ele>2575.3</ele>
        <time>2019-10-05T10:13:42.000Z</time>
      </trkpt>
      <trkpt lat="42.63738" lon="1.98613">
        <ele>2574.8</ele>
        <time>2019-10-05T10:13:52.000Z</time>
      </trkpt>
      <trkpt lat="42.6374" lon="1.98611">
        <ele>2574.3</ele>
        <time>2019-10-05T10:15:25.000Z</time>
      </trkpt>
      <trkpt lat="42.63742" lon="1.98614">
        <ele>2573.9</ele>
        <time>2019-10-05T10:18:10.000Z</time>
      </trkpt>
      <trkpt lat="42.63744" lon="1.98619">
        <ele>2572.9</ele>
        <time>2019-10-05T10:18:21.000Z</time>
      </trkpt>
      <trkpt lat="42.63747" lon="1.98623">
        <ele>2571.9</ele>
        <time>2019-10-05T10:18:23.000Z</time>
      </trkpt>
      <trkpt lat="42.6375" lon="1.98627">
        <ele>2571.7</ele>
        <time>2019-10-05T10:18:25.000Z</time>
      </trkpt>
      <trkpt lat="42.63753" lon="1.9863">
        <ele>2571.9</ele>
        <time>2019-10-05T10:18:27.000Z</time>
      </trkpt>
      <trkpt lat="42.63755" lon="1.98633">
        <ele>2572.1</ele>
        <time>2019-10-05T10:18:29.000Z</time>
      </trkpt>
      <trkpt lat="42.63759" lon="1.98634">
        <ele>2572.3</ele>
        <time>2019-10-05T10:18:31.000Z</time>
      </trkpt>
      <trkpt lat="42.63762" lon="1.98634">
        <ele>2572.6</ele>
        <time>2019-10-05T10:18:33.000Z</time>
      </trkpt>
      <trkpt lat="42.63765" lon="1.98632">
        <ele>2572.5</ele>
        <time>2019-10-05T10:18:35.000Z</time>
      </trkpt>
      <trkpt lat="42.63769" lon="1.98627">
        <ele>2572.2</ele>
        <time>2019-10-05T10:18:37.000Z</time>
      </trkpt>
      <trkpt lat="42.63771" lon="1.98624">
        <ele>2571.8</ele>
        <time>2019-10-05T10:18:38.000Z</time>
      </trkpt>
      <trkpt lat="42.63773" lon="1.9862">
        <ele>2571.3</ele>
        <time>2019-10-05T10:18:39.000Z</time>
      </trkpt>
      <trkpt lat="42.63776" lon="1.98615">
        <ele>2570.6</ele>
        <time>2019-10-05T10:18:40.000Z</time>
      </trkpt>
      <trkpt lat="42.63779" lon="1.98612">
        <ele>2570.1</ele>
        <time>2019-10-05T10:18:41.000Z</time>
      </trkpt>
      <trkpt lat="42.63782" lon="1.98609">
        <ele>2569.5</ele>
        <time>2019-10-05T10:18:42.000Z</time>
      </trkpt>
      <trkpt lat="42.63785" lon="1.98607">
        <ele>2569</ele>
        <time>2019-10-05T10:18:43.000Z</time>
      </trkpt>
      <trkpt lat="42.63788" lon="1.98605">
        <ele>2568.4</ele>
        <time>2019-10-05T10:18:44.000Z</time>
      </trkpt>
      <trkpt lat="42.63792" lon="1.98603">
        <ele>2567.2</ele>
        <time>2019-10-05T10:18:45.000Z</time>
      </trkpt>
      <trkpt lat="42.63796" lon="1.98602">
        <ele>2565.9</ele>
        <time>2019-10-05T10:18:46.000Z</time>
      </trkpt>
      <trkpt lat="42.638" lon="1.986">
        <ele>2564.9</ele>
        <time>2019-10-05T10:18:47.000Z</time>
      </trkpt>
      <trkpt lat="42.63805" lon="1.98598">
        <ele>2563.7</ele>
        <time>2019-10-05T10:18:48.000Z</time>
      </trkpt>
      <trkpt lat="42.63809" lon="1.98596">
        <ele>2562.4</ele>
        <time>2019-10-05T10:18:49.000Z</time>
      </trkpt>
      <trkpt lat="42.63813" lon="1.98595">
        <ele>2561.2</ele>
        <time>2019-10-05T10:18:50.000Z</time>
      </trkpt>
      <trkpt lat="42.63817" lon="1.98595">
        <ele>2560.3</ele>
        <time>2019-10-05T10:18:51.000Z</time>
      </trkpt>
      <trkpt lat="42.6382" lon="1.98595">
        <ele>2559.6</ele>
        <time>2019-10-05T10:18:52.000Z</time>
      </trkpt>
      <trkpt lat="42.63824" lon="1.98593">
        <ele>2558.6</ele>
        <time>2019-10-05T10:18:53.000Z</time>
      </trkpt>
      <trkpt lat="42.63828" lon="1.98592">
        <ele>2557.1</ele>
        <time>2019-10-05T10:18:54.000Z</time>
      </trkpt>
      <trkpt lat="42.63833" lon="1.98592">
        <ele>2555.7</ele>
        <time>2019-10-05T10:18:55.000Z</time>
      </trkpt>
      <trkpt lat="42.63837" lon="1.98592">
        <ele>2554.1</ele>
        <time>2019-10-05T10:18:56.000Z</time>
      </trkpt>
      <trkpt lat="42.63841" lon="1.98593">
        <ele>2552.4</ele>
        <time>2019-10-05T10:18:57.000Z</time>
      </trkpt>
      <trkpt lat="42.63844" lon="1.98595">
        <ele>2551</ele>
        <time>2019-10-05T10:18:58.000Z</time>
      </trkpt>
      <trkpt lat="42.63848" lon="1.98596">
        <ele>2549.8</ele>
        <time>2019-10-05T10:18:59.000Z</time>
      </trkpt>
      <trkpt lat="42.63851" lon="1.98598">
        <ele>2548.5</ele>
        <time>2019-10-05T10:19:00.000Z</time>
      </trkpt>
      <trkpt lat="42.63854" lon="1.986">
        <ele>2547.3</ele>
        <time>2019-10-05T10:19:01.000Z</time>
      </trkpt>
      <trkpt lat="42.63857" lon="1.98601">
        <ele>2546.2</ele>
        <time>2019-10-05T10:19:02.000Z</time>
      </trkpt>
      <trkpt lat="42.6386" lon="1.98601">
        <ele>2545.1</ele>
        <time>2019-10-05T10:19:03.000Z</time>
      </trkpt>
      <trkpt lat="42.63863" lon="1.98601">
        <ele>2544</ele>
        <time>2019-10-05T10:19:04.000Z</time>
      </trkpt>
      <trkpt lat="42.63866" lon="1.98601">
        <ele>2542.8</ele>
        <time>2019-10-05T10:19:05.000Z</time>
      </trkpt>
      <trkpt lat="42.63869" lon="1.98601">
        <ele>2541.8</ele>
        <time>2019-10-05T10:19:06.000Z</time>
      </trkpt>
      <trkpt lat="42.63871" lon="1.986">
        <ele>2540.7</ele>
        <time>2019-10-05T10:19:07.000Z</time>
      </trkpt>
      <trkpt lat="42.63874" lon="1.98598">
        <ele>2539.9</ele>
        <time>2019-10-05T10:19:08.000Z</time>
      </trkpt>
      <trkpt lat="42.63877" lon="1.98596">
        <ele>2539.2</ele>
        <time>2019-10-05T10:19:09.000Z</time>
      </trkpt>
      <trkpt lat="42.6388" lon="1.98594">
        <ele>2538.6</ele>
        <time>2019-10-05T10:19:10.000Z</time>
      </trkpt>
      <trkpt lat="42.63884" lon="1.98591">
        <ele>2537.1</ele>
        <time>2019-10-05T10:19:12.000Z</time>
      </trkpt>
      <trkpt lat="42.63887" lon="1.9859">
        <ele>2536.2</ele>
        <time>2019-10-05T10:19:13.000Z</time>
      </trkpt>
      <trkpt lat="42.63889" lon="1.98588">
        <ele>2535.4</ele>
        <time>2019-10-05T10:19:14.000Z</time>
      </trkpt>
      <trkpt lat="42.63893" lon="1.98588">
        <ele>2534.1</ele>
        <time>2019-10-05T10:19:17.000Z</time>
      </trkpt>
      <trkpt lat="42.63897" lon="1.98588">
        <ele>2533</ele>
        <time>2019-10-05T10:19:19.000Z</time>
      </trkpt>
      <trkpt lat="42.63899" lon="1.98585">
        <ele>2532.2</ele>
        <time>2019-10-05T10:19:21.000Z</time>
      </trkpt>
      <trkpt lat="42.639" lon="1.98582">
        <ele>2531.5</ele>
        <time>2019-10-05T10:19:23.000Z</time>
      </trkpt>
      <trkpt lat="42.63902" lon="1.98577">
        <ele>2530.7</ele>
        <time>2019-10-05T10:19:25.000Z</time>
      </trkpt>
      <trkpt lat="42.63905" lon="1.98576">
        <ele>2530</ele>
        <time>2019-10-05T10:19:27.000Z</time>
      </trkpt>
      <trkpt lat="42.63909" lon="1.9858">
        <ele>2528.6</ele>
        <time>2019-10-05T10:19:29.000Z</time>
      </trkpt>
      <trkpt lat="42.63912" lon="1.98585">
        <ele>2527.5</ele>
        <time>2019-10-05T10:19:31.000Z</time>
      </trkpt>
      <trkpt lat="42.63915" lon="1.9859">
        <ele>2526.7</ele>
        <time>2019-10-05T10:19:33.000Z</time>
      </trkpt>
      <trkpt lat="42.63917" lon="1.98595">
        <ele>2525.9</ele>
        <time>2019-10-05T10:19:35.000Z</time>
      </trkpt>
      <trkpt lat="42.63921" lon="1.986">
        <ele>2524.7</ele>
        <time>2019-10-05T10:19:37.000Z</time>
      </trkpt>
      <trkpt lat="42.63923" lon="1.98603">
        <ele>2524.1</ele>
        <time>2019-10-05T10:19:38.000Z</time>
      </trkpt>
      <trkpt lat="42.63926" lon="1.98608">
        <ele>2523</ele>
        <time>2019-10-05T10:19:40.000Z</time>
      </trkpt>
      <trkpt lat="42.63931" lon="1.98609">
        <ele>2522</ele>
        <time>2019-10-05T10:19:42.000Z</time>
      </trkpt>
      <trkpt lat="42.63937" lon="1.98605">
        <ele>2520.4</ele>
        <time>2019-10-05T10:19:43.000Z</time>
      </trkpt>
      <trkpt lat="42.63942" lon="1.98605">
        <ele>2519.6</ele>
        <time>2019-10-05T10:19:44.000Z</time>
      </trkpt>
      <trkpt lat="42.63948" lon="1.98603">
        <ele>2518.6</ele>
        <time>2019-10-05T10:19:45.000Z</time>
      </trkpt>
      <trkpt lat="42.63953" lon="1.98603">
        <ele>2517.8</ele>
        <time>2019-10-05T10:19:46.000Z</time>
      </trkpt>
      <trkpt lat="42.63958" lon="1.98607">
        <ele>2516.7</ele>
        <time>2019-10-05T10:19:47.000Z</time>
      </trkpt>
      <trkpt lat="42.63961" lon="1.9861">
        <ele>2515.9</ele>
        <time>2019-10-05T10:19:48.000Z</time>
      </trkpt>
      <trkpt lat="42.63965" lon="1.98611">
        <ele>2515.1</ele>
        <time>2019-10-05T10:19:49.000Z</time>
      </trkpt>
      <trkpt lat="42.6397" lon="1.98616">
        <ele>2514.2</ele>
        <time>2019-10-05T10:19:52.000Z</time>
      </trkpt>
      <trkpt lat="42.63973" lon="1.98617">
        <ele>2513.8</ele>
        <time>2019-10-05T10:19:53.000Z</time>
      </trkpt>
      <trkpt lat="42.63976" lon="1.98619">
        <ele>2513.4</ele>
        <time>2019-10-05T10:20:01.000Z</time>
      </trkpt>
      <trkpt lat="42.6398" lon="1.98622">
        <ele>2512.6</ele>
        <time>2019-10-05T10:20:07.000Z</time>
      </trkpt>
      <trkpt lat="42.63984" lon="1.98624">
        <ele>2511.9</ele>
        <time>2019-10-05T10:20:09.000Z</time>
      </trkpt>
      <trkpt lat="42.63988" lon="1.98625">
        <ele>2511</ele>
        <time>2019-10-05T10:20:11.000Z</time>
      </trkpt>
      <trkpt lat="42.63993" lon="1.98626">
        <ele>2510.2</ele>
        <time>2019-10-05T10:20:13.000Z</time>
      </trkpt>
      <trkpt lat="42.63996" lon="1.98628">
        <ele>2509.7</ele>
        <time>2019-10-05T10:20:14.000Z</time>
      </trkpt>
      <trkpt lat="42.63999" lon="1.98631">
        <ele>2509.2</ele>
        <time>2019-10-05T10:20:15.000Z</time>
      </trkpt>
      <trkpt lat="42.64002" lon="1.98633">
        <ele>2508.7</ele>
        <time>2019-10-05T10:20:16.000Z</time>
      </trkpt>
      <trkpt lat="42.64005" lon="1.98635">
        <ele>2508.3</ele>
        <time>2019-10-05T10:20:17.000Z</time>
      </trkpt>
      <trkpt lat="42.64008" lon="1.98636">
        <ele>2508</ele>
        <time>2019-10-05T10:20:18.000Z</time>
      </trkpt>
      <trkpt lat="42.64012" lon="1.98638">
        <ele>2507.4</ele>
        <time>2019-10-05T10:20:20.000Z</time>
      </trkpt>
      <trkpt lat="42.64016" lon="1.9864">
        <ele>2506.8</ele>
        <time>2019-10-05T10:20:22.000Z</time>
      </trkpt>
      <trkpt lat="42.6402" lon="1.9864">
        <ele>2506.3</ele>
        <time>2019-10-05T10:20:25.000Z</time>
      </trkpt>
      <trkpt lat="42.64023" lon="1.98641">
        <ele>2505.9</ele>
        <time>2019-10-05T10:20:27.000Z</time>
      </trkpt>
      <trkpt lat="42.64027" lon="1.98642">
        <ele>2505.6</ele>
        <time>2019-10-05T10:20:29.000Z</time>
      </trkpt>
      <trkpt lat="42.64029" lon="1.98643">
        <ele>2505.3</ele>
        <time>2019-10-05T10:20:31.000Z</time>
      </trkpt>
      <trkpt lat="42.64032" lon="1.98644">
        <ele>2505</ele>
        <time>2019-10-05T10:20:33.000Z</time>
      </trkpt>
      <trkpt lat="42.64036" lon="1.98646">
        <ele>2504.7</ele>
        <time>2019-10-05T10:20:35.000Z</time>
      </trkpt>
      <trkpt lat="42.64038" lon="1.98648">
        <ele>2504.3</ele>
        <time>2019-10-05T10:20:36.000Z</time>
      </trkpt>
      <trkpt lat="42.64042" lon="1.98652">
        <ele>2503.6</ele>
        <time>2019-10-05T10:20:38.000Z</time>
      </trkpt>
      <trkpt lat="42.64046" lon="1.98656">
        <ele>2503</ele>
        <time>2019-10-05T10:20:40.000Z</time>
      </trkpt>
      <trkpt lat="42.64048" lon="1.98661">
        <ele>2502.6</ele>
        <time>2019-10-05T10:20:42.000Z</time>
      </trkpt>
      <trkpt lat="42.64047" lon="1.98665">
        <ele>2502</ele>
        <time>2019-10-05T10:20:45.000Z</time>
      </trkpt>
      <trkpt lat="42.64046" lon="1.98668">
        <ele>2501.4</ele>
        <time>2019-10-05T10:21:01.000Z</time>
      </trkpt>
      <trkpt lat="42.64047" lon="1.98672">
        <ele>2500.6</ele>
        <time>2019-10-05T10:21:05.000Z</time>
      </trkpt>
      <trkpt lat="42.64047" lon="1.98676">
        <ele>2500.6</ele>
        <time>2019-10-05T10:21:11.000Z</time>
      </trkpt>
      <trkpt lat="42.64045" lon="1.98678">
        <ele>2500</ele>
        <time>2019-10-05T10:21:25.000Z</time>
      </trkpt>
      <trkpt lat="42.64042" lon="1.98679">
        <ele>2500.1</ele>
        <time>2019-10-05T10:21:45.000Z</time>
      </trkpt>
      <trkpt lat="42.64039" lon="1.98679">
        <ele>2500.2</ele>
        <time>2019-10-05T10:21:50.000Z</time>
      </trkpt>
      <trkpt lat="42.64036" lon="1.98677">
        <ele>2500.3</ele>
        <time>2019-10-05T10:22:00.000Z</time>
      </trkpt>
      <trkpt lat="42.64033" lon="1.98678">
        <ele>2500.5</ele>
        <time>2019-10-05T10:22:03.000Z</time>
      </trkpt>
      <trkpt lat="42.64029" lon="1.98679">
        <ele>2500.7</ele>
        <time>2019-10-05T10:22:06.000Z</time>
      </trkpt>
      <trkpt lat="42.64026" lon="1.98679">
        <ele>2500.8</ele>
        <time>2019-10-05T10:22:09.000Z</time>
      </trkpt>
      <trkpt lat="42.64023" lon="1.9868">
        <ele>2501</ele>
        <time>2019-10-05T10:22:12.000Z</time>
      </trkpt>
      <trkpt lat="42.6402" lon="1.98683">
        <ele>2500.2</ele>
        <time>2019-10-05T10:22:18.000Z</time>
      </trkpt>
      <trkpt lat="42.64017" lon="1.98683">
        <ele>2500.3</ele>
        <time>2019-10-05T10:22:23.000Z</time>
      </trkpt>
      <trkpt lat="42.64015" lon="1.98684">
        <ele>2500.5</ele>
        <time>2019-10-05T10:22:26.000Z</time>
      </trkpt>
      <trkpt lat="42.64012" lon="1.98685">
        <ele>2500.5</ele>
        <time>2019-10-05T10:22:48.000Z</time>
      </trkpt>
      <trkpt lat="42.64008" lon="1.98685">
        <ele>2500.9</ele>
        <time>2019-10-05T10:22:51.000Z</time>
      </trkpt>
      <trkpt lat="42.64005" lon="1.98686">
        <ele>2500</ele>
        <time>2019-10-05T10:23:07.000Z</time>
      </trkpt>
      <trkpt lat="42.64003" lon="1.98688">
        <ele>2500</ele>
        <time>2019-10-05T10:23:10.000Z</time>
      </trkpt>
      <trkpt lat="42.64" lon="1.98687">
        <ele>2500.2</ele>
        <time>2019-10-05T10:23:21.000Z</time>
      </trkpt>
      <trkpt lat="42.63996" lon="1.98689">
        <ele>2500.4</ele>
        <time>2019-10-05T10:23:24.000Z</time>
      </trkpt>
      <trkpt lat="42.63992" lon="1.98691">
        <ele>2499.5</ele>
        <time>2019-10-05T10:23:26.000Z</time>
      </trkpt>
      <trkpt lat="42.63988" lon="1.98692">
        <ele>2499.6</ele>
        <time>2019-10-05T10:23:28.000Z</time>
      </trkpt>
      <trkpt lat="42.63986" lon="1.98694">
        <ele>2499.8</ele>
        <time>2019-10-05T10:23:30.000Z</time>
      </trkpt>
      <trkpt lat="42.63982" lon="1.98698">
        <ele>2496.9</ele>
        <time>2019-10-05T10:23:32.000Z</time>
      </trkpt>
      <trkpt lat="42.63978" lon="1.98702">
        <ele>2497</ele>
        <time>2019-10-05T10:23:34.000Z</time>
      </trkpt>
      <trkpt lat="42.63974" lon="1.98707">
        <ele>2495.4</ele>
        <time>2019-10-05T10:23:36.000Z</time>
      </trkpt>
      <trkpt lat="42.63972" lon="1.98712">
        <ele>2492.1</ele>
        <time>2019-10-05T10:23:38.000Z</time>
      </trkpt>
      <trkpt lat="42.6397" lon="1.98716">
        <ele>2490.4</ele>
        <time>2019-10-05T10:23:41.000Z</time>
      </trkpt>
      <trkpt lat="42.63968" lon="1.9872">
        <ele>2488.7</ele>
        <time>2019-10-05T10:23:43.000Z</time>
      </trkpt>
      <trkpt lat="42.63965" lon="1.98725">
        <ele>2487</ele>
        <time>2019-10-05T10:23:45.000Z</time>
      </trkpt>
      <trkpt lat="42.63963" lon="1.98729">
        <ele>2485.4</ele>
        <time>2019-10-05T10:23:47.000Z</time>
      </trkpt>
      <trkpt lat="42.6396" lon="1.98732">
        <ele>2485.6</ele>
        <time>2019-10-05T10:23:59.000Z</time>
      </trkpt>
      <trkpt lat="42.63958" lon="1.98738">
        <ele>2482.1</ele>
        <time>2019-10-05T10:24:01.000Z</time>
      </trkpt>
      <trkpt lat="42.63957" lon="1.98743">
        <ele>2480.4</ele>
        <time>2019-10-05T10:24:03.000Z</time>
      </trkpt>
      <trkpt lat="42.63957" lon="1.98747">
        <ele>2478.5</ele>
        <time>2019-10-05T10:24:05.000Z</time>
      </trkpt>
      <trkpt lat="42.63956" lon="1.98753">
        <ele>2476.6</ele>
        <time>2019-10-05T10:24:07.000Z</time>
      </trkpt>
      <trkpt lat="42.63957" lon="1.98759">
        <ele>2472.9</ele>
        <time>2019-10-05T10:24:09.000Z</time>
      </trkpt>
      <trkpt lat="42.63957" lon="1.98765">
        <ele>2471.1</ele>
        <time>2019-10-05T10:24:11.000Z</time>
      </trkpt>
      <trkpt lat="42.63958" lon="1.9877">
        <ele>2469.3</ele>
        <time>2019-10-05T10:24:13.000Z</time>
      </trkpt>
      <trkpt lat="42.6396" lon="1.98775">
        <ele>2466.1</ele>
        <time>2019-10-05T10:24:15.000Z</time>
      </trkpt>
      <trkpt lat="42.63963" lon="1.98779">
        <ele>2466</ele>
        <time>2019-10-05T10:24:17.000Z</time>
      </trkpt>
      <trkpt lat="42.63967" lon="1.98783">
        <ele>2464.2</ele>
        <time>2019-10-05T10:24:19.000Z</time>
      </trkpt>
      <trkpt lat="42.6397" lon="1.98787">
        <ele>2462.5</ele>
        <time>2019-10-05T10:24:21.000Z</time>
      </trkpt>
      <trkpt lat="42.63972" lon="1.98791">
        <ele>2460.8</ele>
        <time>2019-10-05T10:24:23.000Z</time>
      </trkpt>
      <trkpt lat="42.63975" lon="1.98794">
        <ele>2459.1</ele>
        <time>2019-10-05T10:24:25.000Z</time>
      </trkpt>
      <trkpt lat="42.63978" lon="1.98798">
        <ele>2457.3</ele>
        <time>2019-10-05T10:24:27.000Z</time>
      </trkpt>
      <trkpt lat="42.63982" lon="1.988">
        <ele>2457.3</ele>
        <time>2019-10-05T10:24:29.000Z</time>
      </trkpt>
      <trkpt lat="42.63985" lon="1.98801">
        <ele>2455.6</ele>
        <time>2019-10-05T10:24:31.000Z</time>
      </trkpt>
      <trkpt lat="42.63988" lon="1.98804">
        <ele>2455.6</ele>
        <time>2019-10-05T10:24:33.000Z</time>
      </trkpt>
      <trkpt lat="42.63991" lon="1.98805">
        <ele>2455.5</ele>
        <time>2019-10-05T10:24:36.000Z</time>
      </trkpt>
      <trkpt lat="42.63994" lon="1.98804">
        <ele>2455.4</ele>
        <time>2019-10-05T10:24:39.000Z</time>
      </trkpt>
      <trkpt lat="42.63998" lon="1.98803">
        <ele>2455.3</ele>
        <time>2019-10-05T10:24:42.000Z</time>
      </trkpt>
      <trkpt lat="42.64" lon="1.98802">
        <ele>2455.2</ele>
        <time>2019-10-05T10:24:43.000Z</time>
      </trkpt>
      <trkpt lat="42.64006" lon="1.98803">
        <ele>2455</ele>
        <time>2019-10-05T10:24:45.000Z</time>
      </trkpt>
      <trkpt lat="42.64009" lon="1.98803">
        <ele>2454.9</ele>
        <time>2019-10-05T10:24:46.000Z</time>
      </trkpt>
      <trkpt lat="42.64012" lon="1.98804">
        <ele>2454.8</ele>
        <time>2019-10-05T10:24:47.000Z</time>
      </trkpt>
      <trkpt lat="42.64015" lon="1.98805">
        <ele>2454.8</ele>
        <time>2019-10-05T10:24:48.000Z</time>
      </trkpt>
      <trkpt lat="42.64019" lon="1.98807">
        <ele>2453.2</ele>
        <time>2019-10-05T10:24:50.000Z</time>
      </trkpt>
      <trkpt lat="42.64023" lon="1.98808">
        <ele>2453.1</ele>
        <time>2019-10-05T10:24:52.000Z</time>
      </trkpt>
      <trkpt lat="42.64026" lon="1.9881">
        <ele>2453</ele>
        <time>2019-10-05T10:24:54.000Z</time>
      </trkpt>
      <trkpt lat="42.64029" lon="1.98813">
        <ele>2451.6</ele>
        <time>2019-10-05T10:24:56.000Z</time>
      </trkpt>
      <trkpt lat="42.64031" lon="1.98816">
        <ele>2450.2</ele>
        <time>2019-10-05T10:24:58.000Z</time>
      </trkpt>
      <trkpt lat="42.64033" lon="1.98821">
        <ele>2449</ele>
        <time>2019-10-05T10:25:01.000Z</time>
      </trkpt>
      <trkpt lat="42.64036" lon="1.98824">
        <ele>2447.7</ele>
        <time>2019-10-05T10:25:03.000Z</time>
      </trkpt>
      <trkpt lat="42.64037" lon="1.98829">
        <ele>2446.4</ele>
        <time>2019-10-05T10:25:05.000Z</time>
      </trkpt>
      <trkpt lat="42.64039" lon="1.98833">
        <ele>2445.2</ele>
        <time>2019-10-05T10:25:07.000Z</time>
      </trkpt>
      <trkpt lat="42.6404" lon="1.98836">
        <ele>2443.8</ele>
        <time>2019-10-05T10:25:11.000Z</time>
      </trkpt>
      <trkpt lat="42.64042" lon="1.98839">
        <ele>2443.8</ele>
        <time>2019-10-05T10:25:19.000Z</time>
      </trkpt>
      <trkpt lat="42.64045" lon="1.98842">
        <ele>2442.4</ele>
        <time>2019-10-05T10:25:22.000Z</time>
      </trkpt>
      <trkpt lat="42.64048" lon="1.98845">
        <ele>2440.9</ele>
        <time>2019-10-05T10:25:25.000Z</time>
      </trkpt>
      <trkpt lat="42.6405" lon="1.98848">
        <ele>2440.7</ele>
        <time>2019-10-05T10:25:27.000Z</time>
      </trkpt>
      <trkpt lat="42.64052" lon="1.98851">
        <ele>2439.5</ele>
        <time>2019-10-05T10:25:29.000Z</time>
      </trkpt>
      <trkpt lat="42.64054" lon="1.98854">
        <ele>2437.3</ele>
        <time>2019-10-05T10:25:31.000Z</time>
      </trkpt>
      <trkpt lat="42.64057" lon="1.98857">
        <ele>2435.8</ele>
        <time>2019-10-05T10:25:33.000Z</time>
      </trkpt>
      <trkpt lat="42.6406" lon="1.98861">
        <ele>2435.4</ele>
        <time>2019-10-05T10:25:36.000Z</time>
      </trkpt>
      <trkpt lat="42.64063" lon="1.98864">
        <ele>2433.9</ele>
        <time>2019-10-05T10:25:39.000Z</time>
      </trkpt>
      <trkpt lat="42.64065" lon="1.98868">
        <ele>2432.3</ele>
        <time>2019-10-05T10:25:41.000Z</time>
      </trkpt>
      <trkpt lat="42.64068" lon="1.98874">
        <ele>2430.1</ele>
        <time>2019-10-05T10:25:43.000Z</time>
      </trkpt>
      <trkpt lat="42.6407" lon="1.98879">
        <ele>2428.5</ele>
        <time>2019-10-05T10:25:45.000Z</time>
      </trkpt>
      <trkpt lat="42.64072" lon="1.98883">
        <ele>2428</ele>
        <time>2019-10-05T10:25:47.000Z</time>
      </trkpt>
      <trkpt lat="42.64074" lon="1.98887">
        <ele>2425.7</ele>
        <time>2019-10-05T10:25:49.000Z</time>
      </trkpt>
      <trkpt lat="42.64076" lon="1.98892">
        <ele>2424</ele>
        <time>2019-10-05T10:25:51.000Z</time>
      </trkpt>
      <trkpt lat="42.64079" lon="1.98895">
        <ele>2423.4</ele>
        <time>2019-10-05T10:25:53.000Z</time>
      </trkpt>
      <trkpt lat="42.64082" lon="1.98899">
        <ele>2421.7</ele>
        <time>2019-10-05T10:25:55.000Z</time>
      </trkpt>
      <trkpt lat="42.64085" lon="1.98903">
        <ele>2420.1</ele>
        <time>2019-10-05T10:25:57.000Z</time>
      </trkpt>
      <trkpt lat="42.64087" lon="1.98907">
        <ele>2418.4</ele>
        <time>2019-10-05T10:25:59.000Z</time>
      </trkpt>
      <trkpt lat="42.64089" lon="1.98911">
        <ele>2417.4</ele>
        <time>2019-10-05T10:26:01.000Z</time>
      </trkpt>
      <trkpt lat="42.64089" lon="1.98916">
        <ele>2416.3</ele>
        <time>2019-10-05T10:26:03.000Z</time>
      </trkpt>
      <trkpt lat="42.6409" lon="1.98922">
        <ele>2414.1</ele>
        <time>2019-10-05T10:26:05.000Z</time>
      </trkpt>
      <trkpt lat="42.64091" lon="1.98928">
        <ele>2412.3</ele>
        <time>2019-10-05T10:26:07.000Z</time>
      </trkpt>
      <trkpt lat="42.64091" lon="1.98932">
        <ele>2411.2</ele>
        <time>2019-10-05T10:26:08.000Z</time>
      </trkpt>
      <trkpt lat="42.6409" lon="1.98938">
        <ele>2410.8</ele>
        <time>2019-10-05T10:26:10.000Z</time>
      </trkpt>
      <trkpt lat="42.6409" lon="1.98945">
        <ele>2408.6</ele>
        <time>2019-10-05T10:26:12.000Z</time>
      </trkpt>
      <trkpt lat="42.64091" lon="1.98949">
        <ele>2406.9</ele>
        <time>2019-10-05T10:26:13.000Z</time>
      </trkpt>
      <trkpt lat="42.64091" lon="1.98953">
        <ele>2405.9</ele>
        <time>2019-10-05T10:26:14.000Z</time>
      </trkpt>
      <trkpt lat="42.64092" lon="1.98957">
        <ele>2404.9</ele>
        <time>2019-10-05T10:26:15.000Z</time>
      </trkpt>
      <trkpt lat="42.64093" lon="1.98961">
        <ele>2403.9</ele>
        <time>2019-10-05T10:26:16.000Z</time>
      </trkpt>
      <trkpt lat="42.64094" lon="1.98968">
        <ele>2402</ele>
        <time>2019-10-05T10:26:18.000Z</time>
      </trkpt>
      <trkpt lat="42.64095" lon="1.98972">
        <ele>2400.9</ele>
        <time>2019-10-05T10:26:20.000Z</time>
      </trkpt>
      <trkpt lat="42.64097" lon="1.98975">
        <ele>2398.9</ele>
        <time>2019-10-05T10:26:22.000Z</time>
      </trkpt>
      <trkpt lat="42.641" lon="1.98979">
        <ele>2397.8</ele>
        <time>2019-10-05T10:27:34.000Z</time>
      </trkpt>
      <trkpt lat="42.64101" lon="1.98984">
        <ele>2395.8</ele>
        <time>2019-10-05T10:27:36.000Z</time>
      </trkpt>
      <trkpt lat="42.64102" lon="1.98988">
        <ele>2394.8</ele>
        <time>2019-10-05T10:27:38.000Z</time>
      </trkpt>
      <trkpt lat="42.64104" lon="1.98993">
        <ele>2392.8</ele>
        <time>2019-10-05T10:27:40.000Z</time>
      </trkpt>
      <trkpt lat="42.64104" lon="1.98998">
        <ele>2391.8</ele>
        <time>2019-10-05T10:27:42.000Z</time>
      </trkpt>
      <trkpt lat="42.64104" lon="1.99003">
        <ele>2389.8</ele>
        <time>2019-10-05T10:27:44.000Z</time>
      </trkpt>
      <trkpt lat="42.64104" lon="1.99009">
        <ele>2388.7</ele>
        <time>2019-10-05T10:27:46.000Z</time>
      </trkpt>
      <trkpt lat="42.64103" lon="1.99014">
        <ele>2388.6</ele>
        <time>2019-10-05T10:27:48.000Z</time>
      </trkpt>
      <trkpt lat="42.64106" lon="1.99015">
        <ele>2387.6</ele>
        <time>2019-10-05T10:28:29.000Z</time>
      </trkpt>
      <trkpt lat="42.64106" lon="1.9902">
        <ele>2386.5</ele>
        <time>2019-10-05T10:28:59.000Z</time>
      </trkpt>
      <trkpt lat="42.64106" lon="1.99024">
        <ele>2384.3</ele>
        <time>2019-10-05T10:29:03.000Z</time>
      </trkpt>
      <trkpt lat="42.64108" lon="1.9903">
        <ele>2382.3</ele>
        <time>2019-10-05T10:29:05.000Z</time>
      </trkpt>
      <trkpt lat="42.64109" lon="1.99035">
        <ele>2381.2</ele>
        <time>2019-10-05T10:29:07.000Z</time>
      </trkpt>
      <trkpt lat="42.6411" lon="1.9904">
        <ele>2379.3</ele>
        <time>2019-10-05T10:29:09.000Z</time>
      </trkpt>
      <trkpt lat="42.64111" lon="1.99046">
        <ele>2377.3</ele>
        <time>2019-10-05T10:29:11.000Z</time>
      </trkpt>
      <trkpt lat="42.64112" lon="1.99052">
        <ele>2376.2</ele>
        <time>2019-10-05T10:29:13.000Z</time>
      </trkpt>
      <trkpt lat="42.64113" lon="1.99057">
        <ele>2374.2</ele>
        <time>2019-10-05T10:29:15.000Z</time>
      </trkpt>
      <trkpt lat="42.64114" lon="1.99063">
        <ele>2373.2</ele>
        <time>2019-10-05T10:29:17.000Z</time>
      </trkpt>
      <trkpt lat="42.64116" lon="1.99068">
        <ele>2371.7</ele>
        <time>2019-10-05T10:29:19.000Z</time>
      </trkpt>
      <trkpt lat="42.64117" lon="1.99072">
        <ele>2370.3</ele>
        <time>2019-10-05T10:29:21.000Z</time>
      </trkpt>
      <trkpt lat="42.64119" lon="1.99076">
        <ele>2370.2</ele>
        <time>2019-10-05T10:29:23.000Z</time>
      </trkpt>
      <trkpt lat="42.6412" lon="1.9908">
        <ele>2368.8</ele>
        <time>2019-10-05T10:29:25.000Z</time>
      </trkpt>
      <trkpt lat="42.64118" lon="1.99084">
        <ele>2369.5</ele>
        <time>2019-10-05T10:29:50.000Z</time>
      </trkpt>
      <trkpt lat="42.64117" lon="1.99087">
        <ele>2369.1</ele>
        <time>2019-10-05T10:30:01.000Z</time>
      </trkpt>
      <trkpt lat="42.64119" lon="1.99089">
        <ele>2367.9</ele>
        <time>2019-10-05T10:30:23.000Z</time>
      </trkpt>
      <trkpt lat="42.64121" lon="1.99092">
        <ele>2367.4</ele>
        <time>2019-10-05T10:30:28.000Z</time>
      </trkpt>
      <trkpt lat="42.64123" lon="1.99095">
        <ele>2365.2</ele>
        <time>2019-10-05T10:30:33.000Z</time>
      </trkpt>
      <trkpt lat="42.64122" lon="1.99099">
        <ele>2364.4</ele>
        <time>2019-10-05T10:30:47.000Z</time>
      </trkpt>
      <trkpt lat="42.64122" lon="1.99103">
        <ele>2365</ele>
        <time>2019-10-05T10:30:50.000Z</time>
      </trkpt>
      <trkpt lat="42.6412" lon="1.99106">
        <ele>2363.8</ele>
        <time>2019-10-05T10:30:54.000Z</time>
      </trkpt>
      <trkpt lat="42.64122" lon="1.9911">
        <ele>2362.6</ele>
        <time>2019-10-05T10:31:00.000Z</time>
      </trkpt>
      <trkpt lat="42.64122" lon="1.99114">
        <ele>2361.6</ele>
        <time>2019-10-05T10:31:06.000Z</time>
      </trkpt>
      <trkpt lat="42.64121" lon="1.99118">
        <ele>2361.4</ele>
        <time>2019-10-05T10:31:18.000Z</time>
      </trkpt>
      <trkpt lat="42.64122" lon="1.99123">
        <ele>2360.3</ele>
        <time>2019-10-05T10:31:20.000Z</time>
      </trkpt>
      <trkpt lat="42.64122" lon="1.99128">
        <ele>2358.1</ele>
        <time>2019-10-05T10:31:22.000Z</time>
      </trkpt>
      <trkpt lat="42.64122" lon="1.99133">
        <ele>2357.7</ele>
        <time>2019-10-05T10:31:24.000Z</time>
      </trkpt>
      <trkpt lat="42.64122" lon="1.99139">
        <ele>2357</ele>
        <time>2019-10-05T10:31:26.000Z</time>
      </trkpt>
      <trkpt lat="42.64123" lon="1.99143">
        <ele>2356</ele>
        <time>2019-10-05T10:31:28.000Z</time>
      </trkpt>
      <trkpt lat="42.64124" lon="1.99148">
        <ele>2355.2</ele>
        <time>2019-10-05T10:31:30.000Z</time>
      </trkpt>
      <trkpt lat="42.64126" lon="1.99153">
        <ele>2354.2</ele>
        <time>2019-10-05T10:31:32.000Z</time>
      </trkpt>
      <trkpt lat="42.64125" lon="1.99156">
        <ele>2353.4</ele>
        <time>2019-10-05T10:31:34.000Z</time>
      </trkpt>
      <trkpt lat="42.64125" lon="1.9916">
        <ele>2353</ele>
        <time>2019-10-05T10:31:36.000Z</time>
      </trkpt>
      <trkpt lat="42.64123" lon="1.99164">
        <ele>2352.2</ele>
        <time>2019-10-05T10:31:41.000Z</time>
      </trkpt>
      <trkpt lat="42.6412" lon="1.99166">
        <ele>2352.5</ele>
        <time>2019-10-05T10:31:49.000Z</time>
      </trkpt>
      <trkpt lat="42.64119" lon="1.99169">
        <ele>2351.7</ele>
        <time>2019-10-05T10:32:17.000Z</time>
      </trkpt>
      <trkpt lat="42.64123" lon="1.99173">
        <ele>2350.7</ele>
        <time>2019-10-05T10:32:38.000Z</time>
      </trkpt>
      <trkpt lat="42.64126" lon="1.99174">
        <ele>2350.5</ele>
        <time>2019-10-05T10:32:39.000Z</time>
      </trkpt>
      <trkpt lat="42.64129" lon="1.99176">
        <ele>2349.6</ele>
        <time>2019-10-05T10:32:40.000Z</time>
      </trkpt>
      <trkpt lat="42.64131" lon="1.99178">
        <ele>2349.6</ele>
        <time>2019-10-05T10:32:41.000Z</time>
      </trkpt>
      <trkpt lat="42.64134" lon="1.99181">
        <ele>2348.9</ele>
        <time>2019-10-05T10:32:42.000Z</time>
      </trkpt>
      <trkpt lat="42.64136" lon="1.99184">
        <ele>2348.1</ele>
        <time>2019-10-05T10:32:43.000Z</time>
      </trkpt>
      <trkpt lat="42.64139" lon="1.99188">
        <ele>2347.4</ele>
        <time>2019-10-05T10:32:44.000Z</time>
      </trkpt>
      <trkpt lat="42.64141" lon="1.99191">
        <ele>2347.4</ele>
        <time>2019-10-05T10:32:45.000Z</time>
      </trkpt>
      <trkpt lat="42.64143" lon="1.99195">
        <ele>2346.6</ele>
        <time>2019-10-05T10:32:46.000Z</time>
      </trkpt>
      <trkpt lat="42.64145" lon="1.99198">
        <ele>2345.8</ele>
        <time>2019-10-05T10:32:47.000Z</time>
      </trkpt>
      <trkpt lat="42.64146" lon="1.99205">
        <ele>2344.7</ele>
        <time>2019-10-05T10:32:49.000Z</time>
      </trkpt>
      <trkpt lat="42.64147" lon="1.9921">
        <ele>2344.2</ele>
        <time>2019-10-05T10:32:50.000Z</time>
      </trkpt>
      <trkpt lat="42.64149" lon="1.99215">
        <ele>2343.5</ele>
        <time>2019-10-05T10:32:51.000Z</time>
      </trkpt>
      <trkpt lat="42.6415" lon="1.99219">
        <ele>2343</ele>
        <time>2019-10-05T10:32:52.000Z</time>
      </trkpt>
      <trkpt lat="42.64152" lon="1.99221">
        <ele>2342.9</ele>
        <time>2019-10-05T10:32:53.000Z</time>
      </trkpt>
      <trkpt lat="42.64156" lon="1.99226">
        <ele>2341.9</ele>
        <time>2019-10-05T10:32:55.000Z</time>
      </trkpt>
      <trkpt lat="42.64159" lon="1.99231">
        <ele>2341.4</ele>
        <time>2019-10-05T10:32:57.000Z</time>
      </trkpt>
      <trkpt lat="42.64161" lon="1.99234">
        <ele>2341.4</ele>
        <time>2019-10-05T10:32:59.000Z</time>
      </trkpt>
      <trkpt lat="42.64163" lon="1.99238">
        <ele>2341.1</ele>
        <time>2019-10-05T10:33:01.000Z</time>
      </trkpt>
      <trkpt lat="42.64165" lon="1.99243">
        <ele>2340.6</ele>
        <time>2019-10-05T10:33:03.000Z</time>
      </trkpt>
      <trkpt lat="42.64168" lon="1.99247">
        <ele>2340.3</ele>
        <time>2019-10-05T10:33:05.000Z</time>
      </trkpt>
      <trkpt lat="42.6417" lon="1.99251">
        <ele>2340</ele>
        <time>2019-10-05T10:33:07.000Z</time>
      </trkpt>
      <trkpt lat="42.64172" lon="1.99254">
        <ele>2339.4</ele>
        <time>2019-10-05T10:33:09.000Z</time>
      </trkpt>
      <trkpt lat="42.64175" lon="1.99257">
        <ele>2339.2</ele>
        <time>2019-10-05T10:33:11.000Z</time>
      </trkpt>
      <trkpt lat="42.64177" lon="1.99259">
        <ele>2339.4</ele>
        <time>2019-10-05T10:33:15.000Z</time>
      </trkpt>
      <trkpt lat="42.64179" lon="1.99264">
        <ele>2338.9</ele>
        <time>2019-10-05T10:33:59.000Z</time>
      </trkpt>
      <trkpt lat="42.64181" lon="1.99268">
        <ele>2338.7</ele>
        <time>2019-10-05T10:34:01.000Z</time>
      </trkpt>
      <trkpt lat="42.64182" lon="1.99271">
        <ele>2338.2</ele>
        <time>2019-10-05T10:34:03.000Z</time>
      </trkpt>
      <trkpt lat="42.64181" lon="1.99276">
        <ele>2337.8</ele>
        <time>2019-10-05T10:34:06.000Z</time>
      </trkpt>
      <trkpt lat="42.64181" lon="1.99281">
        <ele>2337.4</ele>
        <time>2019-10-05T10:34:08.000Z</time>
      </trkpt>
      <trkpt lat="42.64181" lon="1.99285">
        <ele>2336.9</ele>
        <time>2019-10-05T10:34:10.000Z</time>
      </trkpt>
      <trkpt lat="42.64182" lon="1.9929">
        <ele>2336.8</ele>
        <time>2019-10-05T10:34:13.000Z</time>
      </trkpt>
      <trkpt lat="42.64179" lon="1.9929">
        <ele>2336.7</ele>
        <time>2019-10-05T10:34:23.000Z</time>
      </trkpt>
      <trkpt lat="42.64177" lon="1.99288">
        <ele>2336.5</ele>
        <time>2019-10-05T10:34:40.000Z</time>
      </trkpt>
      <trkpt lat="42.64173" lon="1.99287">
        <ele>2336.3</ele>
        <time>2019-10-05T10:34:43.000Z</time>
      </trkpt>
      <trkpt lat="42.6417" lon="1.99284">
        <ele>2336.3</ele>
        <time>2019-10-05T10:34:45.000Z</time>
      </trkpt>
      <trkpt lat="42.64168" lon="1.99281">
        <ele>2336.3</ele>
        <time>2019-10-05T10:34:48.000Z</time>
      </trkpt>
      <trkpt lat="42.64165" lon="1.99279">
        <ele>2336.5</ele>
        <time>2019-10-05T10:34:56.000Z</time>
      </trkpt>
      <trkpt lat="42.64162" lon="1.99278">
        <ele>2336.6</ele>
        <time>2019-10-05T10:35:01.000Z</time>
      </trkpt>
      <trkpt lat="42.64158" lon="1.99278">
        <ele>2336.7</ele>
        <time>2019-10-05T10:35:09.000Z</time>
      </trkpt>
      <trkpt lat="42.64156" lon="1.99276">
        <ele>2336.7</ele>
        <time>2019-10-05T10:35:11.000Z</time>
      </trkpt>
      <trkpt lat="42.64153" lon="1.99273">
        <ele>2336.8</ele>
        <time>2019-10-05T10:35:18.000Z</time>
      </trkpt>
      <trkpt lat="42.64151" lon="1.99272">
        <ele>2336.9</ele>
        <time>2019-10-05T10:35:20.000Z</time>
      </trkpt>
      <trkpt lat="42.64145" lon="1.99272">
        <ele>2336.8</ele>
        <time>2019-10-05T10:35:22.000Z</time>
      </trkpt>
      <trkpt lat="42.64141" lon="1.99272">
        <ele>2336.6</ele>
        <time>2019-10-05T10:35:24.000Z</time>
      </trkpt>
      <trkpt lat="42.64137" lon="1.99271">
        <ele>2336.7</ele>
        <time>2019-10-05T10:35:26.000Z</time>
      </trkpt>
      <trkpt lat="42.64134" lon="1.99271">
        <ele>2336.8</ele>
        <time>2019-10-05T10:35:28.000Z</time>
      </trkpt>
      <trkpt lat="42.64131" lon="1.99274">
        <ele>2336.6</ele>
        <time>2019-10-05T10:35:31.000Z</time>
      </trkpt>
      <trkpt lat="42.64131" lon="1.99278">
        <ele>2335.9</ele>
        <time>2019-10-05T10:35:33.000Z</time>
      </trkpt>
      <trkpt lat="42.64129" lon="1.99283">
        <ele>2335.1</ele>
        <time>2019-10-05T10:35:35.000Z</time>
      </trkpt>
      <trkpt lat="42.64127" lon="1.99286">
        <ele>2334.4</ele>
        <time>2019-10-05T10:35:36.000Z</time>
      </trkpt>
      <trkpt lat="42.64125" lon="1.99288">
        <ele>2333.6</ele>
        <time>2019-10-05T10:35:37.000Z</time>
      </trkpt>
      <trkpt lat="42.64122" lon="1.9929">
        <ele>2332.5</ele>
        <time>2019-10-05T10:35:38.000Z</time>
      </trkpt>
      <trkpt lat="42.64119" lon="1.99292">
        <ele>2331.5</ele>
        <time>2019-10-05T10:35:39.000Z</time>
      </trkpt>
      <trkpt lat="42.64117" lon="1.99293">
        <ele>2330.8</ele>
        <time>2019-10-05T10:35:40.000Z</time>
      </trkpt>
      <trkpt lat="42.64113" lon="1.99296">
        <ele>2329.7</ele>
        <time>2019-10-05T10:35:42.000Z</time>
      </trkpt>
      <trkpt lat="42.6411" lon="1.99298">
        <ele>2329.2</ele>
        <time>2019-10-05T10:35:44.000Z</time>
      </trkpt>
      <trkpt lat="42.64108" lon="1.993">
        <ele>2328.6</ele>
        <time>2019-10-05T10:36:07.000Z</time>
      </trkpt>
      <trkpt lat="42.64105" lon="1.993">
        <ele>2327.9</ele>
        <time>2019-10-05T10:36:11.000Z</time>
      </trkpt>
      <trkpt lat="42.64102" lon="1.99302">
        <ele>2327.1</ele>
        <time>2019-10-05T10:36:16.000Z</time>
      </trkpt>
      <trkpt lat="42.64099" lon="1.99303">
        <ele>2326.4</ele>
        <time>2019-10-05T10:36:25.000Z</time>
      </trkpt>
      <trkpt lat="42.64097" lon="1.99307">
        <ele>2325.4</ele>
        <time>2019-10-05T10:36:27.000Z</time>
      </trkpt>
      <trkpt lat="42.64095" lon="1.99311">
        <ele>2324.3</ele>
        <time>2019-10-05T10:36:29.000Z</time>
      </trkpt>
      <trkpt lat="42.6409" lon="1.99315">
        <ele>2322.8</ele>
        <time>2019-10-05T10:36:31.000Z</time>
      </trkpt>
      <trkpt lat="42.64088" lon="1.99318">
        <ele>2321.9</ele>
        <time>2019-10-05T10:36:32.000Z</time>
      </trkpt>
      <trkpt lat="42.64085" lon="1.99322">
        <ele>2320.5</ele>
        <time>2019-10-05T10:36:33.000Z</time>
      </trkpt>
      <trkpt lat="42.64083" lon="1.99325">
        <ele>2319.3</ele>
        <time>2019-10-05T10:36:34.000Z</time>
      </trkpt>
      <trkpt lat="42.64079" lon="1.99328">
        <ele>2317.8</ele>
        <time>2019-10-05T10:36:36.000Z</time>
      </trkpt>
      <trkpt lat="42.64076" lon="1.99332">
        <ele>2316.5</ele>
        <time>2019-10-05T10:36:39.000Z</time>
      </trkpt>
      <trkpt lat="42.64074" lon="1.99337">
        <ele>2315.1</ele>
        <time>2019-10-05T10:36:41.000Z</time>
      </trkpt>
      <trkpt lat="42.64072" lon="1.99341">
        <ele>2314.4</ele>
        <time>2019-10-05T10:36:42.000Z</time>
      </trkpt>
      <trkpt lat="42.6407" lon="1.99344">
        <ele>2313.5</ele>
        <time>2019-10-05T10:36:43.000Z</time>
      </trkpt>
      <trkpt lat="42.64067" lon="1.99347">
        <ele>2312.7</ele>
        <time>2019-10-05T10:36:45.000Z</time>
      </trkpt>
      <trkpt lat="42.64064" lon="1.99347">
        <ele>2312.1</ele>
        <time>2019-10-05T10:36:47.000Z</time>
      </trkpt>
      <trkpt lat="42.6406" lon="1.99347">
        <ele>2311.6</ele>
        <time>2019-10-05T10:36:49.000Z</time>
      </trkpt>
      <trkpt lat="42.64057" lon="1.99347">
        <ele>2311.3</ele>
        <time>2019-10-05T10:36:50.000Z</time>
      </trkpt>
      <trkpt lat="42.64054" lon="1.99349">
        <ele>2311</ele>
        <time>2019-10-05T10:36:51.000Z</time>
      </trkpt>
      <trkpt lat="42.64051" lon="1.99351">
        <ele>2310.8</ele>
        <time>2019-10-05T10:36:52.000Z</time>
      </trkpt>
      <trkpt lat="42.64048" lon="1.99355">
        <ele>2310</ele>
        <time>2019-10-05T10:36:53.000Z</time>
      </trkpt>
      <trkpt lat="42.64046" lon="1.9936">
        <ele>2308.9</ele>
        <time>2019-10-05T10:36:54.000Z</time>
      </trkpt>
      <trkpt lat="42.64045" lon="1.99365">
        <ele>2307.7</ele>
        <time>2019-10-05T10:36:55.000Z</time>
      </trkpt>
      <trkpt lat="42.64045" lon="1.99369">
        <ele>2307.7</ele>
        <time>2019-10-05T10:36:56.000Z</time>
      </trkpt>
      <trkpt lat="42.64045" lon="1.99374">
        <ele>2307</ele>
        <time>2019-10-05T10:36:57.000Z</time>
      </trkpt>
      <trkpt lat="42.64046" lon="1.9938">
        <ele>2305.9</ele>
        <time>2019-10-05T10:36:59.000Z</time>
      </trkpt>
      <trkpt lat="42.64047" lon="1.99384">
        <ele>2305.1</ele>
        <time>2019-10-05T10:37:13.000Z</time>
      </trkpt>
      <trkpt lat="42.64048" lon="1.99389">
        <ele>2304.2</ele>
        <time>2019-10-05T10:37:15.000Z</time>
      </trkpt>
      <trkpt lat="42.6405" lon="1.99397">
        <ele>2302.8</ele>
        <time>2019-10-05T10:37:17.000Z</time>
      </trkpt>
      <trkpt lat="42.64051" lon="1.994">
        <ele>2302.1</ele>
        <time>2019-10-05T10:37:18.000Z</time>
      </trkpt>
      <trkpt lat="42.64051" lon="1.99405">
        <ele>2300.8</ele>
        <time>2019-10-05T10:37:19.000Z</time>
      </trkpt>
      <trkpt lat="42.64052" lon="1.99411">
        <ele>2299.5</ele>
        <time>2019-10-05T10:37:20.000Z</time>
      </trkpt>
      <trkpt lat="42.64052" lon="1.99414">
        <ele>2298.8</ele>
        <time>2019-10-05T10:37:21.000Z</time>
      </trkpt>
      <trkpt lat="42.64053" lon="1.99421">
        <ele>2297.7</ele>
        <time>2019-10-05T10:37:23.000Z</time>
      </trkpt>
      <trkpt lat="42.64055" lon="1.99427">
        <ele>2296.1</ele>
        <time>2019-10-05T10:37:25.000Z</time>
      </trkpt>
      <trkpt lat="42.64057" lon="1.99431">
        <ele>2295.1</ele>
        <time>2019-10-05T10:37:26.000Z</time>
      </trkpt>
      <trkpt lat="42.64059" lon="1.99434">
        <ele>2294</ele>
        <time>2019-10-05T10:37:27.000Z</time>
      </trkpt>
      <trkpt lat="42.64062" lon="1.99438">
        <ele>2293</ele>
        <time>2019-10-05T10:37:28.000Z</time>
      </trkpt>
      <trkpt lat="42.64065" lon="1.99442">
        <ele>2291.9</ele>
        <time>2019-10-05T10:37:29.000Z</time>
      </trkpt>
      <trkpt lat="42.64067" lon="1.99446">
        <ele>2291.3</ele>
        <time>2019-10-05T10:37:30.000Z</time>
      </trkpt>
      <trkpt lat="42.6407" lon="1.9945">
        <ele>2290.7</ele>
        <time>2019-10-05T10:37:31.000Z</time>
      </trkpt>
      <trkpt lat="42.64072" lon="1.99454">
        <ele>2289.9</ele>
        <time>2019-10-05T10:37:32.000Z</time>
      </trkpt>
      <trkpt lat="42.64073" lon="1.99458">
        <ele>2289.2</ele>
        <time>2019-10-05T10:37:33.000Z</time>
      </trkpt>
      <trkpt lat="42.64075" lon="1.99462">
        <ele>2288.4</ele>
        <time>2019-10-05T10:37:34.000Z</time>
      </trkpt>
      <trkpt lat="42.64076" lon="1.99466">
        <ele>2287.6</ele>
        <time>2019-10-05T10:37:35.000Z</time>
      </trkpt>
      <trkpt lat="42.64077" lon="1.9947">
        <ele>2286.8</ele>
        <time>2019-10-05T10:37:36.000Z</time>
      </trkpt>
      <trkpt lat="42.64078" lon="1.99475">
        <ele>2286</ele>
        <time>2019-10-05T10:37:37.000Z</time>
      </trkpt>
      <trkpt lat="42.64078" lon="1.9948">
        <ele>2285.1</ele>
        <time>2019-10-05T10:37:38.000Z</time>
      </trkpt>
      <trkpt lat="42.64078" lon="1.99484">
        <ele>2284.4</ele>
        <time>2019-10-05T10:37:39.000Z</time>
      </trkpt>
      <trkpt lat="42.64079" lon="1.99487">
        <ele>2283.7</ele>
        <time>2019-10-05T10:37:40.000Z</time>
      </trkpt>
      <trkpt lat="42.6408" lon="1.99494">
        <ele>2282.4</ele>
        <time>2019-10-05T10:37:42.000Z</time>
      </trkpt>
      <trkpt lat="42.64081" lon="1.995">
        <ele>2281.2</ele>
        <time>2019-10-05T10:37:44.000Z</time>
      </trkpt>
      <trkpt lat="42.64082" lon="1.99504">
        <ele>2280.6</ele>
        <time>2019-10-05T10:37:45.000Z</time>
      </trkpt>
      <trkpt lat="42.64083" lon="1.99508">
        <ele>2280.1</ele>
        <time>2019-10-05T10:37:46.000Z</time>
      </trkpt>
      <trkpt lat="42.64085" lon="1.99514">
        <ele>2278.9</ele>
        <time>2019-10-05T10:37:48.000Z</time>
      </trkpt>
      <trkpt lat="42.64085" lon="1.99519">
        <ele>2277.8</ele>
        <time>2019-10-05T10:37:50.000Z</time>
      </trkpt>
      <trkpt lat="42.64086" lon="1.99523">
        <ele>2276.9</ele>
        <time>2019-10-05T10:37:52.000Z</time>
      </trkpt>
      <trkpt lat="42.64089" lon="1.99529">
        <ele>2276.4</ele>
        <time>2019-10-05T10:37:54.000Z</time>
      </trkpt>
      <trkpt lat="42.6409" lon="1.99532">
        <ele>2275.7</ele>
        <time>2019-10-05T10:37:55.000Z</time>
      </trkpt>
      <trkpt lat="42.64092" lon="1.99536">
        <ele>2275.2</ele>
        <time>2019-10-05T10:37:56.000Z</time>
      </trkpt>
      <trkpt lat="42.64093" lon="1.9954">
        <ele>2274.5</ele>
        <time>2019-10-05T10:37:57.000Z</time>
      </trkpt>
      <trkpt lat="42.64094" lon="1.99544">
        <ele>2274</ele>
        <time>2019-10-05T10:37:58.000Z</time>
      </trkpt>
      <trkpt lat="42.64096" lon="1.99548">
        <ele>2274</ele>
        <time>2019-10-05T10:37:59.000Z</time>
      </trkpt>
      <trkpt lat="42.64097" lon="1.99552">
        <ele>2273.5</ele>
        <time>2019-10-05T10:38:00.000Z</time>
      </trkpt>
      <trkpt lat="42.64099" lon="1.99556">
        <ele>2272.8</ele>
        <time>2019-10-05T10:38:01.000Z</time>
      </trkpt>
      <trkpt lat="42.64101" lon="1.99559">
        <ele>2272.3</ele>
        <time>2019-10-05T10:38:02.000Z</time>
      </trkpt>
      <trkpt lat="42.64104" lon="1.99561">
        <ele>2271.8</ele>
        <time>2019-10-05T10:38:03.000Z</time>
      </trkpt>
      <trkpt lat="42.64107" lon="1.99564">
        <ele>2272.1</ele>
        <time>2019-10-05T10:38:04.000Z</time>
      </trkpt>
      <trkpt lat="42.64109" lon="1.99568">
        <ele>2271.8</ele>
        <time>2019-10-05T10:38:05.000Z</time>
      </trkpt>
      <trkpt lat="42.64112" lon="1.99573">
        <ele>2271.2</ele>
        <time>2019-10-05T10:38:06.000Z</time>
      </trkpt>
      <trkpt lat="42.64113" lon="1.99578">
        <ele>2271</ele>
        <time>2019-10-05T10:38:07.000Z</time>
      </trkpt>
      <trkpt lat="42.64115" lon="1.99582">
        <ele>2270.4</ele>
        <time>2019-10-05T10:38:08.000Z</time>
      </trkpt>
      <trkpt lat="42.64116" lon="1.99585">
        <ele>2270.2</ele>
        <time>2019-10-05T10:38:09.000Z</time>
      </trkpt>
      <trkpt lat="42.6412" lon="1.99588">
        <ele>2269.9</ele>
        <time>2019-10-05T10:38:11.000Z</time>
      </trkpt>
      <trkpt lat="42.64123" lon="1.99591">
        <ele>2269.6</ele>
        <time>2019-10-05T10:38:14.000Z</time>
      </trkpt>
      <trkpt lat="42.64126" lon="1.99594">
        <ele>2269.9</ele>
        <time>2019-10-05T10:38:16.000Z</time>
      </trkpt>
      <trkpt lat="42.6413" lon="1.99595">
        <ele>2269.5</ele>
        <time>2019-10-05T10:38:18.000Z</time>
      </trkpt>
      <trkpt lat="42.64133" lon="1.99597">
        <ele>2269.8</ele>
        <time>2019-10-05T10:38:20.000Z</time>
      </trkpt>
      <trkpt lat="42.64136" lon="1.99601">
        <ele>2269.5</ele>
        <time>2019-10-05T10:38:22.000Z</time>
      </trkpt>
      <trkpt lat="42.64139" lon="1.99605">
        <ele>2269.3</ele>
        <time>2019-10-05T10:38:24.000Z</time>
      </trkpt>
      <trkpt lat="42.64142" lon="1.99607">
        <ele>2269.8</ele>
        <time>2019-10-05T10:38:25.000Z</time>
      </trkpt>
      <trkpt lat="42.64144" lon="1.9961">
        <ele>2269.2</ele>
        <time>2019-10-05T10:38:26.000Z</time>
      </trkpt>
      <trkpt lat="42.64145" lon="1.99614">
        <ele>2269.1</ele>
        <time>2019-10-05T10:38:27.000Z</time>
      </trkpt>
      <trkpt lat="42.64147" lon="1.99617">
        <ele>2268.5</ele>
        <time>2019-10-05T10:38:28.000Z</time>
      </trkpt>
      <trkpt lat="42.64148" lon="1.99621">
        <ele>2268.5</ele>
        <time>2019-10-05T10:38:30.000Z</time>
      </trkpt>
      <trkpt lat="42.64148" lon="1.99626">
        <ele>2267.9</ele>
        <time>2019-10-05T10:38:32.000Z</time>
      </trkpt>
      <trkpt lat="42.64148" lon="1.99631">
        <ele>2267.4</ele>
        <time>2019-10-05T10:38:34.000Z</time>
      </trkpt>
      <trkpt lat="42.64149" lon="1.99636">
        <ele>2266.9</ele>
        <time>2019-10-05T10:38:36.000Z</time>
      </trkpt>
      <trkpt lat="42.64147" lon="1.99641">
        <ele>2266.4</ele>
        <time>2019-10-05T10:38:38.000Z</time>
      </trkpt>
      <trkpt lat="42.64146" lon="1.99645">
        <ele>2265.4</ele>
        <time>2019-10-05T10:38:39.000Z</time>
      </trkpt>
      <trkpt lat="42.64145" lon="1.99649">
        <ele>2264.8</ele>
        <time>2019-10-05T10:38:40.000Z</time>
      </trkpt>
      <trkpt lat="42.64144" lon="1.99653">
        <ele>2263.8</ele>
        <time>2019-10-05T10:38:41.000Z</time>
      </trkpt>
      <trkpt lat="42.64142" lon="1.99658">
        <ele>2263.3</ele>
        <time>2019-10-05T10:38:43.000Z</time>
      </trkpt>
      <trkpt lat="42.6414" lon="1.99663">
        <ele>2262.3</ele>
        <time>2019-10-05T10:38:45.000Z</time>
      </trkpt>
      <trkpt lat="42.64139" lon="1.99666">
        <ele>2261.7</ele>
        <time>2019-10-05T10:38:47.000Z</time>
      </trkpt>
      <trkpt lat="42.64138" lon="1.9967">
        <ele>2261.1</ele>
        <time>2019-10-05T10:38:49.000Z</time>
      </trkpt>
      <trkpt lat="42.64137" lon="1.99674">
        <ele>2260.1</ele>
        <time>2019-10-05T10:38:52.000Z</time>
      </trkpt>
      <trkpt lat="42.64137" lon="1.99679">
        <ele>2259.5</ele>
        <time>2019-10-05T10:38:55.000Z</time>
      </trkpt>
      <trkpt lat="42.64139" lon="1.99685">
        <ele>2258.8</ele>
        <time>2019-10-05T10:38:57.000Z</time>
      </trkpt>
      <trkpt lat="42.64143" lon="1.9969">
        <ele>2258.7</ele>
        <time>2019-10-05T10:38:59.000Z</time>
      </trkpt>
      <trkpt lat="42.64146" lon="1.99695">
        <ele>2258.5</ele>
        <time>2019-10-05T10:39:01.000Z</time>
      </trkpt>
      <trkpt lat="42.64148" lon="1.997">
        <ele>2258.4</ele>
        <time>2019-10-05T10:39:03.000Z</time>
      </trkpt>
      <trkpt lat="42.6415" lon="1.99703">
        <ele>2257.7</ele>
        <time>2019-10-05T10:39:05.000Z</time>
      </trkpt>
      <trkpt lat="42.64151" lon="1.99708">
        <ele>2257.6</ele>
        <time>2019-10-05T10:39:07.000Z</time>
      </trkpt>
      <trkpt lat="42.64151" lon="1.99712">
        <ele>2257</ele>
        <time>2019-10-05T10:39:08.000Z</time>
      </trkpt>
      <trkpt lat="42.64151" lon="1.99717">
        <ele>2256.5</ele>
        <time>2019-10-05T10:39:09.000Z</time>
      </trkpt>
      <trkpt lat="42.64151" lon="1.99724">
        <ele>2255.3</ele>
        <time>2019-10-05T10:39:11.000Z</time>
      </trkpt>
      <trkpt lat="42.6415" lon="1.99729">
        <ele>2254.3</ele>
        <time>2019-10-05T10:39:12.000Z</time>
      </trkpt>
      <trkpt lat="42.6415" lon="1.99733">
        <ele>2253.7</ele>
        <time>2019-10-05T10:39:13.000Z</time>
      </trkpt>
      <trkpt lat="42.64149" lon="1.99737">
        <ele>2253</ele>
        <time>2019-10-05T10:39:14.000Z</time>
      </trkpt>
      <trkpt lat="42.64149" lon="1.99741">
        <ele>2253</ele>
        <time>2019-10-05T10:39:15.000Z</time>
      </trkpt>
      <trkpt lat="42.64149" lon="1.99746">
        <ele>2251.7</ele>
        <time>2019-10-05T10:39:17.000Z</time>
      </trkpt>
      <trkpt lat="42.6415" lon="1.9975">
        <ele>2251.1</ele>
        <time>2019-10-05T10:39:28.000Z</time>
      </trkpt>
      <trkpt lat="42.64149" lon="1.99754">
        <ele>2251.1</ele>
        <time>2019-10-05T10:39:54.000Z</time>
      </trkpt>
      <trkpt lat="42.64147" lon="1.99758">
        <ele>2250.2</ele>
        <time>2019-10-05T10:39:57.000Z</time>
      </trkpt>
      <trkpt lat="42.64145" lon="1.99761">
        <ele>2249.6</ele>
        <time>2019-10-05T10:39:59.000Z</time>
      </trkpt>
      <trkpt lat="42.64143" lon="1.99764">
        <ele>2248.8</ele>
        <time>2019-10-05T10:40:01.000Z</time>
      </trkpt>
      <trkpt lat="42.64141" lon="1.99767">
        <ele>2248.2</ele>
        <time>2019-10-05T10:40:06.000Z</time>
      </trkpt>
      <trkpt lat="42.64139" lon="1.99771">
        <ele>2248.1</ele>
        <time>2019-10-05T10:40:37.000Z</time>
      </trkpt>
      <trkpt lat="42.64136" lon="1.99773">
        <ele>2247.5</ele>
        <time>2019-10-05T10:40:40.000Z</time>
      </trkpt>
      <trkpt lat="42.64132" lon="1.99772">
        <ele>2247.5</ele>
        <time>2019-10-05T10:40:43.000Z</time>
      </trkpt>
      <trkpt lat="42.6413" lon="1.99775">
        <ele>2247.6</ele>
        <time>2019-10-05T10:40:47.000Z</time>
      </trkpt>
      <trkpt lat="42.64128" lon="1.99779">
        <ele>2247.3</ele>
        <time>2019-10-05T10:40:49.000Z</time>
      </trkpt>
      <trkpt lat="42.64129" lon="1.99783">
        <ele>2246.7</ele>
        <time>2019-10-05T10:40:52.000Z</time>
      </trkpt>
      <trkpt lat="42.6413" lon="1.99786">
        <ele>2246.2</ele>
        <time>2019-10-05T10:40:55.000Z</time>
      </trkpt>
      <trkpt lat="42.64133" lon="1.99791">
        <ele>2245.6</ele>
        <time>2019-10-05T10:40:57.000Z</time>
      </trkpt>
      <trkpt lat="42.64137" lon="1.99795">
        <ele>2245</ele>
        <time>2019-10-05T10:40:59.000Z</time>
      </trkpt>
      <trkpt lat="42.6414" lon="1.99798">
        <ele>2244.4</ele>
        <time>2019-10-05T10:41:00.000Z</time>
      </trkpt>
      <trkpt lat="42.64143" lon="1.998">
        <ele>2244.2</ele>
        <time>2019-10-05T10:41:01.000Z</time>
      </trkpt>
      <trkpt lat="42.64145" lon="1.99802">
        <ele>2243.6</ele>
        <time>2019-10-05T10:41:02.000Z</time>
      </trkpt>
      <trkpt lat="42.64149" lon="1.99806">
        <ele>2243</ele>
        <time>2019-10-05T10:41:04.000Z</time>
      </trkpt>
      <trkpt lat="42.64152" lon="1.9981">
        <ele>2242.5</ele>
        <time>2019-10-05T10:41:06.000Z</time>
      </trkpt>
      <trkpt lat="42.64155" lon="1.99815">
        <ele>2241.9</ele>
        <time>2019-10-05T10:41:08.000Z</time>
      </trkpt>
      <trkpt lat="42.64157" lon="1.99818">
        <ele>2241.3</ele>
        <time>2019-10-05T10:41:09.000Z</time>
      </trkpt>
      <trkpt lat="42.6416" lon="1.99823">
        <ele>2240.8</ele>
        <time>2019-10-05T10:41:11.000Z</time>
      </trkpt>
      <trkpt lat="42.64162" lon="1.99829">
        <ele>2240.1</ele>
        <time>2019-10-05T10:41:13.000Z</time>
      </trkpt>
      <trkpt lat="42.64163" lon="1.99833">
        <ele>2239.6</ele>
        <time>2019-10-05T10:41:14.000Z</time>
      </trkpt>
      <trkpt lat="42.64164" lon="1.99836">
        <ele>2238.9</ele>
        <time>2019-10-05T10:41:15.000Z</time>
      </trkpt>
      <trkpt lat="42.64167" lon="1.99842">
        <ele>2238.3</ele>
        <time>2019-10-05T10:41:17.000Z</time>
      </trkpt>
      <trkpt lat="42.6417" lon="1.99847">
        <ele>2237.6</ele>
        <time>2019-10-05T10:41:19.000Z</time>
      </trkpt>
      <trkpt lat="42.64172" lon="1.9985">
        <ele>2237.1</ele>
        <time>2019-10-05T10:41:20.000Z</time>
      </trkpt>
      <trkpt lat="42.64174" lon="1.99853">
        <ele>2236.4</ele>
        <time>2019-10-05T10:41:21.000Z</time>
      </trkpt>
      <trkpt lat="42.64178" lon="1.99858">
        <ele>2235.8</ele>
        <time>2019-10-05T10:41:23.000Z</time>
      </trkpt>
      <trkpt lat="42.64179" lon="1.99863">
        <ele>2235.2</ele>
        <time>2019-10-05T10:41:25.000Z</time>
      </trkpt>
      <trkpt lat="42.64182" lon="1.99869">
        <ele>2234.6</ele>
        <time>2019-10-05T10:41:27.000Z</time>
      </trkpt>
      <trkpt lat="42.64183" lon="1.99873">
        <ele>2234</ele>
        <time>2019-10-05T10:41:28.000Z</time>
      </trkpt>
      <trkpt lat="42.64185" lon="1.99877">
        <ele>2233.4</ele>
        <time>2019-10-05T10:41:29.000Z</time>
      </trkpt>
      <trkpt lat="42.64187" lon="1.99882">
        <ele>2232.9</ele>
        <time>2019-10-05T10:41:30.000Z</time>
      </trkpt>
      <trkpt lat="42.6419" lon="1.99887">
        <ele>2232.5</ele>
        <time>2019-10-05T10:41:31.000Z</time>
      </trkpt>
      <trkpt lat="42.64191" lon="1.99891">
        <ele>2231.6</ele>
        <time>2019-10-05T10:41:32.000Z</time>
      </trkpt>
      <trkpt lat="42.64192" lon="1.99896">
        <ele>2231.3</ele>
        <time>2019-10-05T10:41:33.000Z</time>
      </trkpt>
      <trkpt lat="42.64193" lon="1.99899">
        <ele>2231.3</ele>
        <time>2019-10-05T10:41:34.000Z</time>
      </trkpt>
      <trkpt lat="42.64194" lon="1.99905">
        <ele>2230.4</ele>
        <time>2019-10-05T10:41:36.000Z</time>
      </trkpt>
      <trkpt lat="42.64195" lon="1.99908">
        <ele>2230.1</ele>
        <time>2019-10-05T10:41:38.000Z</time>
      </trkpt>
      <trkpt lat="42.64196" lon="1.99913">
        <ele>2229.7</ele>
        <time>2019-10-05T10:41:50.000Z</time>
      </trkpt>
      <trkpt lat="42.64196" lon="1.99917">
        <ele>2229.2</ele>
        <time>2019-10-05T10:41:52.000Z</time>
      </trkpt>
      <trkpt lat="42.64196" lon="1.99922">
        <ele>2228.7</ele>
        <time>2019-10-05T10:41:55.000Z</time>
      </trkpt>
      <trkpt lat="42.64197" lon="1.99926">
        <ele>2228.3</ele>
        <time>2019-10-05T10:41:57.000Z</time>
      </trkpt>
      <trkpt lat="42.64198" lon="1.99931">
        <ele>2228</ele>
        <time>2019-10-05T10:41:59.000Z</time>
      </trkpt>
      <trkpt lat="42.64199" lon="1.99936">
        <ele>2227.7</ele>
        <time>2019-10-05T10:42:01.000Z</time>
      </trkpt>
      <trkpt lat="42.64199" lon="1.9994">
        <ele>2227.8</ele>
        <time>2019-10-05T10:42:11.000Z</time>
      </trkpt>
      <trkpt lat="42.64201" lon="1.99944">
        <ele>2227.8</ele>
        <time>2019-10-05T10:42:18.000Z</time>
      </trkpt>
      <trkpt lat="42.64203" lon="1.99947">
        <ele>2227.8</ele>
        <time>2019-10-05T10:42:22.000Z</time>
      </trkpt>
      <trkpt lat="42.64206" lon="1.9995">
        <ele>2227.6</ele>
        <time>2019-10-05T10:42:26.000Z</time>
      </trkpt>
      <trkpt lat="42.64206" lon="1.99954">
        <ele>2227.4</ele>
        <time>2019-10-05T10:42:30.000Z</time>
      </trkpt>
      <trkpt lat="42.64205" lon="1.99958">
        <ele>2227.1</ele>
        <time>2019-10-05T10:42:37.000Z</time>
      </trkpt>
      <trkpt lat="42.64205" lon="1.99962">
        <ele>2226.8</ele>
        <time>2019-10-05T10:42:44.000Z</time>
      </trkpt>
      <trkpt lat="42.64206" lon="1.99966">
        <ele>2226.6</ele>
        <time>2019-10-05T10:42:49.000Z</time>
      </trkpt>
      <trkpt lat="42.64206" lon="1.99971">
        <ele>2226.4</ele>
        <time>2019-10-05T10:42:52.000Z</time>
      </trkpt>
      <trkpt lat="42.64206" lon="1.99977">
        <ele>2226.2</ele>
        <time>2019-10-05T10:42:55.000Z</time>
      </trkpt>
      <trkpt lat="42.64204" lon="1.99981">
        <ele>2226</ele>
        <time>2019-10-05T10:42:58.000Z</time>
      </trkpt>
      <trkpt lat="42.64203" lon="1.99984">
        <ele>2225.9</ele>
        <time>2019-10-05T10:43:10.000Z</time>
      </trkpt>
      <trkpt lat="42.64202" lon="1.99988">
        <ele>2225.7</ele>
        <time>2019-10-05T10:43:17.000Z</time>
      </trkpt>
      <trkpt lat="42.64202" lon="1.99993">
        <ele>2225.2</ele>
        <time>2019-10-05T10:43:24.000Z</time>
      </trkpt>
      <trkpt lat="42.64202" lon="1.99998">
        <ele>2224.6</ele>
        <time>2019-10-05T10:43:27.000Z</time>
      </trkpt>
      <trkpt lat="42.64203" lon="2.00002">
        <ele>2224.3</ele>
        <time>2019-10-05T10:43:31.000Z</time>
      </trkpt>
      <trkpt lat="42.64203" lon="2.00006">
        <ele>2223.9</ele>
        <time>2019-10-05T10:43:35.000Z</time>
      </trkpt>
      <trkpt lat="42.64204" lon="2.0001">
        <ele>2223.6</ele>
        <time>2019-10-05T10:43:38.000Z</time>
      </trkpt>
      <trkpt lat="42.64205" lon="2.00013">
        <ele>2223.4</ele>
        <time>2019-10-05T10:43:43.000Z</time>
      </trkpt>
      <trkpt lat="42.64206" lon="2.00017">
        <ele>2223.2</ele>
        <time>2019-10-05T10:43:47.000Z</time>
      </trkpt>
      <trkpt lat="42.64205" lon="2.00021">
        <ele>2223</ele>
        <time>2019-10-05T10:43:50.000Z</time>
      </trkpt>
      <trkpt lat="42.64204" lon="2.00025">
        <ele>2222.8</ele>
        <time>2019-10-05T10:43:53.000Z</time>
      </trkpt>
      <trkpt lat="42.64202" lon="2.00029">
        <ele>2222.6</ele>
        <time>2019-10-05T10:44:01.000Z</time>
      </trkpt>
      <trkpt lat="42.64202" lon="2.00033">
        <ele>2222.6</ele>
        <time>2019-10-05T10:44:04.000Z</time>
      </trkpt>
      <trkpt lat="42.64201" lon="2.00036">
        <ele>2222.6</ele>
        <time>2019-10-05T10:44:06.000Z</time>
      </trkpt>
      <trkpt lat="42.642" lon="2.0004">
        <ele>2222.6</ele>
        <time>2019-10-05T10:44:09.000Z</time>
      </trkpt>
      <trkpt lat="42.64198" lon="2.00044">
        <ele>2222.6</ele>
        <time>2019-10-05T10:44:12.000Z</time>
      </trkpt>
      <trkpt lat="42.64197" lon="2.00048">
        <ele>2222.4</ele>
        <time>2019-10-05T10:44:17.000Z</time>
      </trkpt>
      <trkpt lat="42.64199" lon="2.00052">
        <ele>2222.1</ele>
        <time>2019-10-05T10:44:20.000Z</time>
      </trkpt>
      <trkpt lat="42.64201" lon="2.00055">
        <ele>2221.7</ele>
        <time>2019-10-05T10:44:23.000Z</time>
      </trkpt>
      <trkpt lat="42.64204" lon="2.00056">
        <ele>2221.5</ele>
        <time>2019-10-05T10:44:26.000Z</time>
      </trkpt>
      <trkpt lat="42.64207" lon="2.00056">
        <ele>2221.4</ele>
        <time>2019-10-05T10:44:45.000Z</time>
      </trkpt>
      <trkpt lat="42.64209" lon="2.0006">
        <ele>2221.2</ele>
        <time>2019-10-05T10:44:59.000Z</time>
      </trkpt>
      <trkpt lat="42.6421" lon="2.00064">
        <ele>2221</ele>
        <time>2019-10-05T10:45:02.000Z</time>
      </trkpt>
      <trkpt lat="42.6421" lon="2.00071">
        <ele>2220.7</ele>
        <time>2019-10-05T10:45:05.000Z</time>
      </trkpt>
      <trkpt lat="42.64211" lon="2.00075">
        <ele>2220.2</ele>
        <time>2019-10-05T10:45:06.000Z</time>
      </trkpt>
      <trkpt lat="42.64211" lon="2.00079">
        <ele>2219.8</ele>
        <time>2019-10-05T10:45:07.000Z</time>
      </trkpt>
      <trkpt lat="42.64213" lon="2.00084">
        <ele>2219.2</ele>
        <time>2019-10-05T10:45:09.000Z</time>
      </trkpt>
      <trkpt lat="42.64213" lon="2.0009">
        <ele>2218.8</ele>
        <time>2019-10-05T10:45:11.000Z</time>
      </trkpt>
      <trkpt lat="42.64213" lon="2.00094">
        <ele>2218.5</ele>
        <time>2019-10-05T10:45:13.000Z</time>
      </trkpt>
      <trkpt lat="42.64213" lon="2.00098">
        <ele>2218.2</ele>
        <time>2019-10-05T10:45:16.000Z</time>
      </trkpt>
      <trkpt lat="42.64213" lon="2.00102">
        <ele>2217.8</ele>
        <time>2019-10-05T10:45:22.000Z</time>
      </trkpt>
      <trkpt lat="42.64215" lon="2.00105">
        <ele>2217.5</ele>
        <time>2019-10-05T10:45:26.000Z</time>
      </trkpt>
      <trkpt lat="42.64217" lon="2.00107">
        <ele>2217.1</ele>
        <time>2019-10-05T10:45:45.000Z</time>
      </trkpt>
      <trkpt lat="42.6422" lon="2.00113">
        <ele>2216</ele>
        <time>2019-10-05T10:45:47.000Z</time>
      </trkpt>
      <trkpt lat="42.64221" lon="2.00117">
        <ele>2215.3</ele>
        <time>2019-10-05T10:45:48.000Z</time>
      </trkpt>
      <trkpt lat="42.64224" lon="2.00121">
        <ele>2214.8</ele>
        <time>2019-10-05T10:45:49.000Z</time>
      </trkpt>
      <trkpt lat="42.64227" lon="2.00124">
        <ele>2214.4</ele>
        <time>2019-10-05T10:45:50.000Z</time>
      </trkpt>
      <trkpt lat="42.6423" lon="2.00126">
        <ele>2214.3</ele>
        <time>2019-10-05T10:45:51.000Z</time>
      </trkpt>
      <trkpt lat="42.64233" lon="2.00131">
        <ele>2214.4</ele>
        <time>2019-10-05T10:45:53.000Z</time>
      </trkpt>
      <trkpt lat="42.64234" lon="2.00134">
        <ele>2214.3</ele>
        <time>2019-10-05T10:45:55.000Z</time>
      </trkpt>
      <trkpt lat="42.64235" lon="2.00139">
        <ele>2213.8</ele>
        <time>2019-10-05T10:45:58.000Z</time>
      </trkpt>
      <trkpt lat="42.64237" lon="2.00142">
        <ele>2213.3</ele>
        <time>2019-10-05T10:46:01.000Z</time>
      </trkpt>
      <trkpt lat="42.64241" lon="2.00145">
        <ele>2212.7</ele>
        <time>2019-10-05T10:46:04.000Z</time>
      </trkpt>
      <trkpt lat="42.64244" lon="2.00149">
        <ele>2212.2</ele>
        <time>2019-10-05T10:46:07.000Z</time>
      </trkpt>
      <trkpt lat="42.64246" lon="2.00152">
        <ele>2211.7</ele>
        <time>2019-10-05T10:46:09.000Z</time>
      </trkpt>
      <trkpt lat="42.64247" lon="2.00155">
        <ele>2211.3</ele>
        <time>2019-10-05T10:46:12.000Z</time>
      </trkpt>
      <trkpt lat="42.64248" lon="2.00159">
        <ele>2211</ele>
        <time>2019-10-05T10:46:15.000Z</time>
      </trkpt>
      <trkpt lat="42.64249" lon="2.00163">
        <ele>2210.6</ele>
        <time>2019-10-05T10:46:17.000Z</time>
      </trkpt>
      <trkpt lat="42.6425" lon="2.00167">
        <ele>2210.3</ele>
        <time>2019-10-05T10:46:19.000Z</time>
      </trkpt>
      <trkpt lat="42.64251" lon="2.00171">
        <ele>2209.9</ele>
        <time>2019-10-05T10:46:21.000Z</time>
      </trkpt>
      <trkpt lat="42.64252" lon="2.00175">
        <ele>2209.3</ele>
        <time>2019-10-05T10:46:24.000Z</time>
      </trkpt>
      <trkpt lat="42.64251" lon="2.00179">
        <ele>2208.8</ele>
        <time>2019-10-05T10:46:53.000Z</time>
      </trkpt>
      <trkpt lat="42.64252" lon="2.00182">
        <ele>2208.3</ele>
        <time>2019-10-05T10:47:05.000Z</time>
      </trkpt>
      <trkpt lat="42.64252" lon="2.00186">
        <ele>2207.8</ele>
        <time>2019-10-05T10:48:02.000Z</time>
      </trkpt>
      <trkpt lat="42.64252" lon="2.0019">
        <ele>2207.1</ele>
        <time>2019-10-05T10:50:29.000Z</time>
      </trkpt>
      <trkpt lat="42.64252" lon="2.00196">
        <ele>2206.3</ele>
        <time>2019-10-05T10:50:32.000Z</time>
      </trkpt>
      <trkpt lat="42.6425" lon="2.00199">
        <ele>2205.7</ele>
        <time>2019-10-05T10:50:38.000Z</time>
      </trkpt>
      <trkpt lat="42.64251" lon="2.00203">
        <ele>2205.1</ele>
        <time>2019-10-05T10:50:40.000Z</time>
      </trkpt>
      <trkpt lat="42.64251" lon="2.00208">
        <ele>2204.4</ele>
        <time>2019-10-05T10:50:42.000Z</time>
      </trkpt>
      <trkpt lat="42.64251" lon="2.00211">
        <ele>2204.1</ele>
        <time>2019-10-05T10:50:43.000Z</time>
      </trkpt>
      <trkpt lat="42.64251" lon="2.00215">
        <ele>2203.7</ele>
        <time>2019-10-05T10:50:44.000Z</time>
      </trkpt>
      <trkpt lat="42.64251" lon="2.00219">
        <ele>2203.4</ele>
        <time>2019-10-05T10:50:45.000Z</time>
      </trkpt>
      <trkpt lat="42.64251" lon="2.00225">
        <ele>2202.2</ele>
        <time>2019-10-05T10:50:47.000Z</time>
      </trkpt>
      <trkpt lat="42.64252" lon="2.0023">
        <ele>2201.3</ele>
        <time>2019-10-05T10:50:49.000Z</time>
      </trkpt>
      <trkpt lat="42.64253" lon="2.00235">
        <ele>2200.2</ele>
        <time>2019-10-05T10:50:51.000Z</time>
      </trkpt>
      <trkpt lat="42.64254" lon="2.00239">
        <ele>2199.4</ele>
        <time>2019-10-05T10:50:52.000Z</time>
      </trkpt>
      <trkpt lat="42.64255" lon="2.00246">
        <ele>2198</ele>
        <time>2019-10-05T10:50:54.000Z</time>
      </trkpt>
      <trkpt lat="42.64255" lon="2.00252">
        <ele>2197.2</ele>
        <time>2019-10-05T10:50:56.000Z</time>
      </trkpt>
      <trkpt lat="42.64256" lon="2.00255">
        <ele>2196.6</ele>
        <time>2019-10-05T10:50:58.000Z</time>
      </trkpt>
      <trkpt lat="42.64258" lon="2.00259">
        <ele>2196.1</ele>
        <time>2019-10-05T10:50:59.000Z</time>
      </trkpt>
      <trkpt lat="42.6426" lon="2.00264">
        <ele>2195.8</ele>
        <time>2019-10-05T10:51:00.000Z</time>
      </trkpt>
      <trkpt lat="42.64263" lon="2.00267">
        <ele>2195.4</ele>
        <time>2019-10-05T10:51:01.000Z</time>
      </trkpt>
      <trkpt lat="42.64265" lon="2.0027">
        <ele>2195</ele>
        <time>2019-10-05T10:51:03.000Z</time>
      </trkpt>
      <trkpt lat="42.64268" lon="2.00273">
        <ele>2194.5</ele>
        <time>2019-10-05T10:53:29.000Z</time>
      </trkpt>
      <trkpt lat="42.6427" lon="2.00279">
        <ele>2194</ele>
        <time>2019-10-05T10:53:31.000Z</time>
      </trkpt>
      <trkpt lat="42.64272" lon="2.00283">
        <ele>2194</ele>
        <time>2019-10-05T10:53:32.000Z</time>
      </trkpt>
      <trkpt lat="42.64273" lon="2.00287">
        <ele>2194.1</ele>
        <time>2019-10-05T10:53:33.000Z</time>
      </trkpt>
      <trkpt lat="42.64275" lon="2.00291">
        <ele>2194.1</ele>
        <time>2019-10-05T10:53:34.000Z</time>
      </trkpt>
      <trkpt lat="42.64276" lon="2.00295">
        <ele>2194.1</ele>
        <time>2019-10-05T10:53:35.000Z</time>
      </trkpt>
      <trkpt lat="42.64278" lon="2.00299">
        <ele>2194.1</ele>
        <time>2019-10-05T10:53:36.000Z</time>
      </trkpt>
      <trkpt lat="42.6428" lon="2.00304">
        <ele>2194.1</ele>
        <time>2019-10-05T10:53:37.000Z</time>
      </trkpt>
      <trkpt lat="42.64283" lon="2.00309">
        <ele>2193.6</ele>
        <time>2019-10-05T10:53:38.000Z</time>
      </trkpt>
      <trkpt lat="42.64285" lon="2.00314">
        <ele>2193.1</ele>
        <time>2019-10-05T10:53:39.000Z</time>
      </trkpt>
      <trkpt lat="42.64287" lon="2.00318">
        <ele>2192.8</ele>
        <time>2019-10-05T10:53:40.000Z</time>
      </trkpt>
      <trkpt lat="42.64289" lon="2.00322">
        <ele>2192.5</ele>
        <time>2019-10-05T10:53:41.000Z</time>
      </trkpt>
      <trkpt lat="42.6429" lon="2.00326">
        <ele>2192.2</ele>
        <time>2019-10-05T10:53:42.000Z</time>
      </trkpt>
      <trkpt lat="42.64291" lon="2.0033">
        <ele>2191.9</ele>
        <time>2019-10-05T10:53:43.000Z</time>
      </trkpt>
      <trkpt lat="42.64292" lon="2.00334">
        <ele>2191.7</ele>
        <time>2019-10-05T10:53:44.000Z</time>
      </trkpt>
      <trkpt lat="42.64294" lon="2.00339">
        <ele>2191.4</ele>
        <time>2019-10-05T10:53:45.000Z</time>
      </trkpt>
      <trkpt lat="42.64296" lon="2.00342">
        <ele>2191.2</ele>
        <time>2019-10-05T10:53:46.000Z</time>
      </trkpt>
      <trkpt lat="42.64299" lon="2.00348">
        <ele>2190.7</ele>
        <time>2019-10-05T10:53:48.000Z</time>
      </trkpt>
      <trkpt lat="42.643" lon="2.00352">
        <ele>2190.2</ele>
        <time>2019-10-05T10:53:49.000Z</time>
      </trkpt>
      <trkpt lat="42.64302" lon="2.00355">
        <ele>2189.7</ele>
        <time>2019-10-05T10:53:50.000Z</time>
      </trkpt>
      <trkpt lat="42.64303" lon="2.00359">
        <ele>2189.4</ele>
        <time>2019-10-05T10:53:51.000Z</time>
      </trkpt>
      <trkpt lat="42.64305" lon="2.00364">
        <ele>2188.9</ele>
        <time>2019-10-05T10:53:53.000Z</time>
      </trkpt>
      <trkpt lat="42.64304" lon="2.0037">
        <ele>2188.3</ele>
        <time>2019-10-05T10:53:59.000Z</time>
      </trkpt>
      <trkpt lat="42.64302" lon="2.00373">
        <ele>2187.6</ele>
        <time>2019-10-05T10:54:00.000Z</time>
      </trkpt>
      <trkpt lat="42.643" lon="2.00376">
        <ele>2186.8</ele>
        <time>2019-10-05T10:54:01.000Z</time>
      </trkpt>
      <trkpt lat="42.64297" lon="2.0038">
        <ele>2186</ele>
        <time>2019-10-05T10:54:02.000Z</time>
      </trkpt>
      <trkpt lat="42.64295" lon="2.00382">
        <ele>2185.6</ele>
        <time>2019-10-05T10:54:03.000Z</time>
      </trkpt>
      <trkpt lat="42.64294" lon="2.00388">
        <ele>2184.9</ele>
        <time>2019-10-05T10:54:05.000Z</time>
      </trkpt>
      <trkpt lat="42.64292" lon="2.00394">
        <ele>2183.7</ele>
        <time>2019-10-05T10:54:07.000Z</time>
      </trkpt>
      <trkpt lat="42.64291" lon="2.004">
        <ele>2182.6</ele>
        <time>2019-10-05T10:54:09.000Z</time>
      </trkpt>
      <trkpt lat="42.6429" lon="2.00406">
        <ele>2181.7</ele>
        <time>2019-10-05T10:54:11.000Z</time>
      </trkpt>
      <trkpt lat="42.64289" lon="2.00413">
        <ele>2181.1</ele>
        <time>2019-10-05T10:54:13.000Z</time>
      </trkpt>
      <trkpt lat="42.64288" lon="2.00416">
        <ele>2180.6</ele>
        <time>2019-10-05T10:54:14.000Z</time>
      </trkpt>
      <trkpt lat="42.64288" lon="2.0042">
        <ele>2179.9</ele>
        <time>2019-10-05T10:54:15.000Z</time>
      </trkpt>
      <trkpt lat="42.64287" lon="2.00427">
        <ele>2178.4</ele>
        <time>2019-10-05T10:54:17.000Z</time>
      </trkpt>
      <trkpt lat="42.64286" lon="2.00431">
        <ele>2177.7</ele>
        <time>2019-10-05T10:54:18.000Z</time>
      </trkpt>
      <trkpt lat="42.64286" lon="2.00435">
        <ele>2176.9</ele>
        <time>2019-10-05T10:54:19.000Z</time>
      </trkpt>
      <trkpt lat="42.64286" lon="2.0044">
        <ele>2176.1</ele>
        <time>2019-10-05T10:54:20.000Z</time>
      </trkpt>
      <trkpt lat="42.64287" lon="2.00444">
        <ele>2175.5</ele>
        <time>2019-10-05T10:54:21.000Z</time>
      </trkpt>
      <trkpt lat="42.64288" lon="2.00448">
        <ele>2174.9</ele>
        <time>2019-10-05T10:54:22.000Z</time>
      </trkpt>
      <trkpt lat="42.6429" lon="2.00455">
        <ele>2173.5</ele>
        <time>2019-10-05T10:54:24.000Z</time>
      </trkpt>
      <trkpt lat="42.6429" lon="2.00462">
        <ele>2171.6</ele>
        <time>2019-10-05T10:54:26.000Z</time>
      </trkpt>
      <trkpt lat="42.64291" lon="2.00466">
        <ele>2170.7</ele>
        <time>2019-10-05T10:54:28.000Z</time>
      </trkpt>
      <trkpt lat="42.64292" lon="2.00472">
        <ele>2169.6</ele>
        <time>2019-10-05T10:54:30.000Z</time>
      </trkpt>
      <trkpt lat="42.64294" lon="2.00479">
        <ele>2168.3</ele>
        <time>2019-10-05T10:54:32.000Z</time>
      </trkpt>
      <trkpt lat="42.64296" lon="2.00485">
        <ele>2167</ele>
        <time>2019-10-05T10:54:34.000Z</time>
      </trkpt>
      <trkpt lat="42.64299" lon="2.00491">
        <ele>2166</ele>
        <time>2019-10-05T10:54:36.000Z</time>
      </trkpt>
      <trkpt lat="42.643" lon="2.00495">
        <ele>2165.6</ele>
        <time>2019-10-05T10:54:37.000Z</time>
      </trkpt>
      <trkpt lat="42.64301" lon="2.00499">
        <ele>2164.9</ele>
        <time>2019-10-05T10:54:38.000Z</time>
      </trkpt>
      <trkpt lat="42.64302" lon="2.00505">
        <ele>2164.2</ele>
        <time>2019-10-05T10:54:39.000Z</time>
      </trkpt>
      <trkpt lat="42.64303" lon="2.00511">
        <ele>2163.3</ele>
        <time>2019-10-05T10:54:40.000Z</time>
      </trkpt>
      <trkpt lat="42.64304" lon="2.00518">
        <ele>2162.4</ele>
        <time>2019-10-05T10:54:41.000Z</time>
      </trkpt>
      <trkpt lat="42.64305" lon="2.00524">
        <ele>2161.4</ele>
        <time>2019-10-05T10:54:42.000Z</time>
      </trkpt>
      <trkpt lat="42.64305" lon="2.00529">
        <ele>2160.5</ele>
        <time>2019-10-05T10:54:43.000Z</time>
      </trkpt>
      <trkpt lat="42.64305" lon="2.00535">
        <ele>2159.6</ele>
        <time>2019-10-05T10:54:45.000Z</time>
      </trkpt>
      <trkpt lat="42.64306" lon="2.00539">
        <ele>2159.1</ele>
        <time>2019-10-05T10:54:46.000Z</time>
      </trkpt>
      <trkpt lat="42.64306" lon="2.00543">
        <ele>2158.6</ele>
        <time>2019-10-05T10:54:47.000Z</time>
      </trkpt>
      <trkpt lat="42.64306" lon="2.00546">
        <ele>2158.3</ele>
        <time>2019-10-05T10:54:48.000Z</time>
      </trkpt>
      <trkpt lat="42.64306" lon="2.0055">
        <ele>2158.1</ele>
        <time>2019-10-05T10:54:49.000Z</time>
      </trkpt>
      <trkpt lat="42.64306" lon="2.00554">
        <ele>2157.9</ele>
        <time>2019-10-05T10:54:51.000Z</time>
      </trkpt>
      <trkpt lat="42.64307" lon="2.00558">
        <ele>2157.7</ele>
        <time>2019-10-05T10:54:58.000Z</time>
      </trkpt>
      <trkpt lat="42.64308" lon="2.00561">
        <ele>2156.9</ele>
        <time>2019-10-05T10:54:59.000Z</time>
      </trkpt>
      <trkpt lat="42.64311" lon="2.00566">
        <ele>2155.9</ele>
        <time>2019-10-05T10:55:00.000Z</time>
      </trkpt>
      <trkpt lat="42.64314" lon="2.0057">
        <ele>2155</ele>
        <time>2019-10-05T10:55:01.000Z</time>
      </trkpt>
      <trkpt lat="42.64315" lon="2.00575">
        <ele>2154.2</ele>
        <time>2019-10-05T10:55:02.000Z</time>
      </trkpt>
      <trkpt lat="42.64317" lon="2.0058">
        <ele>2153.3</ele>
        <time>2019-10-05T10:55:03.000Z</time>
      </trkpt>
      <trkpt lat="42.64318" lon="2.00585">
        <ele>2152.4</ele>
        <time>2019-10-05T10:55:04.000Z</time>
      </trkpt>
      <trkpt lat="42.6432" lon="2.00591">
        <ele>2151.6</ele>
        <time>2019-10-05T10:55:05.000Z</time>
      </trkpt>
      <trkpt lat="42.64321" lon="2.00596">
        <ele>2151</ele>
        <time>2019-10-05T10:55:06.000Z</time>
      </trkpt>
      <trkpt lat="42.64321" lon="2.006">
        <ele>2150.5</ele>
        <time>2019-10-05T10:55:07.000Z</time>
      </trkpt>
      <trkpt lat="42.64321" lon="2.00605">
        <ele>2149.7</ele>
        <time>2019-10-05T10:55:09.000Z</time>
      </trkpt>
      <trkpt lat="42.6432" lon="2.0061">
        <ele>2148.8</ele>
        <time>2019-10-05T10:55:12.000Z</time>
      </trkpt>
      <trkpt lat="42.64319" lon="2.00617">
        <ele>2147.4</ele>
        <time>2019-10-05T10:55:14.000Z</time>
      </trkpt>
      <trkpt lat="42.64319" lon="2.00622">
        <ele>2146.4</ele>
        <time>2019-10-05T10:55:16.000Z</time>
      </trkpt>
      <trkpt lat="42.64319" lon="2.0063">
        <ele>2145.6</ele>
        <time>2019-10-05T10:55:18.000Z</time>
      </trkpt>
      <trkpt lat="42.64319" lon="2.00634">
        <ele>2145.1</ele>
        <time>2019-10-05T10:55:19.000Z</time>
      </trkpt>
      <trkpt lat="42.64319" lon="2.00638">
        <ele>2144.7</ele>
        <time>2019-10-05T10:55:20.000Z</time>
      </trkpt>
      <trkpt lat="42.64319" lon="2.00642">
        <ele>2144.3</ele>
        <time>2019-10-05T10:55:21.000Z</time>
      </trkpt>
      <trkpt lat="42.64317" lon="2.00649">
        <ele>2143.3</ele>
        <time>2019-10-05T10:55:23.000Z</time>
      </trkpt>
      <trkpt lat="42.64316" lon="2.00653">
        <ele>2142.5</ele>
        <time>2019-10-05T10:55:25.000Z</time>
      </trkpt>
      <trkpt lat="42.64315" lon="2.00657">
        <ele>2141.8</ele>
        <time>2019-10-05T10:55:42.000Z</time>
      </trkpt>
      <trkpt lat="42.64312" lon="2.00659">
        <ele>2141.2</ele>
        <time>2019-10-05T10:56:12.000Z</time>
      </trkpt>
      <trkpt lat="42.64309" lon="2.00659">
        <ele>2140.7</ele>
        <time>2019-10-05T10:56:17.000Z</time>
      </trkpt>
      <trkpt lat="42.64307" lon="2.00658">
        <ele>2140.3</ele>
        <time>2019-10-05T10:56:31.000Z</time>
      </trkpt>
      <trkpt lat="42.6431" lon="2.0066">
        <ele>2139.6</ele>
        <time>2019-10-05T10:56:56.000Z</time>
      </trkpt>
      <trkpt lat="42.64313" lon="2.00662">
        <ele>2138.7</ele>
        <time>2019-10-05T10:56:58.000Z</time>
      </trkpt>
      <trkpt lat="42.64316" lon="2.00663">
        <ele>2137.8</ele>
        <time>2019-10-05T10:57:02.000Z</time>
      </trkpt>
      <trkpt lat="42.64318" lon="2.0066">
        <ele>2137.1</ele>
        <time>2019-10-05T10:57:06.000Z</time>
      </trkpt>
      <trkpt lat="42.64315" lon="2.00659">
        <ele>2136.6</ele>
        <time>2019-10-05T10:57:19.000Z</time>
      </trkpt>
      <trkpt lat="42.64311" lon="2.00661">
        <ele>2135.7</ele>
        <time>2019-10-05T10:57:32.000Z</time>
      </trkpt>
      <trkpt lat="42.64309" lon="2.00664">
        <ele>2134.8</ele>
        <time>2019-10-05T10:57:35.000Z</time>
      </trkpt>
      <trkpt lat="42.64306" lon="2.00667">
        <ele>2134.2</ele>
        <time>2019-10-05T10:57:42.000Z</time>
      </trkpt>
      <trkpt lat="42.64304" lon="2.0067">
        <ele>2133.7</ele>
        <time>2019-10-05T10:57:46.000Z</time>
      </trkpt>
      <trkpt lat="42.643" lon="2.00667">
        <ele>2133</ele>
        <time>2019-10-05T10:57:50.000Z</time>
      </trkpt>
      <trkpt lat="42.64298" lon="2.00664">
        <ele>2132.5</ele>
        <time>2019-10-05T10:57:51.000Z</time>
      </trkpt>
      <trkpt lat="42.64295" lon="2.00662">
        <ele>2132</ele>
        <time>2019-10-05T10:57:52.000Z</time>
      </trkpt>
      <trkpt lat="42.64293" lon="2.0066">
        <ele>2131.4</ele>
        <time>2019-10-05T10:57:53.000Z</time>
      </trkpt>
      <trkpt lat="42.64288" lon="2.00658">
        <ele>2130.2</ele>
        <time>2019-10-05T10:57:55.000Z</time>
      </trkpt>
      <trkpt lat="42.64285" lon="2.00657">
        <ele>2129.4</ele>
        <time>2019-10-05T10:57:57.000Z</time>
      </trkpt>
      <trkpt lat="42.64281" lon="2.00657">
        <ele>2128.7</ele>
        <time>2019-10-05T10:57:59.000Z</time>
      </trkpt>
      <trkpt lat="42.64277" lon="2.00657">
        <ele>2128</ele>
        <time>2019-10-05T10:58:00.000Z</time>
      </trkpt>
      <trkpt lat="42.64274" lon="2.00657">
        <ele>2127.3</ele>
        <time>2019-10-05T10:58:01.000Z</time>
      </trkpt>
      <trkpt lat="42.6427" lon="2.00658">
        <ele>2126.5</ele>
        <time>2019-10-05T10:58:02.000Z</time>
      </trkpt>
      <trkpt lat="42.64265" lon="2.00659">
        <ele>2125.8</ele>
        <time>2019-10-05T10:58:03.000Z</time>
      </trkpt>
      <trkpt lat="42.6426" lon="2.0066">
        <ele>2125.3</ele>
        <time>2019-10-05T10:58:04.000Z</time>
      </trkpt>
      <trkpt lat="42.64256" lon="2.0066">
        <ele>2124.9</ele>
        <time>2019-10-05T10:58:05.000Z</time>
      </trkpt>
      <trkpt lat="42.64252" lon="2.0066">
        <ele>2124.3</ele>
        <time>2019-10-05T10:58:06.000Z</time>
      </trkpt>
      <trkpt lat="42.64249" lon="2.0066">
        <ele>2124</ele>
        <time>2019-10-05T10:58:07.000Z</time>
      </trkpt>
      <trkpt lat="42.64245" lon="2.0066">
        <ele>2124.1</ele>
        <time>2019-10-05T10:58:08.000Z</time>
      </trkpt>
      <trkpt lat="42.64242" lon="2.00659">
        <ele>2124.1</ele>
        <time>2019-10-05T10:58:09.000Z</time>
      </trkpt>
      <trkpt lat="42.64238" lon="2.00658">
        <ele>2124</ele>
        <time>2019-10-05T10:58:10.000Z</time>
      </trkpt>
      <trkpt lat="42.64234" lon="2.00657">
        <ele>2123.9</ele>
        <time>2019-10-05T10:58:11.000Z</time>
      </trkpt>
      <trkpt lat="42.64231" lon="2.00657">
        <ele>2123.6</ele>
        <time>2019-10-05T10:58:12.000Z</time>
      </trkpt>
      <trkpt lat="42.64227" lon="2.00656">
        <ele>2123.2</ele>
        <time>2019-10-05T10:58:13.000Z</time>
      </trkpt>
      <trkpt lat="42.64224" lon="2.00656">
        <ele>2122.8</ele>
        <time>2019-10-05T10:58:14.000Z</time>
      </trkpt>
      <trkpt lat="42.64222" lon="2.00656">
        <ele>2122.4</ele>
        <time>2019-10-05T10:58:15.000Z</time>
      </trkpt>
      <trkpt lat="42.64217" lon="2.00655">
        <ele>2122</ele>
        <time>2019-10-05T10:58:17.000Z</time>
      </trkpt>
      <trkpt lat="42.64214" lon="2.00652">
        <ele>2121.5</ele>
        <time>2019-10-05T10:58:19.000Z</time>
      </trkpt>
      <trkpt lat="42.64209" lon="2.0065">
        <ele>2120.8</ele>
        <time>2019-10-05T10:58:21.000Z</time>
      </trkpt>
      <trkpt lat="42.64204" lon="2.0065">
        <ele>2120</ele>
        <time>2019-10-05T10:58:23.000Z</time>
      </trkpt>
      <trkpt lat="42.642" lon="2.00649">
        <ele>2119.3</ele>
        <time>2019-10-05T10:58:25.000Z</time>
      </trkpt>
      <trkpt lat="42.64196" lon="2.00648">
        <ele>2118.8</ele>
        <time>2019-10-05T10:58:27.000Z</time>
      </trkpt>
      <trkpt lat="42.64192" lon="2.00648">
        <ele>2118</ele>
        <time>2019-10-05T10:58:29.000Z</time>
      </trkpt>
      <trkpt lat="42.64188" lon="2.0065">
        <ele>2117.2</ele>
        <time>2019-10-05T10:58:31.000Z</time>
      </trkpt>
      <trkpt lat="42.64186" lon="2.00653">
        <ele>2116.7</ele>
        <time>2019-10-05T10:58:32.000Z</time>
      </trkpt>
      <trkpt lat="42.64184" lon="2.00657">
        <ele>2116.1</ele>
        <time>2019-10-05T10:58:34.000Z</time>
      </trkpt>
      <trkpt lat="42.64182" lon="2.0066">
        <ele>2115.7</ele>
        <time>2019-10-05T10:59:04.000Z</time>
      </trkpt>
      <trkpt lat="42.64182" lon="2.00666">
        <ele>2115</ele>
        <time>2019-10-05T10:59:07.000Z</time>
      </trkpt>
      <trkpt lat="42.64184" lon="2.00668">
        <ele>2114.5</ele>
        <time>2019-10-05T10:59:10.000Z</time>
      </trkpt>
      <trkpt lat="42.64186" lon="2.00673">
        <ele>2113.8</ele>
        <time>2019-10-05T10:59:13.000Z</time>
      </trkpt>
      <trkpt lat="42.64188" lon="2.00676">
        <ele>2112.9</ele>
        <time>2019-10-05T10:59:15.000Z</time>
      </trkpt>
      <trkpt lat="42.64191" lon="2.0068">
        <ele>2112</ele>
        <time>2019-10-05T10:59:17.000Z</time>
      </trkpt>
      <trkpt lat="42.64193" lon="2.00684">
        <ele>2111.4</ele>
        <time>2019-10-05T10:59:19.000Z</time>
      </trkpt>
      <trkpt lat="42.64194" lon="2.00689">
        <ele>2110.6</ele>
        <time>2019-10-05T10:59:21.000Z</time>
      </trkpt>
      <trkpt lat="42.64194" lon="2.00694">
        <ele>2110</ele>
        <time>2019-10-05T10:59:23.000Z</time>
      </trkpt>
      <trkpt lat="42.64193" lon="2.00698">
        <ele>2109.7</ele>
        <time>2019-10-05T10:59:25.000Z</time>
      </trkpt>
      <trkpt lat="42.64194" lon="2.00704">
        <ele>2108.9</ele>
        <time>2019-10-05T10:59:28.000Z</time>
      </trkpt>
      <trkpt lat="42.64194" lon="2.00708">
        <ele>2108.3</ele>
        <time>2019-10-05T10:59:30.000Z</time>
      </trkpt>
      <trkpt lat="42.64194" lon="2.00712">
        <ele>2108</ele>
        <time>2019-10-05T10:59:32.000Z</time>
      </trkpt>
      <trkpt lat="42.64195" lon="2.00717">
        <ele>2107.5</ele>
        <time>2019-10-05T10:59:34.000Z</time>
      </trkpt>
      <trkpt lat="42.64197" lon="2.00721">
        <ele>2106.8</ele>
        <time>2019-10-05T10:59:36.000Z</time>
      </trkpt>
      <trkpt lat="42.642" lon="2.00725">
        <ele>2105.9</ele>
        <time>2019-10-05T10:59:38.000Z</time>
      </trkpt>
      <trkpt lat="42.64203" lon="2.00729">
        <ele>2105.4</ele>
        <time>2019-10-05T10:59:40.000Z</time>
      </trkpt>
      <trkpt lat="42.64206" lon="2.00734">
        <ele>2105</ele>
        <time>2019-10-05T10:59:42.000Z</time>
      </trkpt>
      <trkpt lat="42.64207" lon="2.00737">
        <ele>2104.6</ele>
        <time>2019-10-05T10:59:43.000Z</time>
      </trkpt>
      <trkpt lat="42.64209" lon="2.00742">
        <ele>2104.2</ele>
        <time>2019-10-05T10:59:45.000Z</time>
      </trkpt>
      <trkpt lat="42.64211" lon="2.00744">
        <ele>2103.5</ele>
        <time>2019-10-05T10:59:51.000Z</time>
      </trkpt>
      <trkpt lat="42.64213" lon="2.00748">
        <ele>2103.5</ele>
        <time>2019-10-05T10:59:54.000Z</time>
      </trkpt>
      <trkpt lat="42.64215" lon="2.0075">
        <ele>2103.5</ele>
        <time>2019-10-05T10:59:56.000Z</time>
      </trkpt>
      <trkpt lat="42.64217" lon="2.00755">
        <ele>2103.3</ele>
        <time>2019-10-05T10:59:59.000Z</time>
      </trkpt>
      <trkpt lat="42.64219" lon="2.00759">
        <ele>2102.9</ele>
        <time>2019-10-05T11:00:02.000Z</time>
      </trkpt>
      <trkpt lat="42.64221" lon="2.00762">
        <ele>2102.5</ele>
        <time>2019-10-05T11:00:04.000Z</time>
      </trkpt>
      <trkpt lat="42.64222" lon="2.00767">
        <ele>2102.1</ele>
        <time>2019-10-05T11:00:06.000Z</time>
      </trkpt>
      <trkpt lat="42.64222" lon="2.00771">
        <ele>2101.9</ele>
        <time>2019-10-05T11:00:08.000Z</time>
      </trkpt>
      <trkpt lat="42.64222" lon="2.00776">
        <ele>2101.6</ele>
        <time>2019-10-05T11:00:10.000Z</time>
      </trkpt>
      <trkpt lat="42.64223" lon="2.0078">
        <ele>2101.3</ele>
        <time>2019-10-05T11:00:12.000Z</time>
      </trkpt>
      <trkpt lat="42.64226" lon="2.00783">
        <ele>2100.7</ele>
        <time>2019-10-05T11:00:15.000Z</time>
      </trkpt>
      <trkpt lat="42.64229" lon="2.00785">
        <ele>2100.3</ele>
        <time>2019-10-05T11:00:17.000Z</time>
      </trkpt>
      <trkpt lat="42.64232" lon="2.00787">
        <ele>2099.9</ele>
        <time>2019-10-05T11:00:19.000Z</time>
      </trkpt>
      <trkpt lat="42.64234" lon="2.00788">
        <ele>2099.5</ele>
        <time>2019-10-05T11:00:21.000Z</time>
      </trkpt>
      <trkpt lat="42.64238" lon="2.00789">
        <ele>2099.1</ele>
        <time>2019-10-05T11:00:23.000Z</time>
      </trkpt>
      <trkpt lat="42.6424" lon="2.0079">
        <ele>2098.7</ele>
        <time>2019-10-05T11:00:25.000Z</time>
      </trkpt>
      <trkpt lat="42.64242" lon="2.00786">
        <ele>2098.3</ele>
        <time>2019-10-05T11:00:27.000Z</time>
      </trkpt>
      <trkpt lat="42.64244" lon="2.0079">
        <ele>2097.8</ele>
        <time>2019-10-05T11:00:40.000Z</time>
      </trkpt>
      <trkpt lat="42.64246" lon="2.00796">
        <ele>2097.2</ele>
        <time>2019-10-05T11:00:42.000Z</time>
      </trkpt>
      <trkpt lat="42.64247" lon="2.00799">
        <ele>2096.8</ele>
        <time>2019-10-05T11:00:43.000Z</time>
      </trkpt>
      <trkpt lat="42.64249" lon="2.00802">
        <ele>2096.5</ele>
        <time>2019-10-05T11:00:44.000Z</time>
      </trkpt>
      <trkpt lat="42.64251" lon="2.00806">
        <ele>2096.3</ele>
        <time>2019-10-05T11:00:45.000Z</time>
      </trkpt>
      <trkpt lat="42.64254" lon="2.00809">
        <ele>2095.8</ele>
        <time>2019-10-05T11:00:47.000Z</time>
      </trkpt>
      <trkpt lat="42.64259" lon="2.00809">
        <ele>2095.3</ele>
        <time>2019-10-05T11:00:49.000Z</time>
      </trkpt>
      <trkpt lat="42.64262" lon="2.00808">
        <ele>2095</ele>
        <time>2019-10-05T11:00:50.000Z</time>
      </trkpt>
      <trkpt lat="42.64264" lon="2.00809">
        <ele>2094.3</ele>
        <time>2019-10-05T11:00:51.000Z</time>
      </trkpt>
      <trkpt lat="42.64267" lon="2.0081">
        <ele>2093.5</ele>
        <time>2019-10-05T11:00:52.000Z</time>
      </trkpt>
      <trkpt lat="42.64269" lon="2.00814">
        <ele>2092.7</ele>
        <time>2019-10-05T11:00:53.000Z</time>
      </trkpt>
      <trkpt lat="42.64272" lon="2.00818">
        <ele>2092</ele>
        <time>2019-10-05T11:00:54.000Z</time>
      </trkpt>
      <trkpt lat="42.64274" lon="2.00822">
        <ele>2091.3</ele>
        <time>2019-10-05T11:00:55.000Z</time>
      </trkpt>
      <trkpt lat="42.64277" lon="2.00826">
        <ele>2090.5</ele>
        <time>2019-10-05T11:00:56.000Z</time>
      </trkpt>
      <trkpt lat="42.6428" lon="2.00829">
        <ele>2089.9</ele>
        <time>2019-10-05T11:00:57.000Z</time>
      </trkpt>
      <trkpt lat="42.64283" lon="2.00832">
        <ele>2089.2</ele>
        <time>2019-10-05T11:00:58.000Z</time>
      </trkpt>
      <trkpt lat="42.64286" lon="2.00833">
        <ele>2088.6</ele>
        <time>2019-10-05T11:00:59.000Z</time>
      </trkpt>
      <trkpt lat="42.64289" lon="2.00834">
        <ele>2088</ele>
        <time>2019-10-05T11:01:00.000Z</time>
      </trkpt>
      <trkpt lat="42.64293" lon="2.00838">
        <ele>2087.2</ele>
        <time>2019-10-05T11:01:02.000Z</time>
      </trkpt>
      <trkpt lat="42.64295" lon="2.00844">
        <ele>2086.3</ele>
        <time>2019-10-05T11:01:04.000Z</time>
      </trkpt>
      <trkpt lat="42.64298" lon="2.00848">
        <ele>2085.4</ele>
        <time>2019-10-05T11:01:06.000Z</time>
      </trkpt>
      <trkpt lat="42.64301" lon="2.00851">
        <ele>2084.7</ele>
        <time>2019-10-05T11:01:07.000Z</time>
      </trkpt>
      <trkpt lat="42.64304" lon="2.00853">
        <ele>2084.5</ele>
        <time>2019-10-05T11:01:08.000Z</time>
      </trkpt>
      <trkpt lat="42.64307" lon="2.00856">
        <ele>2085</ele>
        <time>2019-10-05T11:01:09.000Z</time>
      </trkpt>
      <trkpt lat="42.6431" lon="2.00857">
        <ele>2085.7</ele>
        <time>2019-10-05T11:01:10.000Z</time>
      </trkpt>
      <trkpt lat="42.64313" lon="2.00857">
        <ele>2086.6</ele>
        <time>2019-10-05T11:01:11.000Z</time>
      </trkpt>
      <trkpt lat="42.64316" lon="2.00856">
        <ele>2087.1</ele>
        <time>2019-10-05T11:01:12.000Z</time>
      </trkpt>
      <trkpt lat="42.6432" lon="2.00854">
        <ele>2087.7</ele>
        <time>2019-10-05T11:01:14.000Z</time>
      </trkpt>
      <trkpt lat="42.64322" lon="2.00851">
        <ele>2088.9</ele>
        <time>2019-10-05T11:01:24.000Z</time>
      </trkpt>
      <trkpt lat="42.64324" lon="2.00847">
        <ele>2089.8</ele>
        <time>2019-10-05T11:01:27.000Z</time>
      </trkpt>
      <trkpt lat="42.64325" lon="2.00843">
        <ele>2090.4</ele>
        <time>2019-10-05T11:01:30.000Z</time>
      </trkpt>
      <trkpt lat="42.64328" lon="2.00839">
        <ele>2089.8</ele>
        <time>2019-10-05T11:01:32.000Z</time>
      </trkpt>
      <trkpt lat="42.6433" lon="2.00834">
        <ele>2088.1</ele>
        <time>2019-10-05T11:01:34.000Z</time>
      </trkpt>
      <trkpt lat="42.64334" lon="2.0083">
        <ele>2086.9</ele>
        <time>2019-10-05T11:01:36.000Z</time>
      </trkpt>
      <trkpt lat="42.64338" lon="2.00828">
        <ele>2085.9</ele>
        <time>2019-10-05T11:01:38.000Z</time>
      </trkpt>
      <trkpt lat="42.64341" lon="2.00828">
        <ele>2084.9</ele>
        <time>2019-10-05T11:01:39.000Z</time>
      </trkpt>
      <trkpt lat="42.64345" lon="2.00831">
        <ele>2084.3</ele>
        <time>2019-10-05T11:01:41.000Z</time>
      </trkpt>
      <trkpt lat="42.64346" lon="2.00837">
        <ele>2083.2</ele>
        <time>2019-10-05T11:01:43.000Z</time>
      </trkpt>
      <trkpt lat="42.64346" lon="2.00842">
        <ele>2081.4</ele>
        <time>2019-10-05T11:01:45.000Z</time>
      </trkpt>
      <trkpt lat="42.64348" lon="2.00845">
        <ele>2080.4</ele>
        <time>2019-10-05T11:01:47.000Z</time>
      </trkpt>
      <trkpt lat="42.64352" lon="2.00845">
        <ele>2078.9</ele>
        <time>2019-10-05T11:01:52.000Z</time>
      </trkpt>
      <trkpt lat="42.64355" lon="2.00845">
        <ele>2077.8</ele>
        <time>2019-10-05T11:01:54.000Z</time>
      </trkpt>
      <trkpt lat="42.64358" lon="2.00847">
        <ele>2076.7</ele>
        <time>2019-10-05T11:02:14.000Z</time>
      </trkpt>
      <trkpt lat="42.64359" lon="2.00851">
        <ele>2075.4</ele>
        <time>2019-10-05T11:02:18.000Z</time>
      </trkpt>
      <trkpt lat="42.6436" lon="2.00856">
        <ele>2074.3</ele>
        <time>2019-10-05T11:02:20.000Z</time>
      </trkpt>
      <trkpt lat="42.64362" lon="2.00861">
        <ele>2072.6</ele>
        <time>2019-10-05T11:02:22.000Z</time>
      </trkpt>
      <trkpt lat="42.64363" lon="2.00866">
        <ele>2071.4</ele>
        <time>2019-10-05T11:02:23.000Z</time>
      </trkpt>
      <trkpt lat="42.64364" lon="2.0087">
        <ele>2070.4</ele>
        <time>2019-10-05T11:02:24.000Z</time>
      </trkpt>
      <trkpt lat="42.64366" lon="2.00877">
        <ele>2069.2</ele>
        <time>2019-10-05T11:02:26.000Z</time>
      </trkpt>
      <trkpt lat="42.64366" lon="2.00881">
        <ele>2068.6</ele>
        <time>2019-10-05T11:02:27.000Z</time>
      </trkpt>
      <trkpt lat="42.64368" lon="2.00884">
        <ele>2067.5</ele>
        <time>2019-10-05T11:02:28.000Z</time>
      </trkpt>
      <trkpt lat="42.64369" lon="2.00889">
        <ele>2065.9</ele>
        <time>2019-10-05T11:02:30.000Z</time>
      </trkpt>
      <trkpt lat="42.6437" lon="2.00894">
        <ele>2064.7</ele>
        <time>2019-10-05T11:02:43.000Z</time>
      </trkpt>
      <trkpt lat="42.64372" lon="2.00897">
        <ele>2063.7</ele>
        <time>2019-10-05T11:02:46.000Z</time>
      </trkpt>
      <trkpt lat="42.64374" lon="2.00898">
        <ele>2062.9</ele>
        <time>2019-10-05T11:02:49.000Z</time>
      </trkpt>
      <trkpt lat="42.64375" lon="2.00903">
        <ele>2062.1</ele>
        <time>2019-10-05T11:02:56.000Z</time>
      </trkpt>
      <trkpt lat="42.64376" lon="2.00907">
        <ele>2061.3</ele>
        <time>2019-10-05T11:02:57.000Z</time>
      </trkpt>
      <trkpt lat="42.64378" lon="2.00911">
        <ele>2060.5</ele>
        <time>2019-10-05T11:02:58.000Z</time>
      </trkpt>
      <trkpt lat="42.6438" lon="2.00913">
        <ele>2059.8</ele>
        <time>2019-10-05T11:02:59.000Z</time>
      </trkpt>
      <trkpt lat="42.64384" lon="2.00916">
        <ele>2058.8</ele>
        <time>2019-10-05T11:03:00.000Z</time>
      </trkpt>
      <trkpt lat="42.64387" lon="2.00917">
        <ele>2057.9</ele>
        <time>2019-10-05T11:03:01.000Z</time>
      </trkpt>
      <trkpt lat="42.64391" lon="2.00918">
        <ele>2057.1</ele>
        <time>2019-10-05T11:03:02.000Z</time>
      </trkpt>
      <trkpt lat="42.64394" lon="2.00919">
        <ele>2056.5</ele>
        <time>2019-10-05T11:03:03.000Z</time>
      </trkpt>
      <trkpt lat="42.64397" lon="2.00922">
        <ele>2055.7</ele>
        <time>2019-10-05T11:03:05.000Z</time>
      </trkpt>
      <trkpt lat="42.64398" lon="2.00926">
        <ele>2055.3</ele>
        <time>2019-10-05T11:03:07.000Z</time>
      </trkpt>
      <trkpt lat="42.644" lon="2.00928">
        <ele>2054.8</ele>
        <time>2019-10-05T11:05:13.000Z</time>
      </trkpt>
      <trkpt lat="42.64404" lon="2.00928">
        <ele>2054.4</ele>
        <time>2019-10-05T11:05:35.000Z</time>
      </trkpt>
      <trkpt lat="42.64406" lon="2.00926">
        <ele>2054.1</ele>
        <time>2019-10-05T11:05:38.000Z</time>
      </trkpt>
      <trkpt lat="42.6441" lon="2.00924">
        <ele>2053.7</ele>
        <time>2019-10-05T11:05:41.000Z</time>
      </trkpt>
      <trkpt lat="42.64414" lon="2.00924">
        <ele>2053.7</ele>
        <time>2019-10-05T11:05:43.000Z</time>
      </trkpt>
      <trkpt lat="42.64417" lon="2.00924">
        <ele>2053.7</ele>
        <time>2019-10-05T11:05:44.000Z</time>
      </trkpt>
      <trkpt lat="42.6442" lon="2.00926">
        <ele>2053.7</ele>
        <time>2019-10-05T11:05:45.000Z</time>
      </trkpt>
      <trkpt lat="42.64423" lon="2.00926">
        <ele>2053.7</ele>
        <time>2019-10-05T11:05:46.000Z</time>
      </trkpt>
      <trkpt lat="42.64426" lon="2.00927">
        <ele>2053.3</ele>
        <time>2019-10-05T11:05:47.000Z</time>
      </trkpt>
      <trkpt lat="42.6443" lon="2.00927">
        <ele>2052.3</ele>
        <time>2019-10-05T11:05:49.000Z</time>
      </trkpt>
      <trkpt lat="42.64432" lon="2.00926">
        <ele>2051.6</ele>
        <time>2019-10-05T11:05:58.000Z</time>
      </trkpt>
      <trkpt lat="42.64435" lon="2.00925">
        <ele>2051.2</ele>
        <time>2019-10-05T11:06:03.000Z</time>
      </trkpt>
      <trkpt lat="42.64437" lon="2.00922">
        <ele>2050.7</ele>
        <time>2019-10-05T11:06:05.000Z</time>
      </trkpt>
      <trkpt lat="42.6444" lon="2.00921">
        <ele>2050.1</ele>
        <time>2019-10-05T11:06:10.000Z</time>
      </trkpt>
      <trkpt lat="42.64443" lon="2.00919">
        <ele>2049.1</ele>
        <time>2019-10-05T11:06:15.000Z</time>
      </trkpt>
      <trkpt lat="42.64445" lon="2.00918">
        <ele>2048.2</ele>
        <time>2019-10-05T11:06:17.000Z</time>
      </trkpt>
      <trkpt lat="42.64449" lon="2.00919">
        <ele>2047.1</ele>
        <time>2019-10-05T11:06:19.000Z</time>
      </trkpt>
      <trkpt lat="42.64452" lon="2.00918">
        <ele>2046.4</ele>
        <time>2019-10-05T11:06:26.000Z</time>
      </trkpt>
      <trkpt lat="42.64456" lon="2.00921">
        <ele>2044.8</ele>
        <time>2019-10-05T11:06:32.000Z</time>
      </trkpt>
      <trkpt lat="42.64458" lon="2.00924">
        <ele>2043.5</ele>
        <time>2019-10-05T11:06:34.000Z</time>
      </trkpt>
      <trkpt lat="42.64461" lon="2.00925">
        <ele>2042.3</ele>
        <time>2019-10-05T11:06:36.000Z</time>
      </trkpt>
      <trkpt lat="42.64465" lon="2.00928">
        <ele>2040.4</ele>
        <time>2019-10-05T11:06:38.000Z</time>
      </trkpt>
      <trkpt lat="42.64468" lon="2.00931">
        <ele>2039.4</ele>
        <time>2019-10-05T11:06:39.000Z</time>
      </trkpt>
      <trkpt lat="42.64472" lon="2.00936">
        <ele>2037.9</ele>
        <time>2019-10-05T11:06:40.000Z</time>
      </trkpt>
      <trkpt lat="42.64477" lon="2.0094">
        <ele>2036.3</ele>
        <time>2019-10-05T11:06:41.000Z</time>
      </trkpt>
      <trkpt lat="42.64481" lon="2.00945">
        <ele>2034.7</ele>
        <time>2019-10-05T11:06:42.000Z</time>
      </trkpt>
      <trkpt lat="42.64485" lon="2.00951">
        <ele>2033.3</ele>
        <time>2019-10-05T11:06:43.000Z</time>
      </trkpt>
      <trkpt lat="42.6449" lon="2.00954">
        <ele>2032.1</ele>
        <time>2019-10-05T11:06:44.000Z</time>
      </trkpt>
      <trkpt lat="42.64495" lon="2.00957">
        <ele>2030.8</ele>
        <time>2019-10-05T11:06:45.000Z</time>
      </trkpt>
      <trkpt lat="42.64499" lon="2.00958">
        <ele>2029.6</ele>
        <time>2019-10-05T11:06:46.000Z</time>
      </trkpt>
      <trkpt lat="42.64503" lon="2.0096">
        <ele>2028.2</ele>
        <time>2019-10-05T11:06:47.000Z</time>
      </trkpt>
      <trkpt lat="42.64506" lon="2.00962">
        <ele>2027.4</ele>
        <time>2019-10-05T11:06:48.000Z</time>
      </trkpt>
      <trkpt lat="42.64509" lon="2.00965">
        <ele>2026.5</ele>
        <time>2019-10-05T11:06:49.000Z</time>
      </trkpt>
      <trkpt lat="42.64513" lon="2.00967">
        <ele>2025.5</ele>
        <time>2019-10-05T11:06:50.000Z</time>
      </trkpt>
      <trkpt lat="42.64517" lon="2.00969">
        <ele>2024.5</ele>
        <time>2019-10-05T11:06:51.000Z</time>
      </trkpt>
      <trkpt lat="42.64521" lon="2.00971">
        <ele>2023.5</ele>
        <time>2019-10-05T11:06:53.000Z</time>
      </trkpt>
      <trkpt lat="42.64524" lon="2.00972">
        <ele>2022.8</ele>
        <time>2019-10-05T11:07:10.000Z</time>
      </trkpt>
      <trkpt lat="42.64527" lon="2.00974">
        <ele>2022.1</ele>
        <time>2019-10-05T11:07:13.000Z</time>
      </trkpt>
      <trkpt lat="42.6453" lon="2.00976">
        <ele>2021.3</ele>
        <time>2019-10-05T11:07:15.000Z</time>
      </trkpt>
      <trkpt lat="42.64533" lon="2.00978">
        <ele>2020.7</ele>
        <time>2019-10-05T11:07:17.000Z</time>
      </trkpt>
      <trkpt lat="42.64537" lon="2.00982">
        <ele>2019.2</ele>
        <time>2019-10-05T11:07:19.000Z</time>
      </trkpt>
      <trkpt lat="42.64539" lon="2.00985">
        <ele>2018.5</ele>
        <time>2019-10-05T11:07:21.000Z</time>
      </trkpt>
      <trkpt lat="42.64543" lon="2.00988">
        <ele>2017.6</ele>
        <time>2019-10-05T11:07:23.000Z</time>
      </trkpt>
      <trkpt lat="42.64545" lon="2.00991">
        <ele>2016.8</ele>
        <time>2019-10-05T11:07:24.000Z</time>
      </trkpt>
      <trkpt lat="42.64547" lon="2.00994">
        <ele>2016</ele>
        <time>2019-10-05T11:07:25.000Z</time>
      </trkpt>
      <trkpt lat="42.64548" lon="2.00997">
        <ele>2015.3</ele>
        <time>2019-10-05T11:07:26.000Z</time>
      </trkpt>
      <trkpt lat="42.6455" lon="2.01001">
        <ele>2014.6</ele>
        <time>2019-10-05T11:07:27.000Z</time>
      </trkpt>
      <trkpt lat="42.64552" lon="2.01005">
        <ele>2013.8</ele>
        <time>2019-10-05T11:07:28.000Z</time>
      </trkpt>
      <trkpt lat="42.64554" lon="2.01009">
        <ele>2012.6</ele>
        <time>2019-10-05T11:07:29.000Z</time>
      </trkpt>
      <trkpt lat="42.64556" lon="2.01013">
        <ele>2011.7</ele>
        <time>2019-10-05T11:07:30.000Z</time>
      </trkpt>
      <trkpt lat="42.64558" lon="2.01017">
        <ele>2011</ele>
        <time>2019-10-05T11:07:31.000Z</time>
      </trkpt>
      <trkpt lat="42.64559" lon="2.0102">
        <ele>2010.8</ele>
        <time>2019-10-05T11:07:32.000Z</time>
      </trkpt>
      <trkpt lat="42.6456" lon="2.01023">
        <ele>2010.7</ele>
        <time>2019-10-05T11:07:33.000Z</time>
      </trkpt>
      <trkpt lat="42.64561" lon="2.01027">
        <ele>2010.1</ele>
        <time>2019-10-05T11:07:34.000Z</time>
      </trkpt>
      <trkpt lat="42.64561" lon="2.01031">
        <ele>2009.4</ele>
        <time>2019-10-05T11:07:35.000Z</time>
      </trkpt>
      <trkpt lat="42.6456" lon="2.01036">
        <ele>2008.8</ele>
        <time>2019-10-05T11:07:36.000Z</time>
      </trkpt>
      <trkpt lat="42.6456" lon="2.0104">
        <ele>2008.2</ele>
        <time>2019-10-05T11:07:37.000Z</time>
      </trkpt>
      <trkpt lat="42.64559" lon="2.01045">
        <ele>2007.6</ele>
        <time>2019-10-05T11:07:38.000Z</time>
      </trkpt>
      <trkpt lat="42.64558" lon="2.0105">
        <ele>2006.8</ele>
        <time>2019-10-05T11:07:39.000Z</time>
      </trkpt>
      <trkpt lat="42.64558" lon="2.01056">
        <ele>2006</ele>
        <time>2019-10-05T11:07:40.000Z</time>
      </trkpt>
      <trkpt lat="42.64557" lon="2.01061">
        <ele>2005.2</ele>
        <time>2019-10-05T11:07:41.000Z</time>
      </trkpt>
      <trkpt lat="42.64557" lon="2.01066">
        <ele>2004.4</ele>
        <time>2019-10-05T11:07:42.000Z</time>
      </trkpt>
      <trkpt lat="42.64558" lon="2.01071">
        <ele>2003.7</ele>
        <time>2019-10-05T11:07:43.000Z</time>
      </trkpt>
      <trkpt lat="42.64558" lon="2.01075">
        <ele>2003.5</ele>
        <time>2019-10-05T11:07:44.000Z</time>
      </trkpt>
      <trkpt lat="42.64559" lon="2.01079">
        <ele>2003.3</ele>
        <time>2019-10-05T11:07:45.000Z</time>
      </trkpt>
      <trkpt lat="42.64559" lon="2.01085">
        <ele>2002.6</ele>
        <time>2019-10-05T11:07:47.000Z</time>
      </trkpt>
      <trkpt lat="42.64561" lon="2.01089">
        <ele>2001.9</ele>
        <time>2019-10-05T11:07:49.000Z</time>
      </trkpt>
      <trkpt lat="42.64563" lon="2.01095">
        <ele>2001.1</ele>
        <time>2019-10-05T11:07:51.000Z</time>
      </trkpt>
      <trkpt lat="42.64561" lon="2.01101">
        <ele>2000.3</ele>
        <time>2019-10-05T11:07:53.000Z</time>
      </trkpt>
      <trkpt lat="42.64558" lon="2.01107">
        <ele>1998.9</ele>
        <time>2019-10-05T11:07:55.000Z</time>
      </trkpt>
      <trkpt lat="42.64559" lon="2.01111">
        <ele>1998.1</ele>
        <time>2019-10-05T11:08:55.000Z</time>
      </trkpt>
      <trkpt lat="42.64561" lon="2.01113">
        <ele>1996.8</ele>
        <time>2019-10-05T11:09:00.000Z</time>
      </trkpt>
      <trkpt lat="42.64562" lon="2.01118">
        <ele>1995.3</ele>
        <time>2019-10-05T11:09:02.000Z</time>
      </trkpt>
      <trkpt lat="42.64563" lon="2.01126">
        <ele>1994</ele>
        <time>2019-10-05T11:09:04.000Z</time>
      </trkpt>
      <trkpt lat="42.64563" lon="2.01131">
        <ele>1993.1</ele>
        <time>2019-10-05T11:09:06.000Z</time>
      </trkpt>
      <trkpt lat="42.64564" lon="2.01137">
        <ele>1992.1</ele>
        <time>2019-10-05T11:09:08.000Z</time>
      </trkpt>
      <trkpt lat="42.64565" lon="2.01142">
        <ele>1991.3</ele>
        <time>2019-10-05T11:09:10.000Z</time>
      </trkpt>
      <trkpt lat="42.64565" lon="2.01149">
        <ele>1990.2</ele>
        <time>2019-10-05T11:09:12.000Z</time>
      </trkpt>
      <trkpt lat="42.64564" lon="2.01153">
        <ele>1989.2</ele>
        <time>2019-10-05T11:09:13.000Z</time>
      </trkpt>
      <trkpt lat="42.64563" lon="2.01157">
        <ele>1988.3</ele>
        <time>2019-10-05T11:09:14.000Z</time>
      </trkpt>
      <trkpt lat="42.64563" lon="2.01161">
        <ele>1987.5</ele>
        <time>2019-10-05T11:09:15.000Z</time>
      </trkpt>
      <trkpt lat="42.64563" lon="2.01166">
        <ele>1986.8</ele>
        <time>2019-10-05T11:09:16.000Z</time>
      </trkpt>
      <trkpt lat="42.64564" lon="2.01171">
        <ele>1986</ele>
        <time>2019-10-05T11:09:17.000Z</time>
      </trkpt>
      <trkpt lat="42.64565" lon="2.01176">
        <ele>1985.2</ele>
        <time>2019-10-05T11:09:18.000Z</time>
      </trkpt>
      <trkpt lat="42.64565" lon="2.01181">
        <ele>1983.9</ele>
        <time>2019-10-05T11:09:19.000Z</time>
      </trkpt>
      <trkpt lat="42.64566" lon="2.01185">
        <ele>1982.7</ele>
        <time>2019-10-05T11:09:20.000Z</time>
      </trkpt>
      <trkpt lat="42.64567" lon="2.01189">
        <ele>1981.8</ele>
        <time>2019-10-05T11:09:21.000Z</time>
      </trkpt>
      <trkpt lat="42.64568" lon="2.01193">
        <ele>1980.8</ele>
        <time>2019-10-05T11:09:22.000Z</time>
      </trkpt>
      <trkpt lat="42.64569" lon="2.01197">
        <ele>1979.9</ele>
        <time>2019-10-05T11:09:23.000Z</time>
      </trkpt>
      <trkpt lat="42.6457" lon="2.01201">
        <ele>1979.1</ele>
        <time>2019-10-05T11:09:24.000Z</time>
      </trkpt>
      <trkpt lat="42.64571" lon="2.01205">
        <ele>1978.3</ele>
        <time>2019-10-05T11:09:26.000Z</time>
      </trkpt>
      <trkpt lat="42.64572" lon="2.01209">
        <ele>1977.5</ele>
        <time>2019-10-05T11:09:29.000Z</time>
      </trkpt>
      <trkpt lat="42.64571" lon="2.01213">
        <ele>1976.8</ele>
        <time>2019-10-05T11:09:32.000Z</time>
      </trkpt>
      <trkpt lat="42.64569" lon="2.01217">
        <ele>1976.3</ele>
        <time>2019-10-05T11:09:36.000Z</time>
      </trkpt>
      <trkpt lat="42.64568" lon="2.01222">
        <ele>1975.9</ele>
        <time>2019-10-05T11:09:38.000Z</time>
      </trkpt>
      <trkpt lat="42.64569" lon="2.01228">
        <ele>1974.5</ele>
        <time>2019-10-05T11:09:40.000Z</time>
      </trkpt>
      <trkpt lat="42.64569" lon="2.01235">
        <ele>1972.7</ele>
        <time>2019-10-05T11:09:42.000Z</time>
      </trkpt>
      <trkpt lat="42.64571" lon="2.01242">
        <ele>1971.4</ele>
        <time>2019-10-05T11:09:44.000Z</time>
      </trkpt>
      <trkpt lat="42.64571" lon="2.01246">
        <ele>1970.7</ele>
        <time>2019-10-05T11:09:45.000Z</time>
      </trkpt>
      <trkpt lat="42.64572" lon="2.0125">
        <ele>1970.1</ele>
        <time>2019-10-05T11:09:46.000Z</time>
      </trkpt>
      <trkpt lat="42.64573" lon="2.01256">
        <ele>1969.3</ele>
        <time>2019-10-05T11:09:48.000Z</time>
      </trkpt>
      <trkpt lat="42.64572" lon="2.01262">
        <ele>1968.1</ele>
        <time>2019-10-05T11:09:50.000Z</time>
      </trkpt>
      <trkpt lat="42.64572" lon="2.01266">
        <ele>1967.3</ele>
        <time>2019-10-05T11:09:51.000Z</time>
      </trkpt>
      <trkpt lat="42.64572" lon="2.01271">
        <ele>1966.5</ele>
        <time>2019-10-05T11:09:53.000Z</time>
      </trkpt>
      <trkpt lat="42.64571" lon="2.01276">
        <ele>1965.8</ele>
        <time>2019-10-05T11:09:55.000Z</time>
      </trkpt>
      <trkpt lat="42.6457" lon="2.01281">
        <ele>1965.1</ele>
        <time>2019-10-05T11:09:57.000Z</time>
      </trkpt>
      <trkpt lat="42.64568" lon="2.01285">
        <ele>1963.9</ele>
        <time>2019-10-05T11:09:59.000Z</time>
      </trkpt>
      <trkpt lat="42.64568" lon="2.0129">
        <ele>1962.9</ele>
        <time>2019-10-05T11:10:01.000Z</time>
      </trkpt>
      <trkpt lat="42.64567" lon="2.01296">
        <ele>1961.9</ele>
        <time>2019-10-05T11:10:03.000Z</time>
      </trkpt>
      <trkpt lat="42.64567" lon="2.013">
        <ele>1961.2</ele>
        <time>2019-10-05T11:10:04.000Z</time>
      </trkpt>
      <trkpt lat="42.64567" lon="2.01304">
        <ele>1960.5</ele>
        <time>2019-10-05T11:10:05.000Z</time>
      </trkpt>
      <trkpt lat="42.64567" lon="2.01308">
        <ele>1959.7</ele>
        <time>2019-10-05T11:10:06.000Z</time>
      </trkpt>
      <trkpt lat="42.64567" lon="2.01312">
        <ele>1959</ele>
        <time>2019-10-05T11:10:07.000Z</time>
      </trkpt>
      <trkpt lat="42.64566" lon="2.01316">
        <ele>1958.3</ele>
        <time>2019-10-05T11:10:08.000Z</time>
      </trkpt>
      <trkpt lat="42.64565" lon="2.01322">
        <ele>1957.7</ele>
        <time>2019-10-05T11:10:09.000Z</time>
      </trkpt>
      <trkpt lat="42.64564" lon="2.01328">
        <ele>1957.2</ele>
        <time>2019-10-05T11:10:10.000Z</time>
      </trkpt>
      <trkpt lat="42.64563" lon="2.01332">
        <ele>1956.4</ele>
        <time>2019-10-05T11:10:11.000Z</time>
      </trkpt>
      <trkpt lat="42.64564" lon="2.01343">
        <ele>1953.7</ele>
        <time>2019-10-05T11:10:12.000Z</time>
      </trkpt>
      <trkpt lat="42.64563" lon="2.01353">
        <ele>1951.1</ele>
        <time>2019-10-05T11:10:14.000Z</time>
      </trkpt>
      <trkpt lat="42.64562" lon="2.01358">
        <ele>1950.2</ele>
        <time>2019-10-05T11:10:16.000Z</time>
      </trkpt>
      <trkpt lat="42.6456" lon="2.01363">
        <ele>1949.5</ele>
        <time>2019-10-05T11:10:17.000Z</time>
      </trkpt>
      <trkpt lat="42.64557" lon="2.01368">
        <ele>1948.9</ele>
        <time>2019-10-05T11:10:18.000Z</time>
      </trkpt>
      <trkpt lat="42.64556" lon="2.01371">
        <ele>1948.5</ele>
        <time>2019-10-05T11:10:19.000Z</time>
      </trkpt>
      <trkpt lat="42.64555" lon="2.01379">
        <ele>1946.9</ele>
        <time>2019-10-05T11:10:20.000Z</time>
      </trkpt>
      <trkpt lat="42.64554" lon="2.01386">
        <ele>1945.8</ele>
        <time>2019-10-05T11:10:21.000Z</time>
      </trkpt>
      <trkpt lat="42.64554" lon="2.01392">
        <ele>1944.8</ele>
        <time>2019-10-05T11:10:22.000Z</time>
      </trkpt>
      <trkpt lat="42.64553" lon="2.01398">
        <ele>1943.6</ele>
        <time>2019-10-05T11:10:23.000Z</time>
      </trkpt>
      <trkpt lat="42.64553" lon="2.01403">
        <ele>1942.8</ele>
        <time>2019-10-05T11:10:25.000Z</time>
      </trkpt>
      <trkpt lat="42.64554" lon="2.0141">
        <ele>1941.9</ele>
        <time>2019-10-05T11:10:31.000Z</time>
      </trkpt>
      <trkpt lat="42.64555" lon="2.01412">
        <ele>1941.3</ele>
        <time>2019-10-05T11:10:32.000Z</time>
      </trkpt>
      <trkpt lat="42.64554" lon="2.01418">
        <ele>1940.3</ele>
        <time>2019-10-05T11:10:34.000Z</time>
      </trkpt>
      <trkpt lat="42.64554" lon="2.01425">
        <ele>1937.8</ele>
        <time>2019-10-05T11:10:36.000Z</time>
      </trkpt>
      <trkpt lat="42.64554" lon="2.0143">
        <ele>1936.5</ele>
        <time>2019-10-05T11:10:40.000Z</time>
      </trkpt>
      <trkpt lat="42.64553" lon="2.01436">
        <ele>1936.3</ele>
        <time>2019-10-05T11:10:42.000Z</time>
      </trkpt>
      <trkpt lat="42.64552" lon="2.0144">
        <ele>1935.3</ele>
        <time>2019-10-05T11:10:43.000Z</time>
      </trkpt>
      <trkpt lat="42.64551" lon="2.01445">
        <ele>1934.2</ele>
        <time>2019-10-05T11:10:45.000Z</time>
      </trkpt>
      <trkpt lat="42.64552" lon="2.01448">
        <ele>1933.8</ele>
        <time>2019-10-05T11:10:53.000Z</time>
      </trkpt>
      <trkpt lat="42.64553" lon="2.01452">
        <ele>1933.4</ele>
        <time>2019-10-05T11:10:55.000Z</time>
      </trkpt>
      <trkpt lat="42.64553" lon="2.01455">
        <ele>1933</ele>
        <time>2019-10-05T11:11:01.000Z</time>
      </trkpt>
      <trkpt lat="42.64554" lon="2.01459">
        <ele>1932.6</ele>
        <time>2019-10-05T11:11:08.000Z</time>
      </trkpt>
      <trkpt lat="42.64555" lon="2.01465">
        <ele>1932</ele>
        <time>2019-10-05T11:13:17.000Z</time>
      </trkpt>
      <trkpt lat="42.64555" lon="2.01471">
        <ele>1930.6</ele>
        <time>2019-10-05T11:13:19.000Z</time>
      </trkpt>
      <trkpt lat="42.64554" lon="2.01477">
        <ele>1929.4</ele>
        <time>2019-10-05T11:13:21.000Z</time>
      </trkpt>
      <trkpt lat="42.64553" lon="2.01481">
        <ele>1928.8</ele>
        <time>2019-10-05T11:13:22.000Z</time>
      </trkpt>
      <trkpt lat="42.64553" lon="2.01488">
        <ele>1927.7</ele>
        <time>2019-10-05T11:13:24.000Z</time>
      </trkpt>
      <trkpt lat="42.64553" lon="2.01492">
        <ele>1927</ele>
        <time>2019-10-05T11:13:26.000Z</time>
      </trkpt>
      <trkpt lat="42.64553" lon="2.01497">
        <ele>1926.2</ele>
        <time>2019-10-05T11:13:29.000Z</time>
      </trkpt>
      <trkpt lat="42.64552" lon="2.01501">
        <ele>1925</ele>
        <time>2019-10-05T11:13:31.000Z</time>
      </trkpt>
      <trkpt lat="42.64552" lon="2.01508">
        <ele>1923.8</ele>
        <time>2019-10-05T11:13:33.000Z</time>
      </trkpt>
      <trkpt lat="42.64554" lon="2.01519">
        <ele>1922.2</ele>
        <time>2019-10-05T11:13:34.000Z</time>
      </trkpt>
      <trkpt lat="42.64556" lon="2.01526">
        <ele>1920.8</ele>
        <time>2019-10-05T11:13:35.000Z</time>
      </trkpt>
      <trkpt lat="42.64557" lon="2.01532">
        <ele>1919.5</ele>
        <time>2019-10-05T11:13:36.000Z</time>
      </trkpt>
      <trkpt lat="42.64561" lon="2.01538">
        <ele>1917.8</ele>
        <time>2019-10-05T11:13:38.000Z</time>
      </trkpt>
      <trkpt lat="42.64563" lon="2.01541">
        <ele>1917</ele>
        <time>2019-10-05T11:13:39.000Z</time>
      </trkpt>
      <trkpt lat="42.64566" lon="2.01543">
        <ele>1916.2</ele>
        <time>2019-10-05T11:13:41.000Z</time>
      </trkpt>
      <trkpt lat="42.64566" lon="2.01548">
        <ele>1915.7</ele>
        <time>2019-10-05T11:13:43.000Z</time>
      </trkpt>
      <trkpt lat="42.64567" lon="2.01551">
        <ele>1915.4</ele>
        <time>2019-10-05T11:13:59.000Z</time>
      </trkpt>
      <trkpt lat="42.64568" lon="2.01555">
        <ele>1915</ele>
        <time>2019-10-05T11:14:02.000Z</time>
      </trkpt>
      <trkpt lat="42.64569" lon="2.01559">
        <ele>1914.6</ele>
        <time>2019-10-05T11:14:04.000Z</time>
      </trkpt>
      <trkpt lat="42.64571" lon="2.01561">
        <ele>1914.1</ele>
        <time>2019-10-05T11:14:10.000Z</time>
      </trkpt>
      <trkpt lat="42.6457" lon="2.01565">
        <ele>1913.6</ele>
        <time>2019-10-05T11:14:13.000Z</time>
      </trkpt>
      <trkpt lat="42.64569" lon="2.01568">
        <ele>1912.9</ele>
        <time>2019-10-05T11:14:15.000Z</time>
      </trkpt>
      <trkpt lat="42.64566" lon="2.0157">
        <ele>1912.2</ele>
        <time>2019-10-05T11:14:21.000Z</time>
      </trkpt>
      <trkpt lat="42.64567" lon="2.01575">
        <ele>1911.4</ele>
        <time>2019-10-05T11:14:24.000Z</time>
      </trkpt>
      <trkpt lat="42.64567" lon="2.0158">
        <ele>1911</ele>
        <time>2019-10-05T11:14:28.000Z</time>
      </trkpt>
      <trkpt lat="42.64567" lon="2.01585">
        <ele>1910.6</ele>
        <time>2019-10-05T11:14:31.000Z</time>
      </trkpt>
      <trkpt lat="42.64566" lon="2.01589">
        <ele>1910</ele>
        <time>2019-10-05T11:14:33.000Z</time>
      </trkpt>
      <trkpt lat="42.64564" lon="2.01596">
        <ele>1908.9</ele>
        <time>2019-10-05T11:14:35.000Z</time>
      </trkpt>
      <trkpt lat="42.64564" lon="2.016">
        <ele>1908.4</ele>
        <time>2019-10-05T11:14:36.000Z</time>
      </trkpt>
      <trkpt lat="42.64564" lon="2.01604">
        <ele>1907.8</ele>
        <time>2019-10-05T11:14:37.000Z</time>
      </trkpt>
      <trkpt lat="42.64564" lon="2.01608">
        <ele>1907.4</ele>
        <time>2019-10-05T11:14:38.000Z</time>
      </trkpt>
      <trkpt lat="42.64563" lon="2.01612">
        <ele>1906.8</ele>
        <time>2019-10-05T11:14:40.000Z</time>
      </trkpt>
      <trkpt lat="42.64563" lon="2.01616">
        <ele>1906.3</ele>
        <time>2019-10-05T11:14:43.000Z</time>
      </trkpt>
      <trkpt lat="42.64562" lon="2.01621">
        <ele>1905.5</ele>
        <time>2019-10-05T11:14:46.000Z</time>
      </trkpt>
      <trkpt lat="42.64561" lon="2.01626">
        <ele>1904.8</ele>
        <time>2019-10-05T11:14:47.000Z</time>
      </trkpt>
      <trkpt lat="42.6456" lon="2.01632">
        <ele>1904</ele>
        <time>2019-10-05T11:14:48.000Z</time>
      </trkpt>
      <trkpt lat="42.64561" lon="2.01641">
        <ele>1903.4</ele>
        <time>2019-10-05T11:14:49.000Z</time>
      </trkpt>
      <trkpt lat="42.64558" lon="2.01646">
        <ele>1903</ele>
        <time>2019-10-05T11:14:50.000Z</time>
      </trkpt>
      <trkpt lat="42.64556" lon="2.0165">
        <ele>1902.5</ele>
        <time>2019-10-05T11:14:51.000Z</time>
      </trkpt>
      <trkpt lat="42.64555" lon="2.01657">
        <ele>1901.9</ele>
        <time>2019-10-05T11:14:52.000Z</time>
      </trkpt>
      <trkpt lat="42.64553" lon="2.01661">
        <ele>1901.8</ele>
        <time>2019-10-05T11:14:53.000Z</time>
      </trkpt>
      <trkpt lat="42.6455" lon="2.01665">
        <ele>1901.9</ele>
        <time>2019-10-05T11:14:54.000Z</time>
      </trkpt>
      <trkpt lat="42.64549" lon="2.01671">
        <ele>1901.7</ele>
        <time>2019-10-05T11:14:55.000Z</time>
      </trkpt>
      <trkpt lat="42.64547" lon="2.01673">
        <ele>1901.6</ele>
        <time>2019-10-05T11:14:56.000Z</time>
      </trkpt>
      <trkpt lat="42.64544" lon="2.01675">
        <ele>1901.4</ele>
        <time>2019-10-05T11:14:57.000Z</time>
      </trkpt>
      <trkpt lat="42.6454" lon="2.01679">
        <ele>1901.2</ele>
        <time>2019-10-05T11:14:59.000Z</time>
      </trkpt>
      <trkpt lat="42.64537" lon="2.01681">
        <ele>1901.2</ele>
        <time>2019-10-05T11:15:00.000Z</time>
      </trkpt>
      <trkpt lat="42.64535" lon="2.01684">
        <ele>1901.3</ele>
        <time>2019-10-05T11:15:01.000Z</time>
      </trkpt>
      <trkpt lat="42.64533" lon="2.01687">
        <ele>1901.3</ele>
        <time>2019-10-05T11:15:02.000Z</time>
      </trkpt>
      <trkpt lat="42.64532" lon="2.0169">
        <ele>1901.2</ele>
        <time>2019-10-05T11:15:03.000Z</time>
      </trkpt>
      <trkpt lat="42.6453" lon="2.01693">
        <ele>1901.2</ele>
        <time>2019-10-05T11:15:04.000Z</time>
      </trkpt>
      <trkpt lat="42.64528" lon="2.01698">
        <ele>1901</ele>
        <time>2019-10-05T11:15:06.000Z</time>
      </trkpt>
      <trkpt lat="42.64525" lon="2.01701">
        <ele>1900.8</ele>
        <time>2019-10-05T11:16:10.000Z</time>
      </trkpt>
      <trkpt lat="42.64522" lon="2.01703">
        <ele>1900.6</ele>
        <time>2019-10-05T11:16:12.000Z</time>
      </trkpt>
      <trkpt lat="42.6452" lon="2.01708">
        <ele>1900.4</ele>
        <time>2019-10-05T11:16:14.000Z</time>
      </trkpt>
      <trkpt lat="42.64517" lon="2.01715">
        <ele>1900.2</ele>
        <time>2019-10-05T11:16:16.000Z</time>
      </trkpt>
      <trkpt lat="42.64515" lon="2.01718">
        <ele>1900</ele>
        <time>2019-10-05T11:16:17.000Z</time>
      </trkpt>
      <trkpt lat="42.64514" lon="2.01723">
        <ele>1899.8</ele>
        <time>2019-10-05T11:16:18.000Z</time>
      </trkpt>
      <trkpt lat="42.64513" lon="2.01728">
        <ele>1899.6</ele>
        <time>2019-10-05T11:16:19.000Z</time>
      </trkpt>
      <trkpt lat="42.64512" lon="2.01734">
        <ele>1899.6</ele>
        <time>2019-10-05T11:16:20.000Z</time>
      </trkpt>
      <trkpt lat="42.6451" lon="2.01739">
        <ele>1899.6</ele>
        <time>2019-10-05T11:16:21.000Z</time>
      </trkpt>
      <trkpt lat="42.64509" lon="2.01744">
        <ele>1899.6</ele>
        <time>2019-10-05T11:16:22.000Z</time>
      </trkpt>
      <trkpt lat="42.64507" lon="2.01749">
        <ele>1899.6</ele>
        <time>2019-10-05T11:16:23.000Z</time>
      </trkpt>
      <trkpt lat="42.64506" lon="2.01753">
        <ele>1899.6</ele>
        <time>2019-10-05T11:16:24.000Z</time>
      </trkpt>
      <trkpt lat="42.64504" lon="2.01757">
        <ele>1899.7</ele>
        <time>2019-10-05T11:16:25.000Z</time>
      </trkpt>
      <trkpt lat="42.64503" lon="2.01762">
        <ele>1899.7</ele>
        <time>2019-10-05T11:16:26.000Z</time>
      </trkpt>
      <trkpt lat="42.64502" lon="2.01767">
        <ele>1899.5</ele>
        <time>2019-10-05T11:16:27.000Z</time>
      </trkpt>
      <trkpt lat="42.645" lon="2.01772">
        <ele>1899.4</ele>
        <time>2019-10-05T11:16:28.000Z</time>
      </trkpt>
      <trkpt lat="42.64499" lon="2.01775">
        <ele>1899.3</ele>
        <time>2019-10-05T11:16:29.000Z</time>
      </trkpt>
      <trkpt lat="42.64498" lon="2.01779">
        <ele>1899.2</ele>
        <time>2019-10-05T11:16:30.000Z</time>
      </trkpt>
      <trkpt lat="42.64496" lon="2.01783">
        <ele>1899.1</ele>
        <time>2019-10-05T11:16:31.000Z</time>
      </trkpt>
      <trkpt lat="42.64495" lon="2.01786">
        <ele>1898.8</ele>
        <time>2019-10-05T11:16:32.000Z</time>
      </trkpt>
      <trkpt lat="42.64493" lon="2.01789">
        <ele>1898.4</ele>
        <time>2019-10-05T11:16:33.000Z</time>
      </trkpt>
      <trkpt lat="42.64491" lon="2.01793">
        <ele>1898</ele>
        <time>2019-10-05T11:16:34.000Z</time>
      </trkpt>
      <trkpt lat="42.64489" lon="2.01797">
        <ele>1897.6</ele>
        <time>2019-10-05T11:16:35.000Z</time>
      </trkpt>
      <trkpt lat="42.64487" lon="2.01802">
        <ele>1897.2</ele>
        <time>2019-10-05T11:16:36.000Z</time>
      </trkpt>
      <trkpt lat="42.64486" lon="2.01807">
        <ele>1896.5</ele>
        <time>2019-10-05T11:16:37.000Z</time>
      </trkpt>
      <trkpt lat="42.64485" lon="2.01813">
        <ele>1895.7</ele>
        <time>2019-10-05T11:16:38.000Z</time>
      </trkpt>
      <trkpt lat="42.64484" lon="2.01819">
        <ele>1895.2</ele>
        <time>2019-10-05T11:16:39.000Z</time>
      </trkpt>
      <trkpt lat="42.64482" lon="2.01828">
        <ele>1894.7</ele>
        <time>2019-10-05T11:16:40.000Z</time>
      </trkpt>
      <trkpt lat="42.64481" lon="2.01835">
        <ele>1894.4</ele>
        <time>2019-10-05T11:16:41.000Z</time>
      </trkpt>
      <trkpt lat="42.64479" lon="2.0184">
        <ele>1894.2</ele>
        <time>2019-10-05T11:16:42.000Z</time>
      </trkpt>
      <trkpt lat="42.64478" lon="2.01847">
        <ele>1894</ele>
        <time>2019-10-05T11:16:43.000Z</time>
      </trkpt>
      <trkpt lat="42.64477" lon="2.01854">
        <ele>1893.6</ele>
        <time>2019-10-05T11:16:44.000Z</time>
      </trkpt>
      <trkpt lat="42.64475" lon="2.01857">
        <ele>1893.4</ele>
        <time>2019-10-05T11:16:45.000Z</time>
      </trkpt>
      <trkpt lat="42.64473" lon="2.01862">
        <ele>1893.1</ele>
        <time>2019-10-05T11:16:46.000Z</time>
      </trkpt>
      <trkpt lat="42.64473" lon="2.01866">
        <ele>1892.9</ele>
        <time>2019-10-05T11:16:47.000Z</time>
      </trkpt>
      <trkpt lat="42.64473" lon="2.01872">
        <ele>1892.5</ele>
        <time>2019-10-05T11:16:49.000Z</time>
      </trkpt>
      <trkpt lat="42.64471" lon="2.01878">
        <ele>1892</ele>
        <time>2019-10-05T11:16:51.000Z</time>
      </trkpt>
      <trkpt lat="42.6447" lon="2.01882">
        <ele>1891.6</ele>
        <time>2019-10-05T11:16:52.000Z</time>
      </trkpt>
      <trkpt lat="42.64469" lon="2.01885">
        <ele>1891.1</ele>
        <time>2019-10-05T11:16:55.000Z</time>
      </trkpt>
      <trkpt lat="42.64471" lon="2.01889">
        <ele>1890.5</ele>
        <time>2019-10-05T11:16:58.000Z</time>
      </trkpt>
      <trkpt lat="42.64473" lon="2.01893">
        <ele>1889.7</ele>
        <time>2019-10-05T11:17:13.000Z</time>
      </trkpt>
      <trkpt lat="42.64475" lon="2.01896">
        <ele>1888.9</ele>
        <time>2019-10-05T11:17:16.000Z</time>
      </trkpt>
      <trkpt lat="42.64477" lon="2.019">
        <ele>1888</ele>
        <time>2019-10-05T11:17:18.000Z</time>
      </trkpt>
      <trkpt lat="42.64477" lon="2.01904">
        <ele>1887.2</ele>
        <time>2019-10-05T11:17:20.000Z</time>
      </trkpt>
      <trkpt lat="42.64479" lon="2.01907">
        <ele>1886.5</ele>
        <time>2019-10-05T11:17:35.000Z</time>
      </trkpt>
      <trkpt lat="42.6448" lon="2.0191">
        <ele>1885.9</ele>
        <time>2019-10-05T11:17:46.000Z</time>
      </trkpt>
      <trkpt lat="42.64483" lon="2.01913">
        <ele>1885</ele>
        <time>2019-10-05T11:17:49.000Z</time>
      </trkpt>
      <trkpt lat="42.64485" lon="2.01916">
        <ele>1884.2</ele>
        <time>2019-10-05T11:17:56.000Z</time>
      </trkpt>
      <trkpt lat="42.64487" lon="2.01919">
        <ele>1883.5</ele>
        <time>2019-10-05T11:17:58.000Z</time>
      </trkpt>
      <trkpt lat="42.64487" lon="2.01923">
        <ele>1882.9</ele>
        <time>2019-10-05T11:18:00.000Z</time>
      </trkpt>
      <trkpt lat="42.64488" lon="2.01928">
        <ele>1882.1</ele>
        <time>2019-10-05T11:18:02.000Z</time>
      </trkpt>
      <trkpt lat="42.64489" lon="2.01934">
        <ele>1880.8</ele>
        <time>2019-10-05T11:18:04.000Z</time>
      </trkpt>
      <trkpt lat="42.6449" lon="2.01938">
        <ele>1879.9</ele>
        <time>2019-10-05T11:18:05.000Z</time>
      </trkpt>
      <trkpt lat="42.64491" lon="2.01943">
        <ele>1879</ele>
        <time>2019-10-05T11:18:06.000Z</time>
      </trkpt>
      <trkpt lat="42.64491" lon="2.01947">
        <ele>1878.2</ele>
        <time>2019-10-05T11:18:07.000Z</time>
      </trkpt>
      <trkpt lat="42.64491" lon="2.01951">
        <ele>1877.4</ele>
        <time>2019-10-05T11:18:08.000Z</time>
      </trkpt>
      <trkpt lat="42.64491" lon="2.01955">
        <ele>1876.6</ele>
        <time>2019-10-05T11:18:09.000Z</time>
      </trkpt>
      <trkpt lat="42.6449" lon="2.01959">
        <ele>1876</ele>
        <time>2019-10-05T11:18:10.000Z</time>
      </trkpt>
      <trkpt lat="42.64489" lon="2.01963">
        <ele>1875.3</ele>
        <time>2019-10-05T11:18:11.000Z</time>
      </trkpt>
      <trkpt lat="42.64488" lon="2.01969">
        <ele>1874.4</ele>
        <time>2019-10-05T11:18:13.000Z</time>
      </trkpt>
      <trkpt lat="42.64487" lon="2.01975">
        <ele>1873.5</ele>
        <time>2019-10-05T11:18:15.000Z</time>
      </trkpt>
      <trkpt lat="42.64487" lon="2.0198">
        <ele>1872.9</ele>
        <time>2019-10-05T11:18:17.000Z</time>
      </trkpt>
      <trkpt lat="42.64487" lon="2.01984">
        <ele>1872.4</ele>
        <time>2019-10-05T11:18:19.000Z</time>
      </trkpt>
      <trkpt lat="42.64486" lon="2.01989">
        <ele>1871.4</ele>
        <time>2019-10-05T11:18:21.000Z</time>
      </trkpt>
      <trkpt lat="42.64487" lon="2.01994">
        <ele>1870.4</ele>
        <time>2019-10-05T11:18:23.000Z</time>
      </trkpt>
      <trkpt lat="42.64486" lon="2.02">
        <ele>1869.4</ele>
        <time>2019-10-05T11:18:25.000Z</time>
      </trkpt>
      <trkpt lat="42.64484" lon="2.02005">
        <ele>1867.9</ele>
        <time>2019-10-05T11:18:27.000Z</time>
      </trkpt>
      <trkpt lat="42.64482" lon="2.0201">
        <ele>1866.6</ele>
        <time>2019-10-05T11:18:29.000Z</time>
      </trkpt>
      <trkpt lat="42.64481" lon="2.02015">
        <ele>1865.5</ele>
        <time>2019-10-05T11:18:31.000Z</time>
      </trkpt>
      <trkpt lat="42.64482" lon="2.02021">
        <ele>1864</ele>
        <time>2019-10-05T11:18:33.000Z</time>
      </trkpt>
      <trkpt lat="42.64482" lon="2.02025">
        <ele>1863.2</ele>
        <time>2019-10-05T11:18:34.000Z</time>
      </trkpt>
      <trkpt lat="42.64482" lon="2.02029">
        <ele>1862.4</ele>
        <time>2019-10-05T11:18:35.000Z</time>
      </trkpt>
      <trkpt lat="42.64483" lon="2.02033">
        <ele>1861.7</ele>
        <time>2019-10-05T11:18:36.000Z</time>
      </trkpt>
      <trkpt lat="42.64483" lon="2.02037">
        <ele>1861</ele>
        <time>2019-10-05T11:18:37.000Z</time>
      </trkpt>
      <trkpt lat="42.64485" lon="2.02042">
        <ele>1860.1</ele>
        <time>2019-10-05T11:18:38.000Z</time>
      </trkpt>
      <trkpt lat="42.64486" lon="2.02047">
        <ele>1859.1</ele>
        <time>2019-10-05T11:18:39.000Z</time>
      </trkpt>
      <trkpt lat="42.64487" lon="2.02053">
        <ele>1857.9</ele>
        <time>2019-10-05T11:18:41.000Z</time>
      </trkpt>
      <trkpt lat="42.64486" lon="2.02058">
        <ele>1856.8</ele>
        <time>2019-10-05T11:18:43.000Z</time>
      </trkpt>
      <trkpt lat="42.64484" lon="2.02062">
        <ele>1856.2</ele>
        <time>2019-10-05T11:18:45.000Z</time>
      </trkpt>
      <trkpt lat="42.64484" lon="2.02067">
        <ele>1855.5</ele>
        <time>2019-10-05T11:19:52.000Z</time>
      </trkpt>
      <trkpt lat="42.64483" lon="2.02071">
        <ele>1854.8</ele>
        <time>2019-10-05T11:19:54.000Z</time>
      </trkpt>
      <trkpt lat="42.64479" lon="2.02073">
        <ele>1853.9</ele>
        <time>2019-10-05T11:19:56.000Z</time>
      </trkpt>
      <trkpt lat="42.64475" lon="2.02073">
        <ele>1853.2</ele>
        <time>2019-10-05T11:19:58.000Z</time>
      </trkpt>
      <trkpt lat="42.6447" lon="2.02072">
        <ele>1852.1</ele>
        <time>2019-10-05T11:20:00.000Z</time>
      </trkpt>
      <trkpt lat="42.64467" lon="2.02073">
        <ele>1851.2</ele>
        <time>2019-10-05T11:20:02.000Z</time>
      </trkpt>
      <trkpt lat="42.64465" lon="2.02078">
        <ele>1850.3</ele>
        <time>2019-10-05T11:20:04.000Z</time>
      </trkpt>
      <trkpt lat="42.64464" lon="2.02084">
        <ele>1849</ele>
        <time>2019-10-05T11:20:06.000Z</time>
      </trkpt>
      <trkpt lat="42.64463" lon="2.02088">
        <ele>1848.4</ele>
        <time>2019-10-05T11:20:07.000Z</time>
      </trkpt>
      <trkpt lat="42.6446" lon="2.02094">
        <ele>1847.3</ele>
        <time>2019-10-05T11:20:09.000Z</time>
      </trkpt>
      <trkpt lat="42.64456" lon="2.02097">
        <ele>1846.2</ele>
        <time>2019-10-05T11:20:11.000Z</time>
      </trkpt>
      <trkpt lat="42.64454" lon="2.02097">
        <ele>1845.5</ele>
        <time>2019-10-05T11:20:12.000Z</time>
      </trkpt>
      <trkpt lat="42.6445" lon="2.021">
        <ele>1844.2</ele>
        <time>2019-10-05T11:20:14.000Z</time>
      </trkpt>
      <trkpt lat="42.64446" lon="2.02104">
        <ele>1842.9</ele>
        <time>2019-10-05T11:20:16.000Z</time>
      </trkpt>
      <trkpt lat="42.64444" lon="2.0211">
        <ele>1841.1</ele>
        <time>2019-10-05T11:20:18.000Z</time>
      </trkpt>
      <trkpt lat="42.64443" lon="2.02114">
        <ele>1840.2</ele>
        <time>2019-10-05T11:20:19.000Z</time>
      </trkpt>
      <trkpt lat="42.64442" lon="2.02117">
        <ele>1839.4</ele>
        <time>2019-10-05T11:20:20.000Z</time>
      </trkpt>
      <trkpt lat="42.64439" lon="2.02122">
        <ele>1838.1</ele>
        <time>2019-10-05T11:20:22.000Z</time>
      </trkpt>
      <trkpt lat="42.64437" lon="2.02129">
        <ele>1836.6</ele>
        <time>2019-10-05T11:20:24.000Z</time>
      </trkpt>
      <trkpt lat="42.64435" lon="2.02136">
        <ele>1835.1</ele>
        <time>2019-10-05T11:20:26.000Z</time>
      </trkpt>
      <trkpt lat="42.64434" lon="2.0214">
        <ele>1834.3</ele>
        <time>2019-10-05T11:20:27.000Z</time>
      </trkpt>
      <trkpt lat="42.64434" lon="2.02145">
        <ele>1833.3</ele>
        <time>2019-10-05T11:20:28.000Z</time>
      </trkpt>
      <trkpt lat="42.64433" lon="2.02149">
        <ele>1832.3</ele>
        <time>2019-10-05T11:20:29.000Z</time>
      </trkpt>
      <trkpt lat="42.64433" lon="2.02153">
        <ele>1831.4</ele>
        <time>2019-10-05T11:20:30.000Z</time>
      </trkpt>
      <trkpt lat="42.64432" lon="2.02157">
        <ele>1830.8</ele>
        <time>2019-10-05T11:20:31.000Z</time>
      </trkpt>
      <trkpt lat="42.64429" lon="2.02163">
        <ele>1829.7</ele>
        <time>2019-10-05T11:20:33.000Z</time>
      </trkpt>
      <trkpt lat="42.64427" lon="2.02169">
        <ele>1828.5</ele>
        <time>2019-10-05T11:20:35.000Z</time>
      </trkpt>
      <trkpt lat="42.64427" lon="2.02173">
        <ele>1827.8</ele>
        <time>2019-10-05T11:20:36.000Z</time>
      </trkpt>
      <trkpt lat="42.64427" lon="2.0218">
        <ele>1826.6</ele>
        <time>2019-10-05T11:20:38.000Z</time>
      </trkpt>
      <trkpt lat="42.64427" lon="2.02185">
        <ele>1825.8</ele>
        <time>2019-10-05T11:20:40.000Z</time>
      </trkpt>
      <trkpt lat="42.64425" lon="2.02192">
        <ele>1824.7</ele>
        <time>2019-10-05T11:20:42.000Z</time>
      </trkpt>
      <trkpt lat="42.64424" lon="2.02195">
        <ele>1824.1</ele>
        <time>2019-10-05T11:20:43.000Z</time>
      </trkpt>
      <trkpt lat="42.64423" lon="2.02199">
        <ele>1823.4</ele>
        <time>2019-10-05T11:20:44.000Z</time>
      </trkpt>
      <trkpt lat="42.64424" lon="2.02203">
        <ele>1822.8</ele>
        <time>2019-10-05T11:20:45.000Z</time>
      </trkpt>
      <trkpt lat="42.64424" lon="2.02207">
        <ele>1822.3</ele>
        <time>2019-10-05T11:20:46.000Z</time>
      </trkpt>
      <trkpt lat="42.64425" lon="2.02211">
        <ele>1821.8</ele>
        <time>2019-10-05T11:20:47.000Z</time>
      </trkpt>
      <trkpt lat="42.64425" lon="2.02214">
        <ele>1821.4</ele>
        <time>2019-10-05T11:20:48.000Z</time>
      </trkpt>
      <trkpt lat="42.64425" lon="2.0222">
        <ele>1821</ele>
        <time>2019-10-05T11:20:50.000Z</time>
      </trkpt>
      <trkpt lat="42.64426" lon="2.02224">
        <ele>1820.8</ele>
        <time>2019-10-05T11:20:52.000Z</time>
      </trkpt>
      <trkpt lat="42.64427" lon="2.02229">
        <ele>1820.4</ele>
        <time>2019-10-05T11:20:54.000Z</time>
      </trkpt>
      <trkpt lat="42.64428" lon="2.02234">
        <ele>1820.1</ele>
        <time>2019-10-05T11:20:56.000Z</time>
      </trkpt>
      <trkpt lat="42.64429" lon="2.02239">
        <ele>1817.8</ele>
        <time>2019-10-05T11:20:58.000Z</time>
      </trkpt>
      <trkpt lat="42.64429" lon="2.02243">
        <ele>1817.4</ele>
        <time>2019-10-05T11:21:03.000Z</time>
      </trkpt>
      <trkpt lat="42.64432" lon="2.02246">
        <ele>1816.9</ele>
        <time>2019-10-05T11:21:08.000Z</time>
      </trkpt>
      <trkpt lat="42.64433" lon="2.0225">
        <ele>1816.6</ele>
        <time>2019-10-05T11:21:12.000Z</time>
      </trkpt>
      <trkpt lat="42.64433" lon="2.02254">
        <ele>1816.2</ele>
        <time>2019-10-05T11:21:14.000Z</time>
      </trkpt>
      <trkpt lat="42.6443" lon="2.02253">
        <ele>1815.8</ele>
        <time>2019-10-05T11:21:21.000Z</time>
      </trkpt>
      <trkpt lat="42.64427" lon="2.02257">
        <ele>1815.3</ele>
        <time>2019-10-05T11:21:24.000Z</time>
      </trkpt>
      <trkpt lat="42.64426" lon="2.02261">
        <ele>1814.9</ele>
        <time>2019-10-05T11:21:28.000Z</time>
      </trkpt>
      <trkpt lat="42.64424" lon="2.02265">
        <ele>1814.4</ele>
        <time>2019-10-05T11:21:31.000Z</time>
      </trkpt>
      <trkpt lat="42.64421" lon="2.02266">
        <ele>1814.1</ele>
        <time>2019-10-05T11:21:35.000Z</time>
      </trkpt>
      <trkpt lat="42.64417" lon="2.02268">
        <ele>1813.8</ele>
        <time>2019-10-05T11:21:37.000Z</time>
      </trkpt>
      <trkpt lat="42.64414" lon="2.02269">
        <ele>1813.7</ele>
        <time>2019-10-05T11:21:40.000Z</time>
      </trkpt>
      <trkpt lat="42.64412" lon="2.02271">
        <ele>1813.5</ele>
        <time>2019-10-05T11:21:49.000Z</time>
      </trkpt>
      <trkpt lat="42.64411" lon="2.02275">
        <ele>1813.4</ele>
        <time>2019-10-05T11:22:02.000Z</time>
      </trkpt>
      <trkpt lat="42.64411" lon="2.02279">
        <ele>1813.2</ele>
        <time>2019-10-05T11:22:04.000Z</time>
      </trkpt>
      <trkpt lat="42.64407" lon="2.02284">
        <ele>1813</ele>
        <time>2019-10-05T11:22:06.000Z</time>
      </trkpt>
      <trkpt lat="42.64405" lon="2.02287">
        <ele>1812.9</ele>
        <time>2019-10-05T11:22:07.000Z</time>
      </trkpt>
      <trkpt lat="42.64404" lon="2.02291">
        <ele>1812.7</ele>
        <time>2019-10-05T11:22:08.000Z</time>
      </trkpt>
      <trkpt lat="42.64402" lon="2.02294">
        <ele>1812.6</ele>
        <time>2019-10-05T11:22:09.000Z</time>
      </trkpt>
      <trkpt lat="42.644" lon="2.02298">
        <ele>1812.4</ele>
        <time>2019-10-05T11:22:10.000Z</time>
      </trkpt>
      <trkpt lat="42.64398" lon="2.02301">
        <ele>1812.3</ele>
        <time>2019-10-05T11:22:11.000Z</time>
      </trkpt>
      <trkpt lat="42.64396" lon="2.02304">
        <ele>1812.1</ele>
        <time>2019-10-05T11:22:12.000Z</time>
      </trkpt>
      <trkpt lat="42.64393" lon="2.02306">
        <ele>1811.9</ele>
        <time>2019-10-05T11:22:13.000Z</time>
      </trkpt>
      <trkpt lat="42.64391" lon="2.02309">
        <ele>1811.6</ele>
        <time>2019-10-05T11:22:14.000Z</time>
      </trkpt>
      <trkpt lat="42.64388" lon="2.02312">
        <ele>1811.3</ele>
        <time>2019-10-05T11:22:15.000Z</time>
      </trkpt>
      <trkpt lat="42.64386" lon="2.02316">
        <ele>1811</ele>
        <time>2019-10-05T11:22:16.000Z</time>
      </trkpt>
      <trkpt lat="42.64383" lon="2.02321">
        <ele>1810.5</ele>
        <time>2019-10-05T11:22:18.000Z</time>
      </trkpt>
      <trkpt lat="42.6438" lon="2.02328">
        <ele>1809.8</ele>
        <time>2019-10-05T11:22:20.000Z</time>
      </trkpt>
      <trkpt lat="42.64379" lon="2.02332">
        <ele>1809.4</ele>
        <time>2019-10-05T11:22:21.000Z</time>
      </trkpt>
      <trkpt lat="42.64378" lon="2.02337">
        <ele>1808.9</ele>
        <time>2019-10-05T11:22:22.000Z</time>
      </trkpt>
      <trkpt lat="42.64375" lon="2.02344">
        <ele>1808.2</ele>
        <time>2019-10-05T11:22:23.000Z</time>
      </trkpt>
      <trkpt lat="42.64372" lon="2.02351">
        <ele>1807.4</ele>
        <time>2019-10-05T11:22:24.000Z</time>
      </trkpt>
      <trkpt lat="42.64369" lon="2.02359">
        <ele>1806.6</ele>
        <time>2019-10-05T11:22:25.000Z</time>
      </trkpt>
      <trkpt lat="42.64367" lon="2.02367">
        <ele>1806.3</ele>
        <time>2019-10-05T11:22:26.000Z</time>
      </trkpt>
      <trkpt lat="42.64365" lon="2.02375">
        <ele>1806.2</ele>
        <time>2019-10-05T11:22:27.000Z</time>
      </trkpt>
      <trkpt lat="42.6436" lon="2.02381">
        <ele>1806</ele>
        <time>2019-10-05T11:22:28.000Z</time>
      </trkpt>
      <trkpt lat="42.64356" lon="2.02386">
        <ele>1805.8</ele>
        <time>2019-10-05T11:22:29.000Z</time>
      </trkpt>
      <trkpt lat="42.64352" lon="2.02394">
        <ele>1805.5</ele>
        <time>2019-10-05T11:22:30.000Z</time>
      </trkpt>
      <trkpt lat="42.64347" lon="2.02404">
        <ele>1805.1</ele>
        <time>2019-10-05T11:22:31.000Z</time>
      </trkpt>
      <trkpt lat="42.64342" lon="2.02412">
        <ele>1804.8</ele>
        <time>2019-10-05T11:22:32.000Z</time>
      </trkpt>
      <trkpt lat="42.64338" lon="2.0242">
        <ele>1804.6</ele>
        <time>2019-10-05T11:22:33.000Z</time>
      </trkpt>
      <trkpt lat="42.64334" lon="2.02427">
        <ele>1804.5</ele>
        <time>2019-10-05T11:22:34.000Z</time>
      </trkpt>
      <trkpt lat="42.64331" lon="2.02436">
        <ele>1804.5</ele>
        <time>2019-10-05T11:22:35.000Z</time>
      </trkpt>
      <trkpt lat="42.64323" lon="2.02437">
        <ele>1804.5</ele>
        <time>2019-10-05T11:22:36.000Z</time>
      </trkpt>
      <trkpt lat="42.64319" lon="2.02442">
        <ele>1804.5</ele>
        <time>2019-10-05T11:22:37.000Z</time>
      </trkpt>
      <trkpt lat="42.64315" lon="2.02447">
        <ele>1804.5</ele>
        <time>2019-10-05T11:22:38.000Z</time>
      </trkpt>
      <trkpt lat="42.64311" lon="2.0245">
        <ele>1804.6</ele>
        <time>2019-10-05T11:22:39.000Z</time>
      </trkpt>
      <trkpt lat="42.64307" lon="2.02455">
        <ele>1804.5</ele>
        <time>2019-10-05T11:22:40.000Z</time>
      </trkpt>
      <trkpt lat="42.64302" lon="2.02456">
        <ele>1804.3</ele>
        <time>2019-10-05T11:22:41.000Z</time>
      </trkpt>
      <trkpt lat="42.64297" lon="2.02464">
        <ele>1804</ele>
        <time>2019-10-05T11:22:42.000Z</time>
      </trkpt>
      <trkpt lat="42.64289" lon="2.02465">
        <ele>1803.6</ele>
        <time>2019-10-05T11:22:43.000Z</time>
      </trkpt>
      <trkpt lat="42.64284" lon="2.02471">
        <ele>1803.2</ele>
        <time>2019-10-05T11:22:44.000Z</time>
      </trkpt>
      <trkpt lat="42.64279" lon="2.02479">
        <ele>1802.6</ele>
        <time>2019-10-05T11:22:45.000Z</time>
      </trkpt>
      <trkpt lat="42.64277" lon="2.02487">
        <ele>1801.9</ele>
        <time>2019-10-05T11:22:46.000Z</time>
      </trkpt>
      <trkpt lat="42.64272" lon="2.02492">
        <ele>1801.3</ele>
        <time>2019-10-05T11:22:47.000Z</time>
      </trkpt>
      <trkpt lat="42.64267" lon="2.02496">
        <ele>1800.5</ele>
        <time>2019-10-05T11:22:48.000Z</time>
      </trkpt>
      <trkpt lat="42.64263" lon="2.02501">
        <ele>1799.8</ele>
        <time>2019-10-05T11:22:49.000Z</time>
      </trkpt>
      <trkpt lat="42.64259" lon="2.02505">
        <ele>1799.1</ele>
        <time>2019-10-05T11:22:50.000Z</time>
      </trkpt>
      <trkpt lat="42.64255" lon="2.02512">
        <ele>1798.2</ele>
        <time>2019-10-05T11:22:51.000Z</time>
      </trkpt>
      <trkpt lat="42.64253" lon="2.02519">
        <ele>1797.6</ele>
        <time>2019-10-05T11:22:52.000Z</time>
      </trkpt>
      <trkpt lat="42.6425" lon="2.02526">
        <ele>1796.9</ele>
        <time>2019-10-05T11:22:53.000Z</time>
      </trkpt>
      <trkpt lat="42.64247" lon="2.02534">
        <ele>1796.2</ele>
        <time>2019-10-05T11:22:54.000Z</time>
      </trkpt>
      <trkpt lat="42.64244" lon="2.02543">
        <ele>1795.2</ele>
        <time>2019-10-05T11:22:55.000Z</time>
      </trkpt>
      <trkpt lat="42.6424" lon="2.02549">
        <ele>1794.5</ele>
        <time>2019-10-05T11:22:56.000Z</time>
      </trkpt>
      <trkpt lat="42.64236" lon="2.02557">
        <ele>1793.7</ele>
        <time>2019-10-05T11:22:57.000Z</time>
      </trkpt>
      <trkpt lat="42.64234" lon="2.02562">
        <ele>1793.1</ele>
        <time>2019-10-05T11:22:58.000Z</time>
      </trkpt>
      <trkpt lat="42.64231" lon="2.02567">
        <ele>1792.5</ele>
        <time>2019-10-05T11:22:59.000Z</time>
      </trkpt>
      <trkpt lat="42.6423" lon="2.02572">
        <ele>1792.1</ele>
        <time>2019-10-05T11:23:00.000Z</time>
      </trkpt>
      <trkpt lat="42.64226" lon="2.02576">
        <ele>1791.6</ele>
        <time>2019-10-05T11:23:01.000Z</time>
      </trkpt>
      <trkpt lat="42.64224" lon="2.02581">
        <ele>1791.1</ele>
        <time>2019-10-05T11:23:02.000Z</time>
      </trkpt>
      <trkpt lat="42.64221" lon="2.02585">
        <ele>1790.7</ele>
        <time>2019-10-05T11:23:03.000Z</time>
      </trkpt>
      <trkpt lat="42.6422" lon="2.02594">
        <ele>1789.9</ele>
        <time>2019-10-05T11:23:04.000Z</time>
      </trkpt>
      <trkpt lat="42.64217" lon="2.026">
        <ele>1789.2</ele>
        <time>2019-10-05T11:23:05.000Z</time>
      </trkpt>
      <trkpt lat="42.64212" lon="2.02605">
        <ele>1788.3</ele>
        <time>2019-10-05T11:23:06.000Z</time>
      </trkpt>
      <trkpt lat="42.64208" lon="2.0261">
        <ele>1787.6</ele>
        <time>2019-10-05T11:23:07.000Z</time>
      </trkpt>
      <trkpt lat="42.64206" lon="2.02616">
        <ele>1786.9</ele>
        <time>2019-10-05T11:23:08.000Z</time>
      </trkpt>
      <trkpt lat="42.64204" lon="2.0262">
        <ele>1786.5</ele>
        <time>2019-10-05T11:23:09.000Z</time>
      </trkpt>
      <trkpt lat="42.64201" lon="2.02623">
        <ele>1786.1</ele>
        <time>2019-10-05T11:23:10.000Z</time>
      </trkpt>
      <trkpt lat="42.642" lon="2.02628">
        <ele>1785.6</ele>
        <time>2019-10-05T11:23:11.000Z</time>
      </trkpt>
      <trkpt lat="42.64201" lon="2.02636">
        <ele>1784.8</ele>
        <time>2019-10-05T11:23:12.000Z</time>
      </trkpt>
      <trkpt lat="42.64199" lon="2.02639">
        <ele>1784.4</ele>
        <time>2019-10-05T11:23:13.000Z</time>
      </trkpt>
      <trkpt lat="42.64199" lon="2.02645">
        <ele>1783.9</ele>
        <time>2019-10-05T11:23:14.000Z</time>
      </trkpt>
      <trkpt lat="42.64198" lon="2.02651">
        <ele>1783.2</ele>
        <time>2019-10-05T11:23:16.000Z</time>
      </trkpt>
      <trkpt lat="42.64197" lon="2.02657">
        <ele>1782.7</ele>
        <time>2019-10-05T11:23:17.000Z</time>
      </trkpt>
      <trkpt lat="42.64196" lon="2.02662">
        <ele>1782.2</ele>
        <time>2019-10-05T11:23:18.000Z</time>
      </trkpt>
      <trkpt lat="42.64194" lon="2.02669">
        <ele>1781.5</ele>
        <time>2019-10-05T11:23:19.000Z</time>
      </trkpt>
      <trkpt lat="42.64193" lon="2.02677">
        <ele>1780.8</ele>
        <time>2019-10-05T11:23:20.000Z</time>
      </trkpt>
      <trkpt lat="42.64191" lon="2.02684">
        <ele>1780.1</ele>
        <time>2019-10-05T11:23:21.000Z</time>
      </trkpt>
      <trkpt lat="42.64188" lon="2.02691">
        <ele>1779.5</ele>
        <time>2019-10-05T11:23:22.000Z</time>
      </trkpt>
      <trkpt lat="42.64185" lon="2.02696">
        <ele>1779</ele>
        <time>2019-10-05T11:23:23.000Z</time>
      </trkpt>
      <trkpt lat="42.64183" lon="2.02701">
        <ele>1778.8</ele>
        <time>2019-10-05T11:23:24.000Z</time>
      </trkpt>
      <trkpt lat="42.6418" lon="2.02708">
        <ele>1778.6</ele>
        <time>2019-10-05T11:23:25.000Z</time>
      </trkpt>
      <trkpt lat="42.64177" lon="2.02713">
        <ele>1778.6</ele>
        <time>2019-10-05T11:23:26.000Z</time>
      </trkpt>
      <trkpt lat="42.64176" lon="2.02719">
        <ele>1778.6</ele>
        <time>2019-10-05T11:23:28.000Z</time>
      </trkpt>
      <trkpt lat="42.64178" lon="2.02722">
        <ele>1778.7</ele>
        <time>2019-10-05T11:23:33.000Z</time>
      </trkpt>
      <trkpt lat="42.64181" lon="2.02724">
        <ele>1778.7</ele>
        <time>2019-10-05T11:23:49.000Z</time>
      </trkpt>
      <trkpt lat="42.64179" lon="2.02727">
        <ele>1778.9</ele>
        <time>2019-10-05T11:24:07.000Z</time>
      </trkpt>
      <trkpt lat="42.6418" lon="2.02732">
        <ele>1779</ele>
        <time>2019-10-05T11:24:14.000Z</time>
      </trkpt>
      <trkpt lat="42.64183" lon="2.02733">
        <ele>1779.2</ele>
        <time>2019-10-05T11:24:29.000Z</time>
      </trkpt>
      <trkpt lat="42.64186" lon="2.02735">
        <ele>1779.3</ele>
        <time>2019-10-05T11:24:32.000Z</time>
      </trkpt>
      <trkpt lat="42.64186" lon="2.0274">
        <ele>1779.4</ele>
        <time>2019-10-05T11:24:36.000Z</time>
      </trkpt>
      <trkpt lat="42.64187" lon="2.02743">
        <ele>1779.5</ele>
        <time>2019-10-05T11:24:40.000Z</time>
      </trkpt>
      <trkpt lat="42.64187" lon="2.02748">
        <ele>1779.6</ele>
        <time>2019-10-05T11:24:42.000Z</time>
      </trkpt>
      <trkpt lat="42.64186" lon="2.02753">
        <ele>1779.7</ele>
        <time>2019-10-05T11:24:46.000Z</time>
      </trkpt>
      <trkpt lat="42.64186" lon="2.02757">
        <ele>1779.9</ele>
        <time>2019-10-05T11:24:48.000Z</time>
      </trkpt>
      <trkpt lat="42.64184" lon="2.0276">
        <ele>1780</ele>
        <time>2019-10-05T11:24:54.000Z</time>
      </trkpt>
      <trkpt lat="42.64182" lon="2.02764">
        <ele>1780.1</ele>
        <time>2019-10-05T11:24:57.000Z</time>
      </trkpt>
      <trkpt lat="42.64182" lon="2.02768">
        <ele>1780.2</ele>
        <time>2019-10-05T11:24:59.000Z</time>
      </trkpt>
      <trkpt lat="42.64184" lon="2.02771">
        <ele>1780.3</ele>
        <time>2019-10-05T11:25:05.000Z</time>
      </trkpt>
      <trkpt lat="42.64181" lon="2.02774">
        <ele>1780.4</ele>
        <time>2019-10-05T11:25:12.000Z</time>
      </trkpt>
      <trkpt lat="42.64179" lon="2.02775">
        <ele>1780.5</ele>
        <time>2019-10-05T11:25:15.000Z</time>
      </trkpt>
      <trkpt lat="42.64177" lon="2.0278">
        <ele>1780.5</ele>
        <time>2019-10-05T11:25:19.000Z</time>
      </trkpt>
      <trkpt lat="42.64177" lon="2.02784">
        <ele>1780.5</ele>
        <time>2019-10-05T11:25:22.000Z</time>
      </trkpt>
      <trkpt lat="42.64179" lon="2.02788">
        <ele>1780.5</ele>
        <time>2019-10-05T11:25:24.000Z</time>
      </trkpt>
      <trkpt lat="42.64179" lon="2.02792">
        <ele>1780.5</ele>
        <time>2019-10-05T11:25:31.000Z</time>
      </trkpt>
      <trkpt lat="42.64178" lon="2.02796">
        <ele>1780.4</ele>
        <time>2019-10-05T11:25:35.000Z</time>
      </trkpt>
      <trkpt lat="42.64177" lon="2.028">
        <ele>1780.3</ele>
        <time>2019-10-05T11:25:40.000Z</time>
      </trkpt>
      <trkpt lat="42.64177" lon="2.02804">
        <ele>1780.3</ele>
        <time>2019-10-05T11:25:43.000Z</time>
      </trkpt>
      <trkpt lat="42.64174" lon="2.02807">
        <ele>1780.2</ele>
        <time>2019-10-05T11:25:50.000Z</time>
      </trkpt>
      <trkpt lat="42.64171" lon="2.02808">
        <ele>1780.1</ele>
        <time>2019-10-05T11:27:01.000Z</time>
      </trkpt>
      <trkpt lat="42.6417" lon="2.02812">
        <ele>1779.9</ele>
        <time>2019-10-05T11:27:04.000Z</time>
      </trkpt>
      <trkpt lat="42.64168" lon="2.02815">
        <ele>1779.7</ele>
        <time>2019-10-05T11:27:07.000Z</time>
      </trkpt>
      <trkpt lat="42.64164" lon="2.02816">
        <ele>1779.4</ele>
        <time>2019-10-05T11:27:10.000Z</time>
      </trkpt>
      <trkpt lat="42.64161" lon="2.0282">
        <ele>1779.1</ele>
        <time>2019-10-05T11:27:12.000Z</time>
      </trkpt>
      <trkpt lat="42.64159" lon="2.02822">
        <ele>1778.7</ele>
        <time>2019-10-05T11:27:17.000Z</time>
      </trkpt>
      <trkpt lat="42.64156" lon="2.02826">
        <ele>1778.3</ele>
        <time>2019-10-05T11:27:19.000Z</time>
      </trkpt>
      <trkpt lat="42.64155" lon="2.0283">
        <ele>1777.8</ele>
        <time>2019-10-05T11:27:21.000Z</time>
      </trkpt>
      <trkpt lat="42.64155" lon="2.02835">
        <ele>1777.3</ele>
        <time>2019-10-05T11:27:23.000Z</time>
      </trkpt>
      <trkpt lat="42.64156" lon="2.02838">
        <ele>1776.9</ele>
        <time>2019-10-05T11:27:25.000Z</time>
      </trkpt>
      <trkpt lat="42.64159" lon="2.0284">
        <ele>1776.6</ele>
        <time>2019-10-05T11:27:28.000Z</time>
      </trkpt>
      <trkpt lat="42.64159" lon="2.02844">
        <ele>1776.2</ele>
        <time>2019-10-05T11:27:37.000Z</time>
      </trkpt>
      <trkpt lat="42.64159" lon="2.02848">
        <ele>1775.8</ele>
        <time>2019-10-05T11:27:41.000Z</time>
      </trkpt>
      <trkpt lat="42.64159" lon="2.02852">
        <ele>1775.8</ele>
        <time>2019-10-05T11:27:43.000Z</time>
      </trkpt>
      <trkpt lat="42.64159" lon="2.02857">
        <ele>1775.8</ele>
        <time>2019-10-05T11:27:46.000Z</time>
      </trkpt>
      <trkpt lat="42.64159" lon="2.02862">
        <ele>1775.8</ele>
        <time>2019-10-05T11:27:49.000Z</time>
      </trkpt>
      <trkpt lat="42.64158" lon="2.02867">
        <ele>1775.8</ele>
        <time>2019-10-05T11:27:50.000Z</time>
      </trkpt>
      <trkpt lat="42.64158" lon="2.02874">
        <ele>1775.8</ele>
        <time>2019-10-05T11:27:51.000Z</time>
      </trkpt>
      <trkpt lat="42.64157" lon="2.02879">
        <ele>1775.8</ele>
        <time>2019-10-05T11:27:52.000Z</time>
      </trkpt>
      <trkpt lat="42.64153" lon="2.02886">
        <ele>1775.8</ele>
        <time>2019-10-05T11:27:53.000Z</time>
      </trkpt>
      <trkpt lat="42.64149" lon="2.02892">
        <ele>1775.8</ele>
        <time>2019-10-05T11:27:54.000Z</time>
      </trkpt>
      <trkpt lat="42.64149" lon="2.02897">
        <ele>1775.8</ele>
        <time>2019-10-05T11:27:55.000Z</time>
      </trkpt>
      <trkpt lat="42.64148" lon="2.02901">
        <ele>1775.8</ele>
        <time>2019-10-05T11:27:56.000Z</time>
      </trkpt>
      <trkpt lat="42.64147" lon="2.02907">
        <ele>1775.7</ele>
        <time>2019-10-05T11:27:58.000Z</time>
      </trkpt>
      <trkpt lat="42.64147" lon="2.02913">
        <ele>1775.7</ele>
        <time>2019-10-05T11:28:00.000Z</time>
      </trkpt>
      <trkpt lat="42.64145" lon="2.02919">
        <ele>1775.7</ele>
        <time>2019-10-05T11:28:03.000Z</time>
      </trkpt>
      <trkpt lat="42.64144" lon="2.02924">
        <ele>1775.6</ele>
        <time>2019-10-05T11:28:05.000Z</time>
      </trkpt>
      <trkpt lat="42.64143" lon="2.02928">
        <ele>1775.6</ele>
        <time>2019-10-05T11:28:06.000Z</time>
      </trkpt>
      <trkpt lat="42.64142" lon="2.02932">
        <ele>1775.5</ele>
        <time>2019-10-05T11:28:07.000Z</time>
      </trkpt>
      <trkpt lat="42.6414" lon="2.02938">
        <ele>1775.5</ele>
        <time>2019-10-05T11:28:09.000Z</time>
      </trkpt>
      <trkpt lat="42.64139" lon="2.02941">
        <ele>1775.4</ele>
        <time>2019-10-05T11:28:10.000Z</time>
      </trkpt>
      <trkpt lat="42.64138" lon="2.02945">
        <ele>1775.4</ele>
        <time>2019-10-05T11:28:11.000Z</time>
      </trkpt>
      <trkpt lat="42.64136" lon="2.02948">
        <ele>1775.3</ele>
        <time>2019-10-05T11:28:12.000Z</time>
      </trkpt>
      <trkpt lat="42.64135" lon="2.02951">
        <ele>1775.3</ele>
        <time>2019-10-05T11:28:13.000Z</time>
      </trkpt>
      <trkpt lat="42.64133" lon="2.02955">
        <ele>1775.2</ele>
        <time>2019-10-05T11:28:14.000Z</time>
      </trkpt>
      <trkpt lat="42.64132" lon="2.02958">
        <ele>1775.2</ele>
        <time>2019-10-05T11:28:15.000Z</time>
      </trkpt>
      <trkpt lat="42.64131" lon="2.02962">
        <ele>1775.1</ele>
        <time>2019-10-05T11:28:16.000Z</time>
      </trkpt>
      <trkpt lat="42.64129" lon="2.02969">
        <ele>1775</ele>
        <time>2019-10-05T11:28:18.000Z</time>
      </trkpt>
      <trkpt lat="42.64128" lon="2.02975">
        <ele>1775</ele>
        <time>2019-10-05T11:28:20.000Z</time>
      </trkpt>
      <trkpt lat="42.64127" lon="2.02982">
        <ele>1775</ele>
        <time>2019-10-05T11:28:22.000Z</time>
      </trkpt>
      <trkpt lat="42.64125" lon="2.02988">
        <ele>1775</ele>
        <time>2019-10-05T11:28:24.000Z</time>
      </trkpt>
      <trkpt lat="42.64124" lon="2.02991">
        <ele>1775</ele>
        <time>2019-10-05T11:28:25.000Z</time>
      </trkpt>
      <trkpt lat="42.64123" lon="2.02998">
        <ele>1775</ele>
        <time>2019-10-05T11:28:27.000Z</time>
      </trkpt>
      <trkpt lat="42.64121" lon="2.03003">
        <ele>1775.1</ele>
        <time>2019-10-05T11:28:29.000Z</time>
      </trkpt>
      <trkpt lat="42.64119" lon="2.03009">
        <ele>1775.1</ele>
        <time>2019-10-05T11:28:31.000Z</time>
      </trkpt>
      <trkpt lat="42.64118" lon="2.03015">
        <ele>1775.2</ele>
        <time>2019-10-05T11:28:33.000Z</time>
      </trkpt>
      <trkpt lat="42.64116" lon="2.03021">
        <ele>1775.3</ele>
        <time>2019-10-05T11:28:35.000Z</time>
      </trkpt>
      <trkpt lat="42.64114" lon="2.03026">
        <ele>1775.4</ele>
        <time>2019-10-05T11:28:37.000Z</time>
      </trkpt>
      <trkpt lat="42.64112" lon="2.03033">
        <ele>1775.5</ele>
        <time>2019-10-05T11:28:39.000Z</time>
      </trkpt>
      <trkpt lat="42.6411" lon="2.03038">
        <ele>1775.6</ele>
        <time>2019-10-05T11:28:41.000Z</time>
      </trkpt>
      <trkpt lat="42.64108" lon="2.03043">
        <ele>1775.8</ele>
        <time>2019-10-05T11:28:43.000Z</time>
      </trkpt>
      <trkpt lat="42.64105" lon="2.03048">
        <ele>1775.9</ele>
        <time>2019-10-05T11:28:45.000Z</time>
      </trkpt>
      <trkpt lat="42.64104" lon="2.03051">
        <ele>1776</ele>
        <time>2019-10-05T11:28:46.000Z</time>
      </trkpt>
      <trkpt lat="42.64102" lon="2.03055">
        <ele>1776</ele>
        <time>2019-10-05T11:28:47.000Z</time>
      </trkpt>
      <trkpt lat="42.64101" lon="2.03059">
        <ele>1776.1</ele>
        <time>2019-10-05T11:28:48.000Z</time>
      </trkpt>
      <trkpt lat="42.64099" lon="2.03065">
        <ele>1776.2</ele>
        <time>2019-10-05T11:28:50.000Z</time>
      </trkpt>
      <trkpt lat="42.64098" lon="2.03072">
        <ele>1776.4</ele>
        <time>2019-10-05T11:28:52.000Z</time>
      </trkpt>
      <trkpt lat="42.64097" lon="2.03075">
        <ele>1776.4</ele>
        <time>2019-10-05T11:28:53.000Z</time>
      </trkpt>
      <trkpt lat="42.64095" lon="2.03082">
        <ele>1776.5</ele>
        <time>2019-10-05T11:28:55.000Z</time>
      </trkpt>
      <trkpt lat="42.64094" lon="2.03086">
        <ele>1776.6</ele>
        <time>2019-10-05T11:28:56.000Z</time>
      </trkpt>
      <trkpt lat="42.64091" lon="2.03092">
        <ele>1776.6</ele>
        <time>2019-10-05T11:28:58.000Z</time>
      </trkpt>
      <trkpt lat="42.64087" lon="2.03098">
        <ele>1776.7</ele>
        <time>2019-10-05T11:29:00.000Z</time>
      </trkpt>
      <trkpt lat="42.64085" lon="2.03101">
        <ele>1776.7</ele>
        <time>2019-10-05T11:29:01.000Z</time>
      </trkpt>
      <trkpt lat="42.64083" lon="2.03104">
        <ele>1776.7</ele>
        <time>2019-10-05T11:29:02.000Z</time>
      </trkpt>
      <trkpt lat="42.64079" lon="2.0311">
        <ele>1776.7</ele>
        <time>2019-10-05T11:29:04.000Z</time>
      </trkpt>
      <trkpt lat="42.64077" lon="2.03113">
        <ele>1776.7</ele>
        <time>2019-10-05T11:29:05.000Z</time>
      </trkpt>
      <trkpt lat="42.64075" lon="2.03116">
        <ele>1776.7</ele>
        <time>2019-10-05T11:29:06.000Z</time>
      </trkpt>
      <trkpt lat="42.64074" lon="2.0312">
        <ele>1776.7</ele>
        <time>2019-10-05T11:29:07.000Z</time>
      </trkpt>
      <trkpt lat="42.64073" lon="2.03124">
        <ele>1776.7</ele>
        <time>2019-10-05T11:29:08.000Z</time>
      </trkpt>
      <trkpt lat="42.64072" lon="2.03128">
        <ele>1776.7</ele>
        <time>2019-10-05T11:29:09.000Z</time>
      </trkpt>
      <trkpt lat="42.6407" lon="2.03132">
        <ele>1776.7</ele>
        <time>2019-10-05T11:29:10.000Z</time>
      </trkpt>
      <trkpt lat="42.64069" lon="2.03135">
        <ele>1776.7</ele>
        <time>2019-10-05T11:29:11.000Z</time>
      </trkpt>
      <trkpt lat="42.64068" lon="2.03139">
        <ele>1776.7</ele>
        <time>2019-10-05T11:29:12.000Z</time>
      </trkpt>
      <trkpt lat="42.64067" lon="2.03143">
        <ele>1776.7</ele>
        <time>2019-10-05T11:29:13.000Z</time>
      </trkpt>
      <trkpt lat="42.64066" lon="2.03146">
        <ele>1776.7</ele>
        <time>2019-10-05T11:29:14.000Z</time>
      </trkpt>
      <trkpt lat="42.64065" lon="2.0315">
        <ele>1776.7</ele>
        <time>2019-10-05T11:29:15.000Z</time>
      </trkpt>
      <trkpt lat="42.64064" lon="2.03156">
        <ele>1776.7</ele>
        <time>2019-10-05T11:29:17.000Z</time>
      </trkpt>
      <trkpt lat="42.64062" lon="2.03161">
        <ele>1776.7</ele>
        <time>2019-10-05T11:29:19.000Z</time>
      </trkpt>
      <trkpt lat="42.64061" lon="2.03165">
        <ele>1776.7</ele>
        <time>2019-10-05T11:29:21.000Z</time>
      </trkpt>
      <trkpt lat="42.6406" lon="2.0317">
        <ele>1776.7</ele>
        <time>2019-10-05T11:29:23.000Z</time>
      </trkpt>
      <trkpt lat="42.64058" lon="2.03176">
        <ele>1776.7</ele>
        <time>2019-10-05T11:29:25.000Z</time>
      </trkpt>
      <trkpt lat="42.64056" lon="2.03181">
        <ele>1776.7</ele>
        <time>2019-10-05T11:29:27.000Z</time>
      </trkpt>
      <trkpt lat="42.64054" lon="2.03186">
        <ele>1776.7</ele>
        <time>2019-10-05T11:29:29.000Z</time>
      </trkpt>
      <trkpt lat="42.64052" lon="2.0319">
        <ele>1776.7</ele>
        <time>2019-10-05T11:29:31.000Z</time>
      </trkpt>
      <trkpt lat="42.6405" lon="2.03195">
        <ele>1776.8</ele>
        <time>2019-10-05T11:29:33.000Z</time>
      </trkpt>
      <trkpt lat="42.64048" lon="2.03201">
        <ele>1776.9</ele>
        <time>2019-10-05T11:29:35.000Z</time>
      </trkpt>
      <trkpt lat="42.64046" lon="2.03207">
        <ele>1776.9</ele>
        <time>2019-10-05T11:29:37.000Z</time>
      </trkpt>
      <trkpt lat="42.64045" lon="2.03213">
        <ele>1777</ele>
        <time>2019-10-05T11:29:39.000Z</time>
      </trkpt>
      <trkpt lat="42.64044" lon="2.03218">
        <ele>1777.1</ele>
        <time>2019-10-05T11:29:41.000Z</time>
      </trkpt>
      <trkpt lat="42.64043" lon="2.03223">
        <ele>1777.3</ele>
        <time>2019-10-05T11:29:43.000Z</time>
      </trkpt>
      <trkpt lat="42.64042" lon="2.03228">
        <ele>1777.3</ele>
        <time>2019-10-05T11:29:45.000Z</time>
      </trkpt>
      <trkpt lat="42.64041" lon="2.03233">
        <ele>1777.4</ele>
        <time>2019-10-05T11:29:47.000Z</time>
      </trkpt>
      <trkpt lat="42.64018" lon="2.03505">
        <ele>1803.6</ele>
        <time>2019-10-05T11:29:47.288Z</time>
      </trkpt>
      <trkpt lat="42.64001" lon="2.03683">
        <ele>1803.4</ele>
        <time>2019-10-05T11:29:47.476Z</time>
      </trkpt>
      <trkpt lat="42.63977" lon="2.03926">
        <ele>1775.8</ele>
        <time>2019-10-05T11:29:47.735Z</time>
      </trkpt>
      <trkpt lat="42.63923" lon="2.0403">
        <ele>1755.2</ele>
        <time>2019-10-05T11:29:47.871Z</time>
      </trkpt>
      <trkpt lat="42.63858" lon="2.04203">
        <ele>1737.9</ele>
        <time>2019-10-05T11:29:48.075Z</time>
      </trkpt>
      <trkpt lat="42.63793" lon="2.04387">
        <ele>1718.1</ele>
        <time>2019-10-05T11:29:48.290Z</time>
      </trkpt>
      <trkpt lat="42.63758" lon="2.04583">
        <ele>1705.4</ele>
        <time>2019-10-05T11:29:48.501Z</time>
      </trkpt>
      <trkpt lat="42.63699" lon="2.0474">
        <ele>1683.4</ele>
        <time>2019-10-05T11:29:48.687Z</time>
      </trkpt>
      <trkpt lat="42.63674" lon="2.04957">
        <ele>1688.9</ele>
        <time>2019-10-05T11:29:48.917Z</time>
      </trkpt>
      <trkpt lat="42.63681" lon="2.05019">
        <ele>1698.1</ele>
        <time>2019-10-05T11:29:48.984Z</time>
      </trkpt>
      <trkpt lat="42.63655" lon="2.05117">
        <ele>1688.4</ele>
        <time>2019-10-05T11:29:49.093Z</time>
      </trkpt>
      <trkpt lat="42.6362" lon="2.0531">
        <ele>1684.7</ele>
        <time>2019-10-05T11:29:49.301Z</time>
      </trkpt>
      <trkpt lat="42.63531" lon="2.05598">
        <ele>1678.8</ele>
        <time>2019-10-05T11:29:49.628Z</time>
      </trkpt>
      <trkpt lat="42.63516" lon="2.05722">
        <ele>1693.3</ele>
        <time>2019-10-05T11:29:49.761Z</time>
      </trkpt>
      <trkpt lat="42.63444" lon="2.05883">
        <ele>1681.3</ele>
        <time>2019-10-05T11:29:49.958Z</time>
      </trkpt>
      <trkpt lat="42.63412" lon="2.06067">
        <ele>1681.1</ele>
        <time>2019-10-05T11:29:50.155Z</time>
      </trkpt>
      <trkpt lat="42.63366" lon="2.06278">
        <ele>1670.3</ele>
        <time>2019-10-05T11:29:50.385Z</time>
      </trkpt>
      <trkpt lat="42.63342" lon="2.06909">
        <ele>1684.3</ele>
        <time>2019-10-05T11:29:51.047Z</time>
      </trkpt>
      <trkpt lat="42.63283" lon="2.07221">
        <ele>1666.6</ele>
        <time>2019-10-05T11:29:51.384Z</time>
      </trkpt>
      <trkpt lat="42.63153" lon="2.07485">
        <ele>1653.8</ele>
        <time>2019-10-05T11:29:51.717Z</time>
      </trkpt>
      <trkpt lat="42.62565" lon="2.08775">
        <ele>1631.2</ele>
        <time>2019-10-05T11:29:53.305Z</time>
      </trkpt>
      <trkpt lat="42.62481" lon="2.09077">
        <ele>1612.8</ele>
        <time>2019-10-05T11:29:53.643Z</time>
      </trkpt>
      <trkpt lat="42.62488" lon="2.09353">
        <ele>1777.4</ele>
        <time>2019-10-05T11:29:54.000Z</time>
      </trkpt>
      <trkpt lat="42.62577" lon="2.09426">
        <ele>1631.3</ele>
        <time>2019-10-05T11:29:54.400Z</time>
      </trkpt>
      <trkpt lat="42.62663" lon="2.09488">
        <ele>1639.5</ele>
        <time>2019-10-05T11:29:54.632Z</time>
      </trkpt>
      <trkpt lat="42.62744" lon="2.09553">
        <ele>1637.4</ele>
        <time>2019-10-05T11:29:54.857Z</time>
      </trkpt>
      <trkpt lat="42.62908" lon="2.09659">
        <ele>1619.5</ele>
        <time>2019-10-05T11:29:55.293Z</time>
      </trkpt>
      <trkpt lat="42.62843" lon="2.09606">
        <ele>1626.8</ele>
        <time>2019-10-05T11:29:55.476Z</time>
      </trkpt>
      <trkpt lat="42.63078" lon="2.09843">
        <ele>1590.3</ele>
        <time>2019-10-05T11:29:56.180Z</time>
      </trkpt>
      <trkpt lat="42.63343" lon="2.10126">
        <ele>1535.4</ele>
        <time>2019-10-05T11:29:56.992Z</time>
      </trkpt>
      <trkpt lat="42.6323" lon="2.10116">
        <ele>1545.2</ele>
        <time>2019-10-05T11:29:57.262Z</time>
      </trkpt>
      <trkpt lat="42.63084" lon="2.10088">
        <ele>1537</ele>
        <time>2019-10-05T11:29:57.614Z</time>
      </trkpt>
      <trkpt lat="42.62971" lon="2.10023">
        <ele>1546.6</ele>
        <time>2019-10-05T11:29:57.910Z</time>
      </trkpt>
      <trkpt lat="42.6294" lon="2.10044">
        <ele>1535.6</ele>
        <time>2019-10-05T11:29:57.995Z</time>
      </trkpt>
      <trkpt lat="42.62901" lon="2.101">
        <ele>1531.2</ele>
        <time>2019-10-05T11:29:58.130Z</time>
      </trkpt>
      <trkpt lat="42.63017" lon="2.10165">
        <ele>1510</ele>
        <time>2019-10-05T11:29:58.433Z</time>
      </trkpt>
      <trkpt lat="42.63129" lon="2.1022">
        <ele>1502</ele>
        <time>2019-10-05T11:29:58.717Z</time>
      </trkpt>
      <trkpt lat="42.631" lon="2.10299">
        <ele>1494.7</ele>
        <time>2019-10-05T11:29:58.871Z</time>
      </trkpt>
      <trkpt lat="42.63041" lon="2.10334">
        <ele>1492</ele>
        <time>2019-10-05T11:29:59.025Z</time>
      </trkpt>
      <trkpt lat="42.6303" lon="2.10394">
        <ele>1495.8</ele>
        <time>2019-10-05T11:29:59.133Z</time>
      </trkpt>
      <trkpt lat="42.62873" lon="2.10317">
        <ele>1506.9</ele>
        <time>2019-10-05T11:29:59.533Z</time>
      </trkpt>
      <trkpt lat="42.6255" lon="2.10084">
        <ele>1520.2</ele>
        <time>2019-10-05T11:30:00.405Z</time>
      </trkpt>
      <trkpt lat="42.62351" lon="2.09975">
        <ele>1531</ele>
        <time>2019-10-05T11:30:00.919Z</time>
      </trkpt>
      <trkpt lat="42.62162" lon="2.09795">
        <ele>1531.6</ele>
        <time>2019-10-05T11:30:01.469Z</time>
      </trkpt>
      <trkpt lat="42.6212" lon="2.0971">
        <ele>1531.7</ele>
        <time>2019-10-05T11:30:01.650Z</time>
      </trkpt>
      <trkpt lat="42.6211" lon="2.0976">
        <ele>1537.6</ele>
        <time>2019-10-05T11:30:01.743Z</time>
      </trkpt>
      <trkpt lat="42.62064" lon="2.09805">
        <ele>1556.7</ele>
        <time>2019-10-05T11:30:01.884Z</time>
      </trkpt>
      <trkpt lat="42.62189" lon="2.10068">
        <ele>1580.4</ele>
        <time>2019-10-05T11:30:02.437Z</time>
      </trkpt>
      <trkpt lat="42.62389" lon="2.10281">
        <ele>1585.6</ele>
        <time>2019-10-05T11:30:03.043Z</time>
      </trkpt>
      <trkpt lat="42.62512" lon="2.10393">
        <ele>1590.7</ele>
        <time>2019-10-05T11:30:03.396Z</time>
      </trkpt>
      <trkpt lat="42.62608" lon="2.10461">
        <ele>1584.7</ele>
        <time>2019-10-05T11:30:03.656Z</time>
      </trkpt>
      <trkpt lat="42.62768" lon="2.10708">
        <ele>1644.6</ele>
        <time>2019-10-05T11:30:04.248Z</time>
      </trkpt>
      <trkpt lat="42.62663" lon="2.1076">
        <ele>1594.2</ele>
        <time>2019-10-05T11:30:04.534Z</time>
      </trkpt>
      <trkpt lat="42.62523" lon="2.10719">
        <ele>1599.7</ele>
        <time>2019-10-05T11:30:04.877Z</time>
      </trkpt>
      <trkpt lat="42.62324" lon="2.10684">
        <ele>1584.1</ele>
        <time>2019-10-05T11:30:05.358Z</time>
      </trkpt>
      <trkpt lat="42.62136" lon="2.1062">
        <ele>1573.1</ele>
        <time>2019-10-05T11:30:05.822Z</time>
      </trkpt>
      <trkpt lat="42.62037" lon="2.10602">
        <ele>1566.2</ele>
        <time>2019-10-05T11:30:06.060Z</time>
      </trkpt>
      <trkpt lat="42.61892" lon="2.10493">
        <ele>1565</ele>
        <time>2019-10-05T11:30:06.455Z</time>
      </trkpt>
      <trkpt lat="42.6177" lon="2.10363">
        <ele>1559</ele>
        <time>2019-10-05T11:30:06.827Z</time>
      </trkpt>
      <trkpt lat="42.61602" lon="2.10161">
        <ele>1545.4</ele>
        <time>2019-10-05T11:30:07.362Z</time>
      </trkpt>
      <trkpt lat="42.61454" lon="2.10265">
        <ele>1514.9</ele>
        <time>2019-10-05T11:30:07.765Z</time>
      </trkpt>
      <trkpt lat="42.61362" lon="2.10271">
        <ele>1511.5</ele>
        <time>2019-10-05T11:30:07.986Z</time>
      </trkpt>
      <trkpt lat="42.61326" lon="2.10385">
        <ele>1505.5</ele>
        <time>2019-10-05T11:30:08.204Z</time>
      </trkpt>
      <trkpt lat="42.6129" lon="2.1064">
        <ele>1506.9</ele>
        <time>2019-10-05T11:30:08.660Z</time>
      </trkpt>
      <trkpt lat="42.61131" lon="2.11015">
        <ele>1511.4</ele>
        <time>2019-10-05T11:30:09.422Z</time>
      </trkpt>
      <trkpt lat="42.6098" lon="2.11607">
        <ele>1503.5</ele>
        <time>2019-10-05T11:30:10.523Z</time>
      </trkpt>
      <trkpt lat="42.60912" lon="2.12047">
        <ele>1500.1</ele>
        <time>2019-10-05T11:30:11.312Z</time>
      </trkpt>
      <trkpt lat="42.60583" lon="2.11701">
        <ele>1514.8</ele>
        <time>2019-10-05T11:30:12.307Z</time>
      </trkpt>
      <trkpt lat="42.60282" lon="2.11523">
        <ele>1527.2</ele>
        <time>2019-10-05T11:30:13.091Z</time>
      </trkpt>
      <trkpt lat="42.60145" lon="2.11399">
        <ele>1532.5</ele>
        <time>2019-10-05T11:30:13.483Z</time>
      </trkpt>
      <trkpt lat="42.59881" lon="2.11459">
        <ele>1526</ele>
        <time>2019-10-05T11:30:14.124Z</time>
      </trkpt>
      <trkpt lat="42.59705" lon="2.11466">
        <ele>1526.2</ele>
        <time>2019-10-05T11:30:14.545Z</time>
      </trkpt>
      <trkpt lat="42.59552" lon="2.11406">
        <ele>1525.9</ele>
        <time>2019-10-05T11:30:14.923Z</time>
      </trkpt>
      <trkpt lat="42.59356" lon="2.1151">
        <ele>1526.5</ele>
        <time>2019-10-05T11:30:15.426Z</time>
      </trkpt>
      <trkpt lat="42.59212" lon="2.11451">
        <ele>1528.8</ele>
        <time>2019-10-05T11:30:15.786Z</time>
      </trkpt>
      <trkpt lat="42.58947" lon="2.11496">
        <ele>1527.8</ele>
        <time>2019-10-05T11:30:16.422Z</time>
      </trkpt>
      <trkpt lat="42.58782" lon="2.11734">
        <ele>1518.2</ele>
        <time>2019-10-05T11:30:16.998Z</time>
      </trkpt>
      <trkpt lat="42.58714" lon="2.11813">
        <ele>1503.3</ele>
        <time>2019-10-05T11:30:17.215Z</time>
      </trkpt>
      <trkpt lat="42.58681" lon="2.11891">
        <ele>1495.3</ele>
        <time>2019-10-05T11:30:17.374Z</time>
      </trkpt>
      <trkpt lat="42.58526" lon="2.11872">
        <ele>1500</ele>
        <time>2019-10-05T11:30:17.747Z</time>
      </trkpt>
      <trkpt lat="42.58439" lon="2.11814">
        <ele>1501.4</ele>
        <time>2019-10-05T11:30:17.978Z</time>
      </trkpt>
      <trkpt lat="42.58569" lon="2.12039">
        <ele>1506.8</ele>
        <time>2019-10-05T11:30:18.482Z</time>
      </trkpt>
      <trkpt lat="42.58704" lon="2.1218">
        <ele>1519.1</ele>
        <time>2019-10-05T11:30:18.888Z</time>
      </trkpt>
      <trkpt lat="42.58769" lon="2.12395">
        <ele>1537.2</ele>
        <time>2019-10-05T11:30:19.299Z</time>
      </trkpt>
      <trkpt lat="42.589" lon="2.12522">
        <ele>1551.6</ele>
        <time>2019-10-05T11:30:19.683Z</time>
      </trkpt>
      <trkpt lat="42.59084" lon="2.12678">
        <ele>1571.9</ele>
        <time>2019-10-05T11:30:20.205Z</time>
      </trkpt>
      <trkpt lat="42.59197" lon="2.12766">
        <ele>1574.9</ele>
        <time>2019-10-05T11:30:20.514Z</time>
      </trkpt>
      <trkpt lat="42.59302" lon="2.12898">
        <ele>1602.1</ele>
        <time>2019-10-05T11:30:20.860Z</time>
      </trkpt>
      <trkpt lat="42.59367" lon="2.12897">
        <ele>1592.2</ele>
        <time>2019-10-05T11:30:21.017Z</time>
      </trkpt>
      <trkpt lat="42.59483" lon="2.13059">
        <ele>1608.7</ele>
        <time>2019-10-05T11:30:21.416Z</time>
      </trkpt>
      <trkpt lat="42.59733" lon="2.132">
        <ele>1656.8</ele>
        <time>2019-10-05T11:30:22.070Z</time>
      </trkpt>
      <trkpt lat="42.59802" lon="2.1317">
        <ele>1640.6</ele>
        <time>2019-10-05T11:30:22.246Z</time>
      </trkpt>
      <trkpt lat="42.60146" lon="2.13292">
        <ele>1659.5</ele>
        <time>2019-10-05T11:30:23.095Z</time>
      </trkpt>
      <trkpt lat="42.60265" lon="2.13384">
        <ele>1662.1</ele>
        <time>2019-10-05T11:30:23.423Z</time>
      </trkpt>
      <trkpt lat="42.60349" lon="2.13472">
        <ele>1662.9</ele>
        <time>2019-10-05T11:30:23.675Z</time>
      </trkpt>
      <trkpt lat="42.6027" lon="2.13766">
        <ele>1721.4</ele>
        <time>2019-10-05T11:30:24.239Z</time>
      </trkpt>
      <trkpt lat="42.60078" lon="2.13909">
        <ele>1716.4</ele>
        <time>2019-10-05T11:30:24.761Z</time>
      </trkpt>
      <trkpt lat="42.59923" lon="2.13988">
        <ele>1719.9</ele>
        <time>2019-10-05T11:30:25.157Z</time>
      </trkpt>
      <trkpt lat="42.59984" lon="2.13782">
        <ele>1736.5</ele>
        <time>2019-10-05T11:30:25.548Z</time>
      </trkpt>
      <trkpt lat="42.59948" lon="2.13713">
        <ele>1752.6</ele>
        <time>2019-10-05T11:30:25.701Z</time>
      </trkpt>
      <trkpt lat="42.59919" lon="2.13669">
        <ele>1760.6</ele>
        <time>2019-10-05T11:30:25.806Z</time>
      </trkpt>
      <trkpt lat="42.59864" lon="2.13743">
        <ele>1757.7</ele>
        <time>2019-10-05T11:30:25.989Z</time>
      </trkpt>
      <trkpt lat="42.59752" lon="2.13694">
        <ele>1768.1</ele>
        <time>2019-10-05T11:30:26.271Z</time>
      </trkpt>
      <trkpt lat="42.59715" lon="2.13892">
        <ele>1766.7</ele>
        <time>2019-10-05T11:30:26.629Z</time>
      </trkpt>
      <trkpt lat="42.59619" lon="2.13876">
        <ele>1801.2</ele>
        <time>2019-10-05T11:30:26.871Z</time>
      </trkpt>
      <trkpt lat="42.59503" lon="2.13994">
        <ele>1826.1</ele>
        <time>2019-10-05T11:30:27.220Z</time>
      </trkpt>
      <trkpt lat="42.59438" lon="2.14014">
        <ele>1823.1</ele>
        <time>2019-10-05T11:30:27.380Z</time>
      </trkpt>
      <trkpt lat="42.59378" lon="2.14005">
        <ele>1822.1</ele>
        <time>2019-10-05T11:30:27.525Z</time>
      </trkpt>
      <trkpt lat="42.59326" lon="2.13936">
        <ele>1826.3</ele>
        <time>2019-10-05T11:30:27.699Z</time>
      </trkpt>
      <trkpt lat="42.59253" lon="2.13838">
        <ele>1827.3</ele>
        <time>2019-10-05T11:30:27.943Z</time>
      </trkpt>
      <trkpt lat="42.59105" lon="2.13692">
        <ele>1832.8</ele>
        <time>2019-10-05T11:30:28.381Z</time>
      </trkpt>
      <trkpt lat="42.58942" lon="2.13536">
        <ele>1844.1</ele>
        <time>2019-10-05T11:30:28.858Z</time>
      </trkpt>
      <trkpt lat="42.58855" lon="2.13443">
        <ele>1829.8</ele>
        <time>2019-10-05T11:30:29.124Z</time>
      </trkpt>
      <trkpt lat="42.58717" lon="2.13331">
        <ele>1822.3</ele>
        <time>2019-10-05T11:30:29.507Z</time>
      </trkpt>
      <trkpt lat="42.58511" lon="2.13234">
        <ele>1818.2</ele>
        <time>2019-10-05T11:30:30.029Z</time>
      </trkpt>
      <trkpt lat="42.58351" lon="2.13146">
        <ele>1821.8</ele>
        <time>2019-10-05T11:30:30.439Z</time>
      </trkpt>
      <trkpt lat="42.58134" lon="2.1301">
        <ele>1830.3</ele>
        <time>2019-10-05T11:30:31.011Z</time>
      </trkpt>
      <trkpt lat="42.57928" lon="2.12966">
        <ele>1840.6</ele>
        <time>2019-10-05T11:30:31.510Z</time>
      </trkpt>
      <trkpt lat="42.57747" lon="2.13021">
        <ele>1846.5</ele>
        <time>2019-10-05T11:30:31.952Z</time>
      </trkpt>
      <trkpt lat="42.57624" lon="2.13041">
        <ele>1853.2</ele>
        <time>2019-10-05T11:30:32.248Z</time>
      </trkpt>
      <trkpt lat="42.57572" lon="2.13103">
        <ele>1511.4</ele>
        <time>2019-10-05T11:30:33.000Z</time>
      </trkpt>
    </trkseg>
  </trk>
</gpx>